Time,TemperatureF,DewpointF,PressureIn,WindDirection,WindDirectionDegrees,WindSpeedMPH,WindSpeedGustMPH,Humidity,HourlyPrecipIn,Conditions,Clouds,dailyrainin,SoftwareType,DateUTC
2013-10-22 00:00:00,41.3,31.2,29.84,WNW,303,0.0,1.0,67,0.00,,---,0.00,VWS V14.01,2013-10-22 04:00:00,
2013-10-22 00:01:00,41.2,31.1,29.84,WNW,303,0.0,1.0,67,0.00,,---,0.00,VWS V14.01,2013-10-22 04:01:00,
2013-10-22 00:02:00,41.2,31.1,29.84,West,276,0.0,2.0,67,0.00,,---,0.00,VWS V14.01,2013-10-22 04:02:00,
2013-10-22 00:03:00,41.2,31.1,29.84,WNW,302,0.0,2.0,67,0.00,,---,0.00,VWS V14.01,2013-10-22 04:03:00,
2013-10-22 00:04:00,41.2,30.7,29.84,WNW,302,0.0,2.0,66,0.00,,---,0.00,VWS V14.01,2013-10-22 04:04:00,
2013-10-22 00:05:00,41.2,30.7,29.84,West,281,1.0,2.0,66,0.00,,---,0.00,VWS V14.01,2013-10-22 04:05:00,
2013-10-22 00:06:00,41.2,30.7,29.84,WNW,286,0.0,1.0,66,0.00,,---,0.00,VWS V14.01,2013-10-22 04:06:00,
2013-10-22 00:07:00,41.2,30.7,29.84,WNW,286,1.0,1.0,66,0.00,,---,0.00,VWS V14.01,2013-10-22 04:07:00,
2013-10-22 00:08:00,41.2,30.7,29.84,West,261,2.0,2.0,66,0.00,,---,0.00,VWS V14.01,2013-10-22 04:08:00,
2013-10-22 00:09:00,41.2,30.7,29.84,WNW,283,0.0,6.0,66,0.00,,---,0.00,VWS V14.01,2013-10-22 04:09:00,
2013-10-22 00:10:00,41.2,30.3,29.84,West,274,0.0,6.0,65,0.00,,---,0.00,VWS V14.01,2013-10-22 04:10:00,
2013-10-22 00:11:00,41.2,30.3,29.84,NW,323,0.0,2.0,65,0.00,,---,0.00,VWS V14.01,2013-10-22 04:11:00,
2013-10-22 00:12:00,41.2,30.3,29.84,NW,323,0.0,2.0,65,0.00,,---,0.00,VWS V14.01,2013-10-22 04:12:00,
2013-10-22 00:13:00,41.2,30.7,29.84,NW,323,0.0,2.0,66,0.00,,---,0.00,VWS V14.01,2013-10-22 04:13:00,
2013-10-22 00:14:00,41.2,30.7,29.84,NW,323,0.0,2.0,66,0.00,,---,0.00,VWS V14.01,2013-10-22 04:14:00,
2013-10-22 00:15:00,41.2,30.7,29.84,WNW,291,0.0,2.0,66,0.00,,---,0.00,VWS V14.01,2013-10-22 04:15:00,
2013-10-22 00:16:00,41.2,30.7,29.84,West,276,0.0,0.0,66,0.00,,---,0.00,VWS V14.01,2013-10-22 04:16:00,
2013-10-22 00:17:00,41.2,30.7,29.84,West,274,0.0,1.0,66,0.00,,---,0.00,VWS V14.01,2013-10-22 04:17:00,
2013-10-22 00:18:00,41.2,30.7,29.84,West,274,0.0,1.0,66,0.00,,---,0.00,VWS V14.01,2013-10-22 04:18:00,
2013-10-22 00:19:00,41.2,30.7,29.84,West,274,1.0,1.0,66,0.00,,---,0.00,VWS V14.01,2013-10-22 04:19:00,
2013-10-22 00:20:00,41.2,30.7,29.84,West,274,0.0,1.0,66,0.00,,---,0.00,VWS V14.01,2013-10-22 04:20:00,
2013-10-22 00:21:00,41.2,30.7,29.84,West,274,0.0,1.0,66,0.00,,---,0.00,VWS V14.01,2013-10-22 04:21:00,
2013-10-22 00:22:00,41.2,30.7,29.84,WSW,238,1.0,6.0,66,0.00,,---,0.00,VWS V14.01,2013-10-22 04:22:00,
2013-10-22 00:23:00,41.2,30.3,29.84,WNW,294,4.0,6.0,65,0.00,,---,0.00,VWS V14.01,2013-10-22 04:23:00,
2013-10-22 00:24:00,41.3,30.4,29.84,West,272,1.0,6.0,65,0.00,,---,0.00,VWS V14.01,2013-10-22 04:24:00,
2013-10-22 00:25:00,41.3,30.4,29.84,North,0,0.0,6.0,65,0.00,,---,0.00,VWS V14.01,2013-10-22 04:25:00,
2013-10-22 00:26:00,41.3,30.1,29.84,NW,323,1.0,1.0,64,0.00,,---,0.00,VWS V14.01,2013-10-22 04:26:00,
2013-10-22 00:27:00,41.3,30.4,29.84,NNW,337,0.0,1.0,65,0.00,,---,0.00,VWS V14.01,2013-10-22 04:27:00,
2013-10-22 00:28:00,41.3,30.4,29.84,WNW,286,0.0,3.0,65,0.00,,---,0.00,VWS V14.01,2013-10-22 04:28:00,
2013-10-22 00:29:00,41.3,30.4,29.84,WNW,286,0.0,3.0,65,0.00,,---,0.00,VWS V14.01,2013-10-22 04:29:00,
2013-10-22 00:30:00,41.3,30.4,29.84,WNW,286,0.0,3.0,65,0.00,,---,0.00,VWS V14.01,2013-10-22 04:30:00,
2013-10-22 00:31:00,41.3,30.4,29.84,WNW,286,0.0,0.0,65,0.00,,---,0.00,VWS V14.01,2013-10-22 04:31:00,
2013-10-22 00:32:00,41.3,30.8,29.84,NNW,346,0.0,2.0,66,0.00,,---,0.00,VWS V14.01,2013-10-22 04:32:00,
2013-10-22 00:33:00,41.3,30.4,29.84,WSW,238,1.0,4.0,65,0.00,,---,0.00,VWS V14.01,2013-10-22 04:33:00,
2013-10-22 00:34:00,41.3,30.4,29.84,West,259,0.0,4.0,65,0.00,,---,0.00,VWS V14.01,2013-10-22 04:34:00,
2013-10-22 00:35:00,41.3,30.4,29.84,West,271,1.0,4.0,65,0.00,,---,0.00,VWS V14.01,2013-10-22 04:35:00,
2013-10-22 00:36:00,41.4,30.5,29.84,West,280,3.0,3.0,65,0.00,,---,0.00,VWS V14.01,2013-10-22 04:36:00,
2013-10-22 00:37:00,41.4,30.5,29.84,NW,310,0.0,3.0,65,0.00,,---,0.00,VWS V14.01,2013-10-22 04:37:00,
2013-10-22 00:38:00,41.4,30.5,29.84,WNW,283,1.0,3.0,65,0.00,,---,0.00,VWS V14.01,2013-10-22 04:38:00,
2013-10-22 00:39:00,41.4,30.5,29.84,WNW,290,0.0,3.0,65,0.00,,---,0.00,VWS V14.01,2013-10-22 04:39:00,
2013-10-22 00:40:00,41.4,30.1,29.84,WNW,290,0.0,3.0,64,0.00,,---,0.00,VWS V14.01,2013-10-22 04:40:00,
2013-10-22 00:41:00,41.4,30.1,29.84,NNW,334,0.0,0.0,64,0.00,,---,0.00,VWS V14.01,2013-10-22 04:41:00,
2013-10-22 00:42:00,41.4,30.1,29.84,WNW,290,1.0,3.0,64,0.00,,---,0.00,VWS V14.01,2013-10-22 04:42:00,
2013-10-22 00:43:00,41.4,30.1,29.84,WNW,290,0.0,3.0,64,0.00,,---,0.00,VWS V14.01,2013-10-22 04:43:00,
2013-10-22 00:44:00,41.3,30.4,29.84,WNW,299,1.0,3.0,65,0.00,,---,0.00,VWS V14.01,2013-10-22 04:44:00,
2013-10-22 00:45:00,41.3,30.4,29.84,ENE,70,0.0,3.0,65,0.00,,---,0.00,VWS V14.01,2013-10-22 04:45:00,
2013-10-22 00:46:00,41.3,30.4,29.84,NW,319,0.0,0.0,65,0.00,,---,0.00,VWS V14.01,2013-10-22 04:46:00,
2013-10-22 00:47:00,41.3,30.4,29.84,NW,319,0.0,1.0,65,0.00,,---,0.00,VWS V14.01,2013-10-22 04:47:00,
2013-10-22 00:48:00,41.3,30.4,29.84,NW,306,0.0,2.0,65,0.00,,---,0.00,VWS V14.01,2013-10-22 04:48:00,
2013-10-22 00:49:00,41.3,30.4,29.84,NW,322,0.0,2.0,65,0.00,,---,0.00,VWS V14.01,2013-10-22 04:49:00,
2013-10-22 00:50:00,41.3,30.1,29.84,WNW,294,0.0,3.0,64,0.00,,---,0.00,VWS V14.01,2013-10-22 04:50:00,
2013-10-22 00:51:00,41.3,30.1,29.84,WNW,294,0.0,0.0,64,0.00,,---,0.00,VWS V14.01,2013-10-22 04:51:00,
2013-10-22 00:52:00,41.3,30.4,29.84,WNW,294,0.0,0.0,65,0.00,,---,0.00,VWS V14.01,2013-10-22 04:52:00,
2013-10-22 00:53:00,41.3,30.4,29.84,West,275,0.0,2.0,65,0.00,,---,0.00,VWS V14.01,2013-10-22 04:53:00,
2013-10-22 00:54:00,41.3,30.4,29.84,West,275,0.0,2.0,65,0.00,,---,0.00,VWS V14.01,2013-10-22 04:54:00,
2013-10-22 00:55:00,41.3,30.4,29.84,WNW,286,0.0,2.0,65,0.00,,---,0.00,VWS V14.01,2013-10-22 04:55:00,
2013-10-22 00:56:00,41.3,30.1,29.84,WNW,286,0.0,0.0,64,0.00,,---,0.00,VWS V14.01,2013-10-22 04:56:00,
2013-10-22 00:57:00,41.3,30.4,29.84,WNW,287,0.0,0.0,65,0.00,,---,0.00,VWS V14.01,2013-10-22 04:57:00,
2013-10-22 00:58:00,41.3,30.4,29.84,WNW,283,1.0,1.0,65,0.00,,---,0.00,VWS V14.01,2013-10-22 04:58:00,
2013-10-22 00:59:00,41.2,30.0,29.84,WNW,286,0.0,2.0,64,0.00,,---,0.00,VWS V14.01,2013-10-22 04:59:00,
2013-10-22 01:00:00,41.2,30.0,29.84,WNW,292,0.0,2.0,64,0.00,,---,0.00,VWS V14.01,2013-10-22 05:00:00,
2013-10-22 01:01:00,41.2,30.0,29.84,WNW,302,0.0,0.0,64,0.00,,---,0.00,VWS V14.01,2013-10-22 05:01:00,
2013-10-22 01:02:00,41.2,30.0,29.84,WNW,301,0.0,1.0,64,0.00,,---,0.00,VWS V14.01,2013-10-22 05:02:00,
2013-10-22 01:03:00,41.2,30.3,29.84,NW,314,0.0,1.0,65,0.00,,---,0.00,VWS V14.01,2013-10-22 05:03:00,
2013-10-22 01:04:00,41.2,30.3,29.84,WNW,302,2.0,2.0,65,0.00,,---,0.00,VWS V14.01,2013-10-22 05:04:00,
2013-10-22 01:05:00,41.2,30.3,29.84,WNW,303,0.0,2.0,65,0.00,,---,0.00,VWS V14.01,2013-10-22 05:05:00,
2013-10-22 01:06:00,41.2,30.3,29.84,WNW,302,0.0,1.0,65,0.00,,---,0.00,VWS V14.01,2013-10-22 05:06:00,
2013-10-22 01:07:00,41.2,30.3,29.84,NW,304,0.0,1.0,65,0.00,,---,0.00,VWS V14.01,2013-10-22 05:07:00,
2013-10-22 01:08:00,41.2,30.3,29.84,WNW,302,0.0,1.0,65,0.00,,---,0.00,VWS V14.01,2013-10-22 05:08:00,
2013-10-22 01:09:00,41.2,30.7,29.84,WNW,302,0.0,1.0,66,0.00,,---,0.00,VWS V14.01,2013-10-22 05:09:00,
2013-10-22 01:10:00,41.2,30.3,29.84,WNW,302,0.0,1.0,65,0.00,,---,0.00,VWS V14.01,2013-10-22 05:10:00,
2013-10-22 01:11:00,41.2,30.7,29.84,WSW,256,3.0,3.0,66,0.00,,---,0.00,VWS V14.01,2013-10-22 05:11:00,
2013-10-22 01:12:00,41.1,30.2,29.84,WSW,253,0.0,3.0,65,0.00,,---,0.00,VWS V14.01,2013-10-22 05:12:00,
2013-10-22 01:13:00,41.1,30.2,29.84,West,273,0.0,3.0,65,0.00,,---,0.00,VWS V14.01,2013-10-22 05:13:00,
2013-10-22 01:14:00,41.1,29.9,29.84,West,273,0.0,3.0,64,0.00,,---,0.00,VWS V14.01,2013-10-22 05:14:00,
2013-10-22 01:15:00,41.1,30.2,29.84,North,359,1.0,3.0,65,0.00,,---,0.00,VWS V14.01,2013-10-22 05:15:00,
2013-10-22 01:16:00,41.1,30.2,29.84,NW,322,1.0,3.0,65,0.00,,---,0.00,VWS V14.01,2013-10-22 05:16:00,
2013-10-22 01:17:00,41.1,30.2,29.84,NW,316,0.0,3.0,65,0.00,,---,0.00,VWS V14.01,2013-10-22 05:17:00,
2013-10-22 01:18:00,41.1,30.2,29.84,NW,316,0.0,3.0,65,0.00,,---,0.00,VWS V14.01,2013-10-22 05:18:00,
2013-10-22 01:19:00,41.1,30.2,29.84,NW,311,0.0,3.0,65,0.00,,---,0.00,VWS V14.01,2013-10-22 05:19:00,
2013-10-22 01:20:00,41.1,30.2,29.84,NW,311,0.0,3.0,65,0.00,,---,0.00,VWS V14.01,2013-10-22 05:20:00,
2013-10-22 01:21:00,41.1,30.2,29.84,NW,310,0.0,1.0,65,0.00,,---,0.00,VWS V14.01,2013-10-22 05:21:00,
2013-10-22 01:22:00,41.1,30.2,29.84,WNW,291,0.0,1.0,65,0.00,,---,0.00,VWS V14.01,2013-10-22 05:22:00,
2013-10-22 01:23:00,41.0,30.1,29.84,WNW,291,0.0,1.0,65,0.00,,---,0.00,VWS V14.01,2013-10-22 05:23:00,
2013-10-22 01:24:00,41.0,30.1,29.84,WNW,291,0.0,1.0,65,0.00,,---,0.00,VWS V14.01,2013-10-22 05:24:00,
2013-10-22 01:25:00,41.0,30.1,29.84,WNW,291,0.0,1.0,65,0.00,,---,0.00,VWS V14.01,2013-10-22 05:25:00,
2013-10-22 01:26:00,41.0,30.1,29.84,WNW,291,0.0,0.0,65,0.00,,---,0.00,VWS V14.01,2013-10-22 05:26:00,
2013-10-22 01:27:00,41.0,30.1,29.84,WNW,291,0.0,0.0,65,0.00,,---,0.00,VWS V14.01,2013-10-22 05:27:00,
2013-10-22 01:28:00,41.0,30.5,29.84,WNW,290,0.0,2.0,66,0.00,,---,0.00,VWS V14.01,2013-10-22 05:28:00,
2013-10-22 01:29:00,41.0,30.1,29.84,WNW,290,0.0,2.0,65,0.00,,---,0.00,VWS V14.01,2013-10-22 05:29:00,
2013-10-22 01:30:00,40.9,30.1,29.84,WNW,290,0.0,2.0,65,0.00,,---,0.00,VWS V14.01,2013-10-22 05:30:00,
2013-10-22 01:31:00,40.9,30.4,29.84,SW,234,0.0,2.0,66,0.00,,---,0.00,VWS V14.01,2013-10-22 05:31:00,
2013-10-22 01:32:00,40.9,30.4,29.84,SW,225,0.0,2.0,66,0.00,,---,0.00,VWS V14.01,2013-10-22 05:32:00,
2013-10-22 01:33:00,40.9,30.4,29.84,SW,225,0.0,2.0,66,0.00,,---,0.00,VWS V14.01,2013-10-22 05:33:00,
2013-10-22 01:34:00,40.9,30.4,29.84,SW,225,0.0,2.0,66,0.00,,---,0.00,VWS V14.01,2013-10-22 05:34:00,
2013-10-22 01:35:00,40.9,30.4,29.84,SW,225,0.0,2.0,66,0.00,,---,0.00,VWS V14.01,2013-10-22 05:35:00,
2013-10-22 01:36:00,40.9,30.4,29.84,West,279,1.0,1.0,66,0.00,,---,0.00,VWS V14.01,2013-10-22 05:36:00,
2013-10-22 01:37:00,40.8,30.7,29.84,NW,307,0.0,2.0,67,0.00,,---,0.00,VWS V14.01,2013-10-22 05:37:00,
2013-10-22 01:38:00,40.8,30.3,29.84,NW,307,0.0,2.0,66,0.00,,---,0.00,VWS V14.01,2013-10-22 05:38:00,
2013-10-22 01:39:00,40.8,30.3,29.84,West,281,1.0,3.0,66,0.00,,---,0.00,VWS V14.01,2013-10-22 05:39:00,
2013-10-22 01:40:00,40.7,30.2,29.84,West,278,0.0,3.0,66,0.00,,---,0.00,VWS V14.01,2013-10-22 05:40:00,
2013-10-22 01:41:00,40.7,29.9,29.84,West,278,0.0,2.0,65,0.00,,---,0.00,VWS V14.01,2013-10-22 05:41:00,
2013-10-22 01:42:00,40.7,30.2,29.84,West,278,0.0,2.0,66,0.00,,---,0.00,VWS V14.01,2013-10-22 05:42:00,
2013-10-22 01:43:00,40.7,30.2,29.84,West,278,0.0,2.0,66,0.00,,---,0.00,VWS V14.01,2013-10-22 05:43:00,
2013-10-22 01:44:00,40.7,30.2,29.84,West,278,0.0,2.0,66,0.00,,---,0.00,VWS V14.01,2013-10-22 05:44:00,
2013-10-22 01:45:00,40.7,30.6,29.84,West,278,0.0,2.0,67,0.00,,---,0.00,VWS V14.01,2013-10-22 05:45:00,
2013-10-22 01:46:00,40.6,30.1,29.84,WNW,297,0.0,1.0,66,0.00,,---,0.00,VWS V14.01,2013-10-22 05:46:00,
2013-10-22 01:47:00,40.6,30.1,29.84,WNW,297,0.0,1.0,66,0.00,,---,0.00,VWS V14.01,2013-10-22 05:47:00,
2013-10-22 01:48:00,40.6,30.1,29.84,WNW,297,2.0,2.0,66,0.00,,---,0.00,VWS V14.01,2013-10-22 05:48:00,
2013-10-22 01:49:00,40.6,30.5,29.84,NW,304,1.0,2.0,67,0.00,,---,0.00,VWS V14.01,2013-10-22 05:49:00,
2013-10-22 01:50:00,40.6,30.5,29.84,NW,304,0.0,2.0,67,0.00,,---,0.00,VWS V14.01,2013-10-22 05:50:00,
2013-10-22 01:51:00,40.5,30.0,29.84,NW,304,0.0,0.0,66,0.00,,---,0.00,VWS V14.01,2013-10-22 05:51:00,
2013-10-22 01:52:00,40.5,30.4,29.84,NW,304,0.0,0.0,67,0.00,,---,0.00,VWS V14.01,2013-10-22 05:52:00,
2013-10-22 01:53:00,40.5,30.4,29.84,NW,304,0.0,0.0,67,0.00,,---,0.00,VWS V14.01,2013-10-22 05:53:00,
2013-10-22 01:54:00,40.5,30.4,29.84,NW,304,0.0,1.0,67,0.00,,---,0.00,VWS V14.01,2013-10-22 05:54:00,
2013-10-22 01:55:00,40.5,30.4,29.84,NW,304,0.0,1.0,67,0.00,,---,0.00,VWS V14.01,2013-10-22 05:55:00,
2013-10-22 01:56:00,40.5,30.8,29.84,NW,304,0.0,0.0,68,0.00,,---,0.00,VWS V14.01,2013-10-22 05:56:00,
2013-10-22 01:57:00,40.4,30.7,29.84,NW,308,0.0,2.0,68,0.00,,---,0.00,VWS V14.01,2013-10-22 05:57:00,
2013-10-22 01:58:00,40.4,30.3,29.84,NW,308,0.0,2.0,67,0.00,,---,0.00,VWS V14.01,2013-10-22 05:58:00,
2013-10-22 01:59:00,40.4,30.7,29.84,NW,308,0.0,2.0,68,0.00,,---,0.00,VWS V14.01,2013-10-22 05:59:00,
2013-10-22 02:00:00,40.4,30.7,29.84,NW,308,0.0,2.0,68,0.00,,---,0.00,VWS V14.01,2013-10-22 06:00:00,
2013-10-22 02:01:00,40.4,30.7,29.84,NW,307,0.0,2.0,68,0.00,,---,0.00,VWS V14.01,2013-10-22 06:01:00,
2013-10-22 02:02:00,40.3,30.6,29.84,NW,307,0.0,2.0,68,0.00,,---,0.00,VWS V14.01,2013-10-22 06:02:00,
2013-10-22 02:03:00,40.3,30.6,29.84,NW,307,0.0,2.0,68,0.00,,---,0.00,VWS V14.01,2013-10-22 06:03:00,
2013-10-22 02:04:00,40.3,30.6,29.84,ENE,77,0.0,2.0,68,0.00,,---,0.00,VWS V14.01,2013-10-22 06:04:00,
2013-10-22 02:05:00,40.2,30.5,29.84,ENE,77,0.0,2.0,68,0.00,,---,0.00,VWS V14.01,2013-10-22 06:05:00,
2013-10-22 02:06:00,40.3,30.6,29.84,ENE,77,0.0,0.0,68,0.00,,---,0.00,VWS V14.01,2013-10-22 06:06:00,
2013-10-22 02:07:00,40.2,30.5,29.84,ENE,77,0.0,0.0,68,0.00,,---,0.00,VWS V14.01,2013-10-22 06:07:00,
2013-10-22 02:08:00,40.2,30.5,29.84,ENE,77,0.0,0.0,68,0.00,,---,0.00,VWS V14.01,2013-10-22 06:08:00,
2013-10-22 02:09:00,40.2,30.5,29.84,ENE,77,0.0,0.0,68,0.00,,---,0.00,VWS V14.01,2013-10-22 06:09:00,
2013-10-22 02:10:00,40.2,30.9,29.84,ENE,77,0.0,1.0,69,0.00,,---,0.00,VWS V14.01,2013-10-22 06:10:00,
2013-10-22 02:11:00,40.2,30.9,29.84,ENE,77,0.0,0.0,69,0.00,,---,0.00,VWS V14.01,2013-10-22 06:11:00,
2013-10-22 02:12:00,40.2,30.9,29.84,ENE,77,0.0,0.0,69,0.00,,---,0.00,VWS V14.01,2013-10-22 06:12:00,
2013-10-22 02:13:00,40.2,30.9,29.84,NW,313,0.0,1.0,69,0.00,,---,0.00,VWS V14.01,2013-10-22 06:13:00,
2013-10-22 02:14:00,40.2,30.9,29.84,NW,313,0.0,1.0,69,0.00,,---,0.00,VWS V14.01,2013-10-22 06:14:00,
2013-10-22 02:15:00,40.2,30.9,29.84,NW,313,0.0,1.0,69,0.00,,---,0.00,VWS V14.01,2013-10-22 06:15:00,
2013-10-22 02:16:00,40.1,30.8,29.84,NW,313,0.0,0.0,69,0.00,,---,0.00,VWS V14.01,2013-10-22 06:16:00,
2013-10-22 02:17:00,40.1,30.8,29.84,NW,311,0.0,1.0,69,0.00,,---,0.00,VWS V14.01,2013-10-22 06:17:00,
2013-10-22 02:18:00,40.1,30.8,29.84,NW,311,0.0,1.0,69,0.00,,---,0.00,VWS V14.01,2013-10-22 06:18:00,
2013-10-22 02:19:00,40.1,30.8,29.84,NW,311,0.0,1.0,69,0.00,,---,0.00,VWS V14.01,2013-10-22 06:19:00,
2013-10-22 02:20:00,40.1,31.1,29.84,NW,314,0.0,1.0,70,0.00,,---,0.00,VWS V14.01,2013-10-22 06:20:00,
2013-10-22 02:21:00,40.1,31.1,29.84,NW,314,0.0,0.0,70,0.00,,---,0.00,VWS V14.01,2013-10-22 06:21:00,
2013-10-22 02:22:00,40.1,31.1,29.84,NW,314,0.0,0.0,70,0.00,,---,0.00,VWS V14.01,2013-10-22 06:22:00,
2013-10-22 02:23:00,40.1,31.1,29.84,NW,314,0.0,0.0,70,0.00,,---,0.00,VWS V14.01,2013-10-22 06:23:00,
2013-10-22 02:24:00,40.0,30.7,29.84,NW,314,0.0,0.0,69,0.00,,---,0.00,VWS V14.01,2013-10-22 06:24:00,
2013-10-22 02:25:00,40.0,30.7,29.84,NW,314,0.0,0.0,69,0.00,,---,0.00,VWS V14.01,2013-10-22 06:25:00,
2013-10-22 02:26:00,40.0,31.0,29.84,NW,314,0.0,0.0,70,0.00,,---,0.00,VWS V14.01,2013-10-22 06:26:00,
2013-10-22 02:27:00,40.0,31.0,29.84,NW,314,0.0,0.0,70,0.00,,---,0.00,VWS V14.01,2013-10-22 06:27:00,
2013-10-22 02:28:00,40.0,31.0,29.84,NW,314,0.0,0.0,70,0.00,,---,0.00,VWS V14.01,2013-10-22 06:28:00,
2013-10-22 02:29:00,39.9,30.9,29.84,NW,314,0.0,0.0,70,0.00,,---,0.00,VWS V14.01,2013-10-22 06:29:00,
2013-10-22 02:30:00,40.0,31.0,29.84,NW,314,0.0,0.0,70,0.00,,---,0.00,VWS V14.01,2013-10-22 06:30:00,
2013-10-22 02:31:00,39.9,30.9,29.84,NW,314,0.0,0.0,70,0.00,,---,0.00,VWS V14.01,2013-10-22 06:31:00,
2013-10-22 02:32:00,39.9,31.3,29.84,NW,314,0.0,0.0,71,0.00,,---,0.00,VWS V14.01,2013-10-22 06:32:00,
2013-10-22 02:33:00,39.9,30.9,29.84,NW,314,0.0,0.0,70,0.00,,---,0.00,VWS V14.01,2013-10-22 06:33:00,
2013-10-22 02:34:00,39.9,31.3,29.84,NW,314,0.0,0.0,71,0.00,,---,0.00,VWS V14.01,2013-10-22 06:34:00,
2013-10-22 02:35:00,39.9,31.3,29.84,NW,314,0.0,0.0,71,0.00,,---,0.00,VWS V14.01,2013-10-22 06:35:00,
2013-10-22 02:36:00,39.8,31.2,29.84,NW,314,0.0,0.0,71,0.00,,---,0.00,VWS V14.01,2013-10-22 06:36:00,
2013-10-22 02:37:00,39.8,31.5,29.84,NW,314,0.0,0.0,72,0.00,,---,0.00,VWS V14.01,2013-10-22 06:37:00,
2013-10-22 02:38:00,39.8,31.5,29.84,NW,314,0.0,0.0,72,0.00,,---,0.00,VWS V14.01,2013-10-22 06:38:00,
2013-10-22 02:39:00,39.8,31.5,29.84,NW,314,0.0,0.0,72,0.00,,---,0.00,VWS V14.01,2013-10-22 06:39:00,
2013-10-22 02:40:00,39.8,31.5,29.84,NW,314,0.0,0.0,72,0.00,,---,0.00,VWS V14.01,2013-10-22 06:40:00,
2013-10-22 02:41:00,39.8,31.5,29.84,NW,314,0.0,0.0,72,0.00,,---,0.00,VWS V14.01,2013-10-22 06:41:00,
2013-10-22 02:42:00,39.8,31.5,29.84,NW,314,0.0,0.0,72,0.00,,---,0.00,VWS V14.01,2013-10-22 06:42:00,
2013-10-22 02:43:00,39.7,31.4,29.84,NW,314,0.0,0.0,72,0.00,,---,0.00,VWS V14.01,2013-10-22 06:43:00,
2013-10-22 02:44:00,39.7,31.4,29.84,NW,314,0.0,0.0,72,0.00,,---,0.00,VWS V14.01,2013-10-22 06:44:00,
2013-10-22 02:45:00,39.7,31.4,29.85,NW,314,0.0,0.0,72,0.00,,---,0.00,VWS V14.01,2013-10-22 06:45:00,
2013-10-22 02:46:00,39.7,31.4,29.85,NW,314,0.0,0.0,72,0.00,,---,0.00,VWS V14.01,2013-10-22 06:46:00,
2013-10-22 02:47:00,39.7,31.4,29.85,NW,314,0.0,0.0,72,0.00,,---,0.00,VWS V14.01,2013-10-22 06:47:00,
2013-10-22 02:48:00,39.7,31.4,29.85,NW,314,0.0,0.0,72,0.00,,---,0.00,VWS V14.01,2013-10-22 06:48:00,
2013-10-22 02:49:00,39.6,31.3,29.85,NW,314,0.0,0.0,72,0.00,,---,0.00,VWS V14.01,2013-10-22 06:49:00,
2013-10-22 02:50:00,39.7,31.4,29.85,NW,314,0.0,0.0,72,0.00,,---,0.00,VWS V14.01,2013-10-22 06:50:00,
2013-10-22 02:51:00,39.6,31.7,29.85,NW,314,0.0,0.0,73,0.00,,---,0.00,VWS V14.01,2013-10-22 06:51:00,
2013-10-22 02:52:00,39.6,31.7,29.85,NW,314,0.0,0.0,73,0.00,,---,0.00,VWS V14.01,2013-10-22 06:52:00,
2013-10-22 02:53:00,39.6,31.3,29.85,NW,314,0.0,0.0,72,0.00,,---,0.00,VWS V14.01,2013-10-22 06:53:00,
2013-10-22 02:54:00,39.6,31.3,29.85,NW,314,0.0,0.0,72,0.00,,---,0.00,VWS V14.01,2013-10-22 06:54:00,
2013-10-22 02:55:00,39.5,31.2,29.85,NW,314,0.0,0.0,72,0.00,,---,0.00,VWS V14.01,2013-10-22 06:55:00,
2013-10-22 02:56:00,39.5,31.2,29.85,NW,314,0.0,0.0,72,0.00,,---,0.00,VWS V14.01,2013-10-22 06:56:00,
2013-10-22 02:57:00,39.5,31.2,29.85,NW,314,0.0,0.0,72,0.00,,---,0.00,VWS V14.01,2013-10-22 06:57:00,
2013-10-22 02:58:00,39.5,31.2,29.85,NW,314,0.0,0.0,72,0.00,,---,0.00,VWS V14.01,2013-10-22 06:58:00,
2013-10-22 02:59:00,39.5,31.2,29.85,NW,314,0.0,0.0,72,0.00,,---,0.00,VWS V14.01,2013-10-22 06:59:00,
2013-10-22 03:00:00,39.5,31.2,29.85,NW,314,0.0,0.0,72,0.00,,---,0.00,VWS V14.01,2013-10-22 07:00:00,
2013-10-22 03:01:00,39.5,31.2,29.85,NW,314,0.0,0.0,72,0.00,,---,0.00,VWS V14.01,2013-10-22 07:01:00,
2013-10-22 03:02:00,39.4,31.1,29.85,NW,314,0.0,0.0,72,0.00,,---,0.00,VWS V14.01,2013-10-22 07:02:00,
2013-10-22 03:03:00,39.4,31.1,29.85,NW,314,0.0,0.0,72,0.00,,---,0.00,VWS V14.01,2013-10-22 07:03:00,
2013-10-22 03:04:00,39.4,31.1,29.85,NW,314,0.0,0.0,72,0.00,,---,0.00,VWS V14.01,2013-10-22 07:04:00,
2013-10-22 03:05:00,39.4,31.5,29.85,NW,314,0.0,0.0,73,0.00,,---,0.00,VWS V14.01,2013-10-22 07:05:00,
2013-10-22 03:06:00,39.3,31.4,29.85,NW,314,0.0,0.0,73,0.00,,---,0.00,VWS V14.01,2013-10-22 07:06:00,
2013-10-22 03:07:00,39.3,31.4,29.85,NW,314,0.0,0.0,73,0.00,,---,0.00,VWS V14.01,2013-10-22 07:07:00,
2013-10-22 03:08:00,39.3,31.4,29.85,NW,314,0.0,0.0,73,0.00,,---,0.00,VWS V14.01,2013-10-22 07:08:00,
2013-10-22 03:09:00,39.3,31.4,29.85,NW,314,0.0,0.0,73,0.00,,---,0.00,VWS V14.01,2013-10-22 07:09:00,
2013-10-22 03:10:00,39.3,31.4,29.85,NW,314,0.0,0.0,73,0.00,,---,0.00,VWS V14.01,2013-10-22 07:10:00,
2013-10-22 03:11:00,39.2,31.3,29.85,NW,314,0.0,0.0,73,0.00,,---,0.00,VWS V14.01,2013-10-22 07:11:00,
2013-10-22 03:12:00,39.2,31.3,29.85,NW,314,0.0,0.0,73,0.00,,---,0.00,VWS V14.01,2013-10-22 07:12:00,
2013-10-22 03:13:00,39.2,31.6,29.85,NW,314,0.0,0.0,74,0.00,,---,0.00,VWS V14.01,2013-10-22 07:13:00,
2013-10-22 03:14:00,39.2,31.6,29.85,NW,314,0.0,0.0,74,0.00,,---,0.00,VWS V14.01,2013-10-22 07:14:00,
2013-10-22 03:15:00,39.2,31.6,29.85,NW,314,0.0,0.0,74,0.00,,---,0.00,VWS V14.01,2013-10-22 07:15:00,
2013-10-22 03:16:00,39.1,31.5,29.85,NW,314,0.0,0.0,74,0.00,,---,0.00,VWS V14.01,2013-10-22 07:16:00,
2013-10-22 03:17:00,39.1,31.5,29.85,NW,314,0.0,0.0,74,0.00,,---,0.00,VWS V14.01,2013-10-22 07:17:00,
2013-10-22 03:18:00,39.1,31.5,29.85,NW,314,0.0,0.0,74,0.00,,---,0.00,VWS V14.01,2013-10-22 07:18:00,
2013-10-22 03:19:00,39.1,31.5,29.85,NW,314,0.0,0.0,74,0.00,,---,0.00,VWS V14.01,2013-10-22 07:19:00,
2013-10-22 03:20:00,39.1,31.5,29.85,NW,314,0.0,0.0,74,0.00,,---,0.00,VWS V14.01,2013-10-22 07:20:00,
2013-10-22 03:21:00,39.0,31.4,29.85,NW,314,0.0,0.0,74,0.00,,---,0.00,VWS V14.01,2013-10-22 07:21:00,
2013-10-22 03:22:00,39.0,31.8,29.85,NW,314,0.0,0.0,75,0.00,,---,0.00,VWS V14.01,2013-10-22 07:22:00,
2013-10-22 03:23:00,39.0,31.8,29.85,NW,314,0.0,0.0,75,0.00,,---,0.00,VWS V14.01,2013-10-22 07:23:00,
2013-10-22 03:24:00,39.0,31.8,29.85,NW,314,0.0,0.0,75,0.00,,---,0.00,VWS V14.01,2013-10-22 07:24:00,
2013-10-22 03:25:00,39.0,31.8,29.85,NW,314,0.0,0.0,75,0.00,,---,0.00,VWS V14.01,2013-10-22 07:25:00,
2013-10-22 03:26:00,38.9,31.7,29.85,NW,314,0.0,0.0,75,0.00,,---,0.00,VWS V14.01,2013-10-22 07:26:00,
2013-10-22 03:27:00,38.9,31.7,29.85,NW,314,0.0,0.0,75,0.00,,---,0.00,VWS V14.01,2013-10-22 07:27:00,
2013-10-22 03:28:00,38.9,31.7,29.85,NW,314,0.0,0.0,75,0.00,,---,0.00,VWS V14.01,2013-10-22 07:28:00,
2013-10-22 03:29:00,38.9,31.7,29.85,NW,314,0.0,0.0,75,0.00,,---,0.00,VWS V14.01,2013-10-22 07:29:00,
2013-10-22 03:30:00,38.9,31.7,29.85,NW,314,0.0,0.0,75,0.00,,---,0.00,VWS V14.01,2013-10-22 07:30:00,
2013-10-22 03:31:00,38.9,31.7,29.85,NW,314,0.0,0.0,75,0.00,,---,0.00,VWS V14.01,2013-10-22 07:31:00,
2013-10-22 03:32:00,38.8,31.6,29.85,NW,314,0.0,0.0,75,0.00,,---,0.00,VWS V14.01,2013-10-22 07:32:00,
2013-10-22 03:33:00,38.8,31.6,29.85,NW,314,0.0,0.0,75,0.00,,---,0.00,VWS V14.01,2013-10-22 07:33:00,
2013-10-22 03:34:00,38.8,31.6,29.85,NW,314,0.0,0.0,75,0.00,,---,0.00,VWS V14.01,2013-10-22 07:34:00,
2013-10-22 03:35:00,38.8,31.6,29.85,NW,314,0.0,0.0,75,0.00,,---,0.00,VWS V14.01,2013-10-22 07:35:00,
2013-10-22 03:36:00,38.7,31.5,29.85,NW,314,0.0,0.0,75,0.00,,---,0.00,VWS V14.01,2013-10-22 07:36:00,
2013-10-22 03:37:00,38.7,31.5,29.85,NW,314,0.0,0.0,75,0.00,,---,0.00,VWS V14.01,2013-10-22 07:37:00,
2013-10-22 03:38:00,38.6,31.4,29.85,NW,314,0.0,0.0,75,0.00,,---,0.00,VWS V14.01,2013-10-22 07:38:00,
2013-10-22 03:39:00,38.5,31.3,29.85,NW,314,0.0,0.0,75,0.00,,---,0.00,VWS V14.01,2013-10-22 07:39:00,
2013-10-22 03:40:00,38.5,31.3,29.85,NW,314,0.0,0.0,75,0.00,,---,0.00,VWS V14.01,2013-10-22 07:40:00,
2013-10-22 03:41:00,38.5,31.3,29.85,NW,314,0.0,0.0,75,0.00,,---,0.00,VWS V14.01,2013-10-22 07:41:00,
2013-10-22 03:42:00,38.4,31.2,29.85,NW,314,0.0,0.0,75,0.00,,---,0.00,VWS V14.01,2013-10-22 07:42:00,
2013-10-22 03:43:00,38.4,31.2,29.85,NW,314,0.0,0.0,75,0.00,,---,0.00,VWS V14.01,2013-10-22 07:43:00,
2013-10-22 03:44:00,38.4,31.2,29.85,NW,314,0.0,0.0,75,0.00,,---,0.00,VWS V14.01,2013-10-22 07:44:00,
2013-10-22 03:45:00,38.3,31.1,29.85,NW,314,0.0,0.0,75,0.00,,---,0.00,VWS V14.01,2013-10-22 07:45:00,
2013-10-22 03:46:00,38.3,31.1,29.85,NW,314,0.0,0.0,75,0.00,,---,0.00,VWS V14.01,2013-10-22 07:46:00,
2013-10-22 03:47:00,38.3,31.1,29.85,NW,314,0.0,0.0,75,0.00,,---,0.00,VWS V14.01,2013-10-22 07:47:00,
2013-10-22 03:48:00,38.3,31.1,29.85,NW,314,0.0,0.0,75,0.00,,---,0.00,VWS V14.01,2013-10-22 07:48:00,
2013-10-22 03:49:00,38.2,31.0,29.85,NW,314,0.0,0.0,75,0.00,,---,0.00,VWS V14.01,2013-10-22 07:49:00,
2013-10-22 03:50:00,38.1,30.9,29.85,NW,314,0.0,0.0,75,0.00,,---,0.00,VWS V14.01,2013-10-22 07:50:00,
2013-10-22 03:51:00,38.1,30.9,29.85,NW,314,0.0,0.0,75,0.00,,---,0.00,VWS V14.01,2013-10-22 07:51:00,
2013-10-22 03:52:00,38.0,30.8,29.85,NW,314,0.0,0.0,75,0.00,,---,0.00,VWS V14.01,2013-10-22 07:52:00,
2013-10-22 03:53:00,38.0,30.8,29.85,NW,314,0.0,0.0,75,0.00,,---,0.00,VWS V14.01,2013-10-22 07:53:00,
2013-10-22 03:54:00,37.9,30.7,29.85,NW,314,0.0,0.0,75,0.00,,---,0.00,VWS V14.01,2013-10-22 07:54:00,
2013-10-22 03:55:00,37.9,30.7,29.85,NW,314,0.0,0.0,75,0.00,,---,0.00,VWS V14.01,2013-10-22 07:55:00,
2013-10-22 03:56:00,37.9,30.7,29.85,NW,314,0.0,0.0,75,0.00,,---,0.00,VWS V14.01,2013-10-22 07:56:00,
2013-10-22 03:57:00,37.8,30.6,29.85,NW,314,0.0,0.0,75,0.00,,---,0.00,VWS V14.01,2013-10-22 07:57:00,
2013-10-22 03:58:00,37.8,30.6,29.85,NW,314,0.0,0.0,75,0.00,,---,0.00,VWS V14.01,2013-10-22 07:58:00,
2013-10-22 03:59:00,37.7,30.5,29.85,NW,314,0.0,0.0,75,0.00,,---,0.00,VWS V14.01,2013-10-22 07:59:00,
2013-10-22 04:00:00,37.7,30.5,29.85,NW,314,0.0,0.0,75,0.00,,---,0.00,VWS V14.01,2013-10-22 08:00:00,
2013-10-22 04:01:00,37.6,30.4,29.85,NW,314,0.0,0.0,75,0.00,,---,0.00,VWS V14.01,2013-10-22 08:01:00,
2013-10-22 04:02:00,37.6,30.4,29.85,NW,314,0.0,0.0,75,0.00,,---,0.00,VWS V14.01,2013-10-22 08:02:00,
2013-10-22 04:03:00,37.5,30.3,29.85,NW,314,0.0,0.0,75,0.00,,---,0.00,VWS V14.01,2013-10-22 08:03:00,
2013-10-22 04:04:00,37.5,30.3,29.85,NW,314,0.0,0.0,75,0.00,,---,0.00,VWS V14.01,2013-10-22 08:04:00,
2013-10-22 04:05:00,37.4,30.2,29.85,NW,314,0.0,0.0,75,0.00,,---,0.00,VWS V14.01,2013-10-22 08:05:00,
2013-10-22 04:06:00,37.3,30.1,29.85,NW,314,0.0,0.0,75,0.00,,---,0.00,VWS V14.01,2013-10-22 08:06:00,
2013-10-22 04:07:00,37.3,30.1,29.85,NW,314,0.0,0.0,75,0.00,,---,0.00,VWS V14.01,2013-10-22 08:07:00,
2013-10-22 04:08:00,37.2,30.0,29.85,NW,314,0.0,0.0,75,0.00,,---,0.00,VWS V14.01,2013-10-22 08:08:00,
2013-10-22 04:09:00,37.1,29.9,29.85,NW,314,0.0,0.0,75,0.00,,---,0.00,VWS V14.01,2013-10-22 08:09:00,
2013-10-22 04:10:00,37.1,30.2,29.85,NW,314,0.0,0.0,76,0.00,,---,0.00,VWS V14.01,2013-10-22 08:10:00,
2013-10-22 04:11:00,37.0,30.1,29.85,NW,314,0.0,0.0,76,0.00,,---,0.00,VWS V14.01,2013-10-22 08:11:00,
2013-10-22 04:12:00,37.0,30.1,29.85,NW,314,0.0,0.0,76,0.00,,---,0.00,VWS V14.01,2013-10-22 08:12:00,
2013-10-22 04:13:00,36.9,30.4,29.85,NW,314,0.0,0.0,77,0.00,,---,0.00,VWS V14.01,2013-10-22 08:13:00,
2013-10-22 04:14:00,36.8,30.3,29.85,NW,314,0.0,0.0,77,0.00,,---,0.00,VWS V14.01,2013-10-22 08:14:00,
2013-10-22 04:15:00,36.8,30.3,29.85,NW,314,0.0,0.0,77,0.00,,---,0.00,VWS V14.01,2013-10-22 08:15:00,
2013-10-22 04:16:00,36.7,30.2,29.85,NW,314,0.0,0.0,77,0.00,,---,0.00,VWS V14.01,2013-10-22 08:16:00,
2013-10-22 04:17:00,36.7,30.2,29.85,NW,314,0.0,0.0,77,0.00,,---,0.00,VWS V14.01,2013-10-22 08:17:00,
2013-10-22 04:18:00,36.6,30.1,29.85,NW,314,0.0,0.0,77,0.00,,---,0.00,VWS V14.01,2013-10-22 08:18:00,
2013-10-22 04:19:00,36.5,30.0,29.85,NW,314,0.0,0.0,77,0.00,,---,0.00,VWS V14.01,2013-10-22 08:19:00,
2013-10-22 04:20:00,36.5,30.0,29.85,NW,314,0.0,0.0,77,0.00,,---,0.00,VWS V14.01,2013-10-22 08:20:00,
2013-10-22 04:21:00,36.4,29.9,29.85,NW,314,0.0,0.0,77,0.00,,---,0.00,VWS V14.01,2013-10-22 08:21:00,
2013-10-22 04:22:00,36.4,29.9,29.85,NW,314,0.0,0.0,77,0.00,,---,0.00,VWS V14.01,2013-10-22 08:22:00,
2013-10-22 04:23:00,36.3,29.8,29.85,NW,314,0.0,0.0,77,0.00,,---,0.00,VWS V14.01,2013-10-22 08:23:00,
2013-10-22 04:24:00,36.3,29.8,29.85,NW,314,0.0,0.0,77,0.00,,---,0.00,VWS V14.01,2013-10-22 08:24:00,
2013-10-22 04:25:00,36.2,29.7,29.85,NW,314,0.0,0.0,77,0.00,,---,0.00,VWS V14.01,2013-10-22 08:25:00,
2013-10-22 04:26:00,36.2,29.7,29.85,NW,314,0.0,0.0,77,0.00,,---,0.00,VWS V14.01,2013-10-22 08:26:00,
2013-10-22 04:27:00,36.1,29.6,29.85,NW,314,0.0,0.0,77,0.00,,---,0.00,VWS V14.01,2013-10-22 08:27:00,
2013-10-22 04:28:00,36.1,29.9,29.85,NW,314,0.0,0.0,78,0.00,,---,0.00,VWS V14.01,2013-10-22 08:28:00,
2013-10-22 04:29:00,36.1,29.9,29.85,NW,314,0.0,0.0,78,0.00,,---,0.00,VWS V14.01,2013-10-22 08:29:00,
2013-10-22 04:30:00,36.0,29.5,29.85,NW,314,0.0,0.0,77,0.00,,---,0.00,VWS V14.01,2013-10-22 08:30:00,
2013-10-22 04:31:00,35.9,29.4,29.85,NW,314,0.0,0.0,77,0.00,,---,0.00,VWS V14.01,2013-10-22 08:31:00,
2013-10-22 04:32:00,35.9,29.4,29.85,NW,314,0.0,0.0,77,0.00,,---,0.00,VWS V14.01,2013-10-22 08:32:00,
2013-10-22 04:33:00,35.8,29.6,29.85,NW,314,0.0,0.0,78,0.00,,---,0.00,VWS V14.01,2013-10-22 08:33:00,
2013-10-22 04:34:00,35.8,29.3,29.85,NW,314,0.0,0.0,77,0.00,,---,0.00,VWS V14.01,2013-10-22 08:34:00,
2013-10-22 04:35:00,35.7,29.5,29.85,NW,314,0.0,0.0,78,0.00,,---,0.00,VWS V14.01,2013-10-22 08:35:00,
2013-10-22 04:36:00,35.7,29.5,29.85,NW,314,0.0,0.0,78,0.00,,---,0.00,VWS V14.01,2013-10-22 08:36:00,
2013-10-22 04:37:00,35.6,29.4,29.85,NW,314,0.0,0.0,78,0.00,,---,0.00,VWS V14.01,2013-10-22 08:37:00,
2013-10-22 04:38:00,35.6,29.4,29.85,NW,314,0.0,0.0,78,0.00,,---,0.00,VWS V14.01,2013-10-22 08:38:00,
2013-10-22 04:39:00,35.5,29.3,29.85,NW,314,0.0,0.0,78,0.00,,---,0.00,VWS V14.01,2013-10-22 08:39:00,
2013-10-22 04:40:00,35.5,29.3,29.85,NW,314,0.0,0.0,78,0.00,,---,0.00,VWS V14.01,2013-10-22 08:40:00,
2013-10-22 04:41:00,35.4,29.2,29.85,NW,314,0.0,0.0,78,0.00,,---,0.00,VWS V14.01,2013-10-22 08:41:00,
2013-10-22 04:42:00,35.4,29.2,29.85,NW,314,0.0,0.0,78,0.00,,---,0.00,VWS V14.01,2013-10-22 08:42:00,
2013-10-22 04:43:00,35.3,29.1,29.85,NW,314,0.0,0.0,78,0.00,,---,0.00,VWS V14.01,2013-10-22 08:43:00,
2013-10-22 04:44:00,35.3,29.5,29.85,NW,314,0.0,1.0,79,0.00,,---,0.00,VWS V14.01,2013-10-22 08:44:00,
2013-10-22 04:45:00,35.3,29.5,29.86,NW,314,0.0,1.0,79,0.00,,---,0.00,VWS V14.01,2013-10-22 08:45:00,
2013-10-22 04:46:00,35.2,29.4,29.86,NW,314,0.0,0.0,79,0.00,,---,0.00,VWS V14.01,2013-10-22 08:46:00,
2013-10-22 04:47:00,35.2,29.4,29.86,NW,314,0.0,0.0,79,0.00,,---,0.00,VWS V14.01,2013-10-22 08:47:00,
2013-10-22 04:48:00,35.2,29.4,29.86,NW,314,0.0,0.0,79,0.00,,---,0.00,VWS V14.01,2013-10-22 08:48:00,
2013-10-22 04:49:00,35.1,29.3,29.86,NW,314,0.0,0.0,79,0.00,,---,0.00,VWS V14.01,2013-10-22 08:49:00,
2013-10-22 04:50:00,35.1,29.3,29.86,NW,314,0.0,0.0,79,0.00,,---,0.00,VWS V14.01,2013-10-22 08:50:00,
2013-10-22 04:51:00,35.0,29.2,29.86,NW,314,0.0,0.0,79,0.00,,---,0.00,VWS V14.01,2013-10-22 08:51:00,
2013-10-22 04:52:00,35.0,29.2,29.86,NW,314,0.0,0.0,79,0.00,,---,0.00,VWS V14.01,2013-10-22 08:52:00,
2013-10-22 04:53:00,35.0,29.5,29.86,NW,314,0.0,0.0,80,0.00,,---,0.00,VWS V14.01,2013-10-22 08:53:00,
2013-10-22 04:54:00,34.9,29.4,29.86,NW,314,0.0,0.0,80,0.00,,---,0.00,VWS V14.01,2013-10-22 08:54:00,
2013-10-22 04:55:00,34.9,29.4,29.86,NW,314,0.0,0.0,80,0.00,,---,0.00,VWS V14.01,2013-10-22 08:55:00,
2013-10-22 04:56:00,34.8,29.3,29.86,NW,314,0.0,0.0,80,0.00,,---,0.00,VWS V14.01,2013-10-22 08:56:00,
2013-10-22 04:57:00,34.8,29.3,29.86,NW,314,0.0,0.0,80,0.00,,---,0.00,VWS V14.01,2013-10-22 08:57:00,
2013-10-22 04:58:00,34.7,29.2,29.86,NW,314,0.0,0.0,80,0.00,,---,0.00,VWS V14.01,2013-10-22 08:58:00,
2013-10-22 04:59:00,34.7,29.2,29.86,NW,314,0.0,0.0,80,0.00,,---,0.00,VWS V14.01,2013-10-22 08:59:00,
2013-10-22 05:00:00,34.7,29.2,29.86,NW,314,0.0,0.0,80,0.00,,---,0.00,VWS V14.01,2013-10-22 09:00:00,
2013-10-22 05:01:00,34.6,29.1,29.86,NW,314,0.0,0.0,80,0.00,,---,0.00,VWS V14.01,2013-10-22 09:01:00,
2013-10-22 05:02:00,34.6,29.1,29.86,NW,314,0.0,0.0,80,0.00,,---,0.00,VWS V14.01,2013-10-22 09:02:00,
2013-10-22 05:03:00,34.6,29.1,29.86,NW,314,0.0,0.0,80,0.00,,---,0.00,VWS V14.01,2013-10-22 09:03:00,
2013-10-22 05:04:00,34.5,29.0,29.86,NW,314,0.0,0.0,80,0.00,,---,0.00,VWS V14.01,2013-10-22 09:04:00,
2013-10-22 05:05:00,34.5,29.0,29.86,NW,314,0.0,0.0,80,0.00,,---,0.00,VWS V14.01,2013-10-22 09:05:00,
2013-10-22 05:06:00,34.4,29.2,29.86,NW,314,0.0,0.0,81,0.00,,---,0.00,VWS V14.01,2013-10-22 09:06:00,
2013-10-22 05:07:00,34.4,29.2,29.86,NW,314,0.0,0.0,81,0.00,,---,0.00,VWS V14.01,2013-10-22 09:07:00,
2013-10-22 05:08:00,34.4,29.2,29.86,NW,314,0.0,0.0,81,0.00,,---,0.00,VWS V14.01,2013-10-22 09:08:00,
2013-10-22 05:09:00,34.3,29.1,29.86,NW,314,0.0,0.0,81,0.00,,---,0.00,VWS V14.01,2013-10-22 09:09:00,
2013-10-22 05:10:00,34.3,29.1,29.86,NW,314,0.0,0.0,81,0.00,,---,0.00,VWS V14.01,2013-10-22 09:10:00,
2013-10-22 05:11:00,34.3,29.1,29.86,NW,314,0.0,0.0,81,0.00,,---,0.00,VWS V14.01,2013-10-22 09:11:00,
2013-10-22 05:12:00,34.2,29.0,29.86,NW,314,0.0,0.0,81,0.00,,---,0.00,VWS V14.01,2013-10-22 09:12:00,
2013-10-22 05:13:00,34.2,29.0,29.86,NW,314,0.0,0.0,81,0.00,,---,0.00,VWS V14.01,2013-10-22 09:13:00,
2013-10-22 05:14:00,34.2,29.0,29.86,NW,314,0.0,0.0,81,0.00,,---,0.00,VWS V14.01,2013-10-22 09:14:00,
2013-10-22 05:15:00,34.2,29.0,29.86,NW,314,0.0,0.0,81,0.00,,---,0.00,VWS V14.01,2013-10-22 09:15:00,
2013-10-22 05:16:00,34.1,28.9,29.86,NW,314,0.0,0.0,81,0.00,,---,0.00,VWS V14.01,2013-10-22 09:16:00,
2013-10-22 05:17:00,34.1,28.9,29.86,NW,314,0.0,0.0,81,0.00,,---,0.00,VWS V14.01,2013-10-22 09:17:00,
2013-10-22 05:18:00,34.1,28.9,29.86,NW,314,0.0,0.0,81,0.00,,---,0.00,VWS V14.01,2013-10-22 09:18:00,
2013-10-22 05:19:00,34.1,28.9,29.86,NW,314,0.0,0.0,81,0.00,,---,0.00,VWS V14.01,2013-10-22 09:19:00,
2013-10-22 05:20:00,34.0,28.8,29.86,NW,314,0.0,0.0,81,0.00,,---,0.00,VWS V14.01,2013-10-22 09:20:00,
2013-10-22 05:21:00,34.0,28.8,29.86,NW,314,0.0,0.0,81,0.00,,---,0.00,VWS V14.01,2013-10-22 09:21:00,
2013-10-22 05:22:00,34.0,28.8,29.86,NW,314,0.0,0.0,81,0.00,,---,0.00,VWS V14.01,2013-10-22 09:22:00,
2013-10-22 05:23:00,34.0,28.8,29.86,NW,314,0.0,0.0,81,0.00,,---,0.00,VWS V14.01,2013-10-22 09:23:00,
2013-10-22 05:24:00,33.9,28.7,29.86,NW,314,0.0,1.0,81,0.00,,---,0.00,VWS V14.01,2013-10-22 09:24:00,
2013-10-22 05:25:00,33.9,28.7,29.86,NW,314,0.0,1.0,81,0.00,,---,0.00,VWS V14.01,2013-10-22 09:25:00,
2013-10-22 05:26:00,33.9,28.7,29.86,NW,314,0.0,0.0,81,0.00,,---,0.00,VWS V14.01,2013-10-22 09:26:00,
2013-10-22 05:27:00,33.9,29.0,29.86,NW,314,0.0,0.0,82,0.00,,---,0.00,VWS V14.01,2013-10-22 09:27:00,
2013-10-22 05:28:00,33.9,29.0,29.86,NW,314,0.0,0.0,82,0.00,,---,0.00,VWS V14.01,2013-10-22 09:28:00,
2013-10-22 05:29:00,33.9,29.0,29.86,NW,314,0.0,0.0,82,0.00,,---,0.00,VWS V14.01,2013-10-22 09:29:00,
2013-10-22 05:30:00,33.8,28.9,29.86,NW,314,0.0,0.0,82,0.00,,---,0.00,VWS V14.01,2013-10-22 09:30:00,
2013-10-22 05:31:00,33.8,28.9,29.86,NW,314,0.0,0.0,82,0.00,,---,0.00,VWS V14.01,2013-10-22 09:31:00,
2013-10-22 05:32:00,33.8,28.9,29.86,NW,314,0.0,0.0,82,0.00,,---,0.00,VWS V14.01,2013-10-22 09:32:00,
2013-10-22 05:33:00,33.7,28.8,29.86,NW,314,0.0,0.0,82,0.00,,---,0.00,VWS V14.01,2013-10-22 09:33:00,
2013-10-22 05:34:00,33.7,28.8,29.86,NW,314,0.0,0.0,82,0.00,,---,0.00,VWS V14.01,2013-10-22 09:34:00,
2013-10-22 05:35:00,33.7,28.8,29.86,NW,314,0.0,0.0,82,0.00,,---,0.00,VWS V14.01,2013-10-22 09:35:00,
2013-10-22 05:36:00,33.7,28.8,29.86,NW,314,0.0,0.0,82,0.00,,---,0.00,VWS V14.01,2013-10-22 09:36:00,
2013-10-22 05:37:00,33.7,28.8,29.86,NW,314,0.0,0.0,82,0.00,,---,0.00,VWS V14.01,2013-10-22 09:37:00,
2013-10-22 05:38:00,33.7,28.8,29.86,NW,314,0.0,0.0,82,0.00,,---,0.00,VWS V14.01,2013-10-22 09:38:00,
2013-10-22 05:39:00,33.7,28.8,29.86,NW,314,0.0,0.0,82,0.00,,---,0.00,VWS V14.01,2013-10-22 09:39:00,
2013-10-22 05:40:00,33.7,28.8,29.86,NW,314,0.0,0.0,82,0.00,,---,0.00,VWS V14.01,2013-10-22 09:40:00,
2013-10-22 05:41:00,33.6,29.0,29.86,NW,314,0.0,0.0,83,0.00,,---,0.00,VWS V14.01,2013-10-22 09:41:00,
2013-10-22 05:42:00,33.6,29.0,29.86,NW,314,0.0,0.0,83,0.00,,---,0.00,VWS V14.01,2013-10-22 09:42:00,
2013-10-22 05:43:00,33.6,29.0,29.86,NW,314,0.0,0.0,83,0.00,,---,0.00,VWS V14.01,2013-10-22 09:43:00,
2013-10-22 05:44:00,33.6,29.0,29.86,NW,314,0.0,0.0,83,0.00,,---,0.00,VWS V14.01,2013-10-22 09:44:00,
2013-10-22 05:45:00,33.6,29.0,29.86,NW,314,0.0,0.0,83,0.00,,---,0.00,VWS V14.01,2013-10-22 09:45:00,
2013-10-22 05:46:00,33.6,29.0,29.86,NW,314,0.0,0.0,83,0.00,,---,0.00,VWS V14.01,2013-10-22 09:46:00,
2013-10-22 05:47:00,33.5,28.9,29.86,NW,314,0.0,0.0,83,0.00,,---,0.00,VWS V14.01,2013-10-22 09:47:00,
2013-10-22 05:48:00,33.5,28.9,29.86,NW,314,0.0,0.0,83,0.00,,---,0.00,VWS V14.01,2013-10-22 09:48:00,
2013-10-22 05:49:00,33.5,28.9,29.86,NW,314,0.0,0.0,83,0.00,,---,0.00,VWS V14.01,2013-10-22 09:49:00,
2013-10-22 05:50:00,33.5,28.9,29.86,NW,314,0.0,0.0,83,0.00,,---,0.00,VWS V14.01,2013-10-22 09:50:00,
2013-10-22 05:51:00,33.5,28.9,29.86,NW,314,0.0,0.0,83,0.00,,---,0.00,VWS V14.01,2013-10-22 09:51:00,
2013-10-22 05:52:00,33.5,28.9,29.86,NW,314,0.0,0.0,83,0.00,,---,0.00,VWS V14.01,2013-10-22 09:52:00,
2013-10-22 05:53:00,33.5,28.9,29.86,NW,314,0.0,0.0,83,0.00,,---,0.00,VWS V14.01,2013-10-22 09:53:00,
2013-10-22 05:54:00,33.5,28.9,29.86,NW,314,0.0,0.0,83,0.00,,---,0.00,VWS V14.01,2013-10-22 09:54:00,
2013-10-22 05:55:00,33.5,28.9,29.86,NW,314,0.0,0.0,83,0.00,,---,0.00,VWS V14.01,2013-10-22 09:55:00,
2013-10-22 05:56:00,33.4,28.8,29.86,NW,314,0.0,0.0,83,0.00,,---,0.00,VWS V14.01,2013-10-22 09:56:00,
2013-10-22 05:57:00,33.4,28.8,29.86,NW,314,0.0,0.0,83,0.00,,---,0.00,VWS V14.01,2013-10-22 09:57:00,
2013-10-22 05:58:00,33.4,28.8,29.86,NW,314,0.0,0.0,83,0.00,,---,0.00,VWS V14.01,2013-10-22 09:58:00,
2013-10-22 05:59:00,33.4,28.8,29.86,NW,314,0.0,0.0,83,0.00,,---,0.00,VWS V14.01,2013-10-22 09:59:00,
2013-10-22 06:00:00,33.4,28.8,29.87,NW,314,0.0,0.0,83,0.00,,---,0.00,VWS V14.01,2013-10-22 10:00:00,
2013-10-22 06:01:00,33.4,28.8,29.87,NW,314,0.0,0.0,83,0.00,,---,0.00,VWS V14.01,2013-10-22 10:01:00,
2013-10-22 06:02:00,33.4,28.8,29.87,NW,314,0.0,0.0,83,0.00,,---,0.00,VWS V14.01,2013-10-22 10:02:00,
2013-10-22 06:03:00,33.4,28.8,29.87,NW,314,0.0,0.0,83,0.00,,---,0.00,VWS V14.01,2013-10-22 10:03:00,
2013-10-22 06:04:00,33.4,28.8,29.87,NW,314,0.0,0.0,83,0.00,,---,0.00,VWS V14.01,2013-10-22 10:04:00,
2013-10-22 06:05:00,33.4,28.8,29.87,NW,314,0.0,0.0,83,0.00,,---,0.00,VWS V14.01,2013-10-22 10:05:00,
2013-10-22 06:06:00,33.3,28.7,29.87,NW,314,0.0,0.0,83,0.00,,---,0.00,VWS V14.01,2013-10-22 10:06:00,
2013-10-22 06:07:00,33.3,28.7,29.87,NW,314,0.0,0.0,83,0.00,,---,0.00,VWS V14.01,2013-10-22 10:07:00,
2013-10-22 06:08:00,33.3,28.7,29.87,NW,314,0.0,0.0,83,0.00,,---,0.00,VWS V14.01,2013-10-22 10:08:00,
2013-10-22 06:09:00,33.3,28.7,29.87,NW,314,0.0,0.0,83,0.00,,---,0.00,VWS V14.01,2013-10-22 10:09:00,
2013-10-22 06:10:00,33.3,28.7,29.87,NW,314,0.0,0.0,83,0.00,,---,0.00,VWS V14.01,2013-10-22 10:10:00,
2013-10-22 06:11:00,33.3,28.7,29.87,NW,314,0.0,0.0,83,0.00,,---,0.00,VWS V14.01,2013-10-22 10:11:00,
2013-10-22 06:12:00,33.3,28.7,29.87,NW,314,0.0,0.0,83,0.00,,---,0.00,VWS V14.01,2013-10-22 10:12:00,
2013-10-22 06:13:00,33.2,28.6,29.87,NW,314,0.0,0.0,83,0.00,,---,0.00,VWS V14.01,2013-10-22 10:13:00,
2013-10-22 06:14:00,33.3,28.7,29.87,NW,314,0.0,0.0,83,0.00,,---,0.00,VWS V14.01,2013-10-22 10:14:00,
2013-10-22 06:15:00,33.2,28.6,29.87,NW,314,0.0,0.0,83,0.00,,---,0.00,VWS V14.01,2013-10-22 10:15:00,
2013-10-22 06:16:00,33.2,28.9,29.87,NW,314,0.0,0.0,84,0.00,,---,0.00,VWS V14.01,2013-10-22 10:16:00,
2013-10-22 06:17:00,33.2,28.9,29.87,NW,314,0.0,0.0,84,0.00,,---,0.00,VWS V14.01,2013-10-22 10:17:00,
2013-10-22 06:18:00,33.2,28.9,29.87,NW,314,0.0,0.0,84,0.00,,---,0.00,VWS V14.01,2013-10-22 10:18:00,
2013-10-22 06:19:00,33.2,28.9,29.87,NW,314,0.0,0.0,84,0.00,,---,0.00,VWS V14.01,2013-10-22 10:19:00,
2013-10-22 06:20:00,33.2,28.9,29.87,NW,314,0.0,0.0,84,0.00,,---,0.00,VWS V14.01,2013-10-22 10:20:00,
2013-10-22 06:21:00,33.2,28.9,29.87,NW,314,0.0,0.0,84,0.00,,---,0.00,VWS V14.01,2013-10-22 10:21:00,
2013-10-22 06:22:00,33.1,28.8,29.87,NW,314,0.0,0.0,84,0.00,,---,0.00,VWS V14.01,2013-10-22 10:22:00,
2013-10-22 06:23:00,33.2,28.9,29.87,NW,314,0.0,0.0,84,0.00,,---,0.00,VWS V14.01,2013-10-22 10:23:00,
2013-10-22 06:24:00,33.1,28.8,29.87,NW,314,0.0,0.0,84,0.00,,---,0.00,VWS V14.01,2013-10-22 10:24:00,
2013-10-22 06:25:00,33.1,28.8,29.87,NW,314,0.0,1.0,84,0.00,,---,0.00,VWS V14.01,2013-10-22 10:25:00,
2013-10-22 06:26:00,33.1,28.8,29.87,NW,314,0.0,0.0,84,0.00,,---,0.00,VWS V14.01,2013-10-22 10:26:00,
2013-10-22 06:27:00,33.1,28.8,29.87,NW,314,0.0,0.0,84,0.00,,---,0.00,VWS V14.01,2013-10-22 10:27:00,
2013-10-22 06:28:00,33.1,28.8,29.87,NW,314,0.0,0.0,84,0.00,,---,0.00,VWS V14.01,2013-10-22 10:28:00,
2013-10-22 06:29:00,33.0,28.7,29.87,NW,314,0.0,0.0,84,0.00,,---,0.00,VWS V14.01,2013-10-22 10:29:00,
2013-10-22 06:30:00,33.1,28.8,29.87,NW,314,0.0,0.0,84,0.00,,---,0.00,VWS V14.01,2013-10-22 10:30:00,
2013-10-22 06:31:00,33.0,28.7,29.87,NW,314,0.0,0.0,84,0.00,,---,0.00,VWS V14.01,2013-10-22 10:31:00,
2013-10-22 06:32:00,33.0,28.7,29.87,NW,314,0.0,0.0,84,0.00,,---,0.00,VWS V14.01,2013-10-22 10:32:00,
2013-10-22 06:33:00,33.0,28.7,29.87,NW,314,0.0,0.0,84,0.00,,---,0.00,VWS V14.01,2013-10-22 10:33:00,
2013-10-22 06:34:00,33.0,28.7,29.87,NW,314,0.0,0.0,84,0.00,,---,0.00,VWS V14.01,2013-10-22 10:34:00,
2013-10-22 06:35:00,33.0,28.7,29.87,NW,314,0.0,0.0,84,0.00,,---,0.00,VWS V14.01,2013-10-22 10:35:00,
2013-10-22 06:36:00,33.0,29.0,29.87,NW,314,0.0,0.0,85,0.00,,---,0.00,VWS V14.01,2013-10-22 10:36:00,
2013-10-22 06:37:00,33.0,29.0,29.87,NW,314,0.0,0.0,85,0.00,,---,0.00,VWS V14.01,2013-10-22 10:37:00,
2013-10-22 06:38:00,33.0,29.0,29.87,NW,314,0.0,0.0,85,0.00,,---,0.00,VWS V14.01,2013-10-22 10:38:00,
2013-10-22 06:39:00,33.0,29.0,29.87,NW,314,0.0,0.0,85,0.00,,---,0.00,VWS V14.01,2013-10-22 10:39:00,
2013-10-22 06:40:00,33.0,28.7,29.87,NW,314,0.0,0.0,84,0.00,,---,0.00,VWS V14.01,2013-10-22 10:40:00,
2013-10-22 06:41:00,33.0,29.0,29.87,NW,314,0.0,0.0,85,0.00,,---,0.00,VWS V14.01,2013-10-22 10:41:00,
2013-10-22 06:42:00,33.0,29.0,29.87,NW,314,0.0,0.0,85,0.00,,---,0.00,VWS V14.01,2013-10-22 10:42:00,
2013-10-22 06:43:00,33.0,29.0,29.87,NW,314,0.0,0.0,85,0.00,,---,0.00,VWS V14.01,2013-10-22 10:43:00,
2013-10-22 06:44:00,33.0,29.0,29.87,NW,314,0.0,0.0,85,0.00,,---,0.00,VWS V14.01,2013-10-22 10:44:00,
2013-10-22 06:45:00,33.0,29.0,29.87,NW,314,0.0,0.0,85,0.00,,---,0.00,VWS V14.01,2013-10-22 10:45:00,
2013-10-22 06:46:00,33.0,29.0,29.87,NW,314,0.0,0.0,85,0.00,,---,0.00,VWS V14.01,2013-10-22 10:46:00,
2013-10-22 06:47:00,33.0,29.0,29.87,NW,314,0.0,0.0,85,0.00,,---,0.00,VWS V14.01,2013-10-22 10:47:00,
2013-10-22 06:48:00,33.0,29.0,29.87,NW,314,0.0,0.0,85,0.00,,---,0.00,VWS V14.01,2013-10-22 10:48:00,
2013-10-22 06:49:00,33.0,29.0,29.87,NW,314,0.0,0.0,85,0.00,,---,0.00,VWS V14.01,2013-10-22 10:49:00,
2013-10-22 06:50:00,33.0,29.0,29.87,NW,314,0.0,0.0,85,0.00,,---,0.00,VWS V14.01,2013-10-22 10:50:00,
2013-10-22 06:51:00,33.0,29.0,29.87,NW,314,0.0,0.0,85,0.00,,---,0.00,VWS V14.01,2013-10-22 10:51:00,
2013-10-22 06:52:00,33.0,29.0,29.87,NW,314,0.0,0.0,85,0.00,,---,0.00,VWS V14.01,2013-10-22 10:52:00,
2013-10-22 06:53:00,33.0,29.0,29.87,NW,314,0.0,0.0,85,0.00,,---,0.00,VWS V14.01,2013-10-22 10:53:00,
2013-10-22 06:54:00,33.0,29.0,29.87,NW,314,0.0,0.0,85,0.00,,---,0.00,VWS V14.01,2013-10-22 10:54:00,
2013-10-22 06:55:00,33.0,29.0,29.87,NW,314,0.0,0.0,85,0.00,,---,0.00,VWS V14.01,2013-10-22 10:55:00,
2013-10-22 06:56:00,32.9,28.9,29.87,NW,314,0.0,0.0,85,0.00,,---,0.00,VWS V14.01,2013-10-22 10:56:00,
2013-10-22 06:57:00,32.9,28.9,29.87,NW,314,0.0,0.0,85,0.00,,---,0.00,VWS V14.01,2013-10-22 10:57:00,
2013-10-22 06:58:00,32.9,28.9,29.87,NW,314,0.0,0.0,85,0.00,,---,0.00,VWS V14.01,2013-10-22 10:58:00,
2013-10-22 06:59:00,32.9,28.9,29.87,NW,314,0.0,0.0,85,0.00,,---,0.00,VWS V14.01,2013-10-22 10:59:00,
2013-10-22 07:00:00,32.9,28.9,29.87,NW,314,0.0,0.0,85,0.00,,---,0.00,VWS V14.01,2013-10-22 11:00:00,
2013-10-22 07:01:00,32.9,28.9,29.87,NW,314,0.0,0.0,85,0.00,,---,0.00,VWS V14.01,2013-10-22 11:01:00,
2013-10-22 07:02:00,32.9,28.9,29.87,NW,314,0.0,0.0,85,0.00,,---,0.00,VWS V14.01,2013-10-22 11:02:00,
2013-10-22 07:03:00,32.9,28.9,29.87,NW,314,0.0,0.0,85,0.00,,---,0.00,VWS V14.01,2013-10-22 11:03:00,
2013-10-22 07:04:00,32.9,28.9,29.87,NW,314,0.0,0.0,85,0.00,,---,0.00,VWS V14.01,2013-10-22 11:04:00,
2013-10-22 07:05:00,32.9,28.9,29.87,NW,314,0.0,0.0,85,0.00,,---,0.00,VWS V14.01,2013-10-22 11:05:00,
2013-10-22 07:06:00,32.9,28.9,29.87,NW,314,0.0,0.0,85,0.00,,---,0.00,VWS V14.01,2013-10-22 11:06:00,
2013-10-22 07:07:00,32.9,28.9,29.87,NW,314,0.0,0.0,85,0.00,,---,0.00,VWS V14.01,2013-10-22 11:07:00,
2013-10-22 07:08:00,32.9,28.9,29.87,NW,314,0.0,0.0,85,0.00,,---,0.00,VWS V14.01,2013-10-22 11:08:00,
2013-10-22 07:09:00,32.9,28.9,29.87,NW,314,0.0,0.0,85,0.00,,---,0.00,VWS V14.01,2013-10-22 11:09:00,
2013-10-22 07:10:00,32.9,28.9,29.87,NW,314,0.0,0.0,85,0.00,,---,0.00,VWS V14.01,2013-10-22 11:10:00,
2013-10-22 07:11:00,32.9,28.9,29.87,NW,314,0.0,0.0,85,0.00,,---,0.00,VWS V14.01,2013-10-22 11:11:00,
2013-10-22 07:12:00,32.9,28.9,29.87,NW,314,0.0,0.0,85,0.00,,---,0.00,VWS V14.01,2013-10-22 11:12:00,
2013-10-22 07:13:00,32.9,28.9,29.87,NW,314,0.0,0.0,85,0.00,,---,0.00,VWS V14.01,2013-10-22 11:13:00,
2013-10-22 07:14:00,32.9,28.9,29.87,NW,314,0.0,0.0,85,0.00,,---,0.00,VWS V14.01,2013-10-22 11:14:00,
2013-10-22 07:15:00,32.9,28.9,29.87,NW,314,0.0,0.0,85,0.00,,---,0.00,VWS V14.01,2013-10-22 11:15:00,
2013-10-22 07:16:00,32.8,28.8,29.87,NW,314,0.0,0.0,85,0.00,,---,0.00,VWS V14.01,2013-10-22 11:16:00,
2013-10-22 07:17:00,32.8,28.8,29.87,NW,314,0.0,0.0,85,0.00,,---,0.00,VWS V14.01,2013-10-22 11:17:00,
2013-10-22 07:18:00,32.8,28.8,29.87,NW,314,0.0,0.0,85,0.00,,---,0.00,VWS V14.01,2013-10-22 11:18:00,
2013-10-22 07:19:00,32.8,28.8,29.87,NW,314,0.0,0.0,85,0.00,,---,0.00,VWS V14.01,2013-10-22 11:19:00,
2013-10-22 07:20:00,32.8,28.8,29.87,NW,314,0.0,0.0,85,0.00,,---,0.00,VWS V14.01,2013-10-22 11:20:00,
2013-10-22 07:21:00,32.8,28.8,29.87,NW,314,0.0,0.0,85,0.00,,---,0.00,VWS V14.01,2013-10-22 11:21:00,
2013-10-22 07:22:00,32.8,28.8,29.87,NW,314,0.0,0.0,85,0.00,,---,0.00,VWS V14.01,2013-10-22 11:22:00,
2013-10-22 07:23:00,32.8,28.8,29.87,NW,314,0.0,0.0,85,0.00,,---,0.00,VWS V14.01,2013-10-22 11:23:00,
2013-10-22 07:24:00,32.8,28.8,29.87,NW,314,0.0,0.0,85,0.00,,---,0.00,VWS V14.01,2013-10-22 11:24:00,
2013-10-22 07:25:00,32.8,28.8,29.87,NW,314,0.0,0.0,85,0.00,,---,0.00,VWS V14.01,2013-10-22 11:25:00,
2013-10-22 07:26:00,32.8,28.8,29.87,NW,314,0.0,0.0,85,0.00,,---,0.00,VWS V14.01,2013-10-22 11:26:00,
2013-10-22 07:27:00,32.8,28.8,29.87,NW,314,0.0,0.0,85,0.00,,---,0.00,VWS V14.01,2013-10-22 11:27:00,
2013-10-22 07:28:00,32.8,28.8,29.87,NW,314,0.0,0.0,85,0.00,,---,0.00,VWS V14.01,2013-10-22 11:28:00,
2013-10-22 07:29:00,32.7,29.0,29.87,NW,314,0.0,0.0,86,0.00,,---,0.00,VWS V14.01,2013-10-22 11:29:00,
2013-10-22 07:30:00,32.7,29.0,29.87,NW,314,0.0,0.0,86,0.00,,---,0.00,VWS V14.01,2013-10-22 11:30:00,
2013-10-22 07:31:00,32.7,29.0,29.87,NW,314,0.0,0.0,86,0.00,,---,0.00,VWS V14.01,2013-10-22 11:31:00,
2013-10-22 07:32:00,32.7,29.0,29.87,NW,314,0.0,0.0,86,0.00,,---,0.00,VWS V14.01,2013-10-22 11:32:00,
2013-10-22 07:33:00,32.7,29.0,29.87,NW,314,0.0,0.0,86,0.00,,---,0.00,VWS V14.01,2013-10-22 11:33:00,
2013-10-22 07:34:00,32.7,29.0,29.87,NW,314,0.0,0.0,86,0.00,,---,0.00,VWS V14.01,2013-10-22 11:34:00,
2013-10-22 07:35:00,32.7,29.0,29.87,NW,314,0.0,0.0,86,0.00,,---,0.00,VWS V14.01,2013-10-22 11:35:00,
2013-10-22 07:36:00,32.7,29.0,29.87,NW,314,0.0,0.0,86,0.00,,---,0.00,VWS V14.01,2013-10-22 11:36:00,
2013-10-22 07:37:00,32.7,29.0,29.87,NW,314,0.0,0.0,86,0.00,,---,0.00,VWS V14.01,2013-10-22 11:37:00,
2013-10-22 07:38:00,32.7,29.0,29.87,NW,314,0.0,0.0,86,0.00,,---,0.00,VWS V14.01,2013-10-22 11:38:00,
2013-10-22 07:39:00,32.7,29.0,29.87,NW,314,0.0,0.0,86,0.00,,---,0.00,VWS V14.01,2013-10-22 11:39:00,
2013-10-22 07:40:00,32.7,29.0,29.87,NW,314,0.0,0.0,86,0.00,,---,0.00,VWS V14.01,2013-10-22 11:40:00,
2013-10-22 07:41:00,32.7,29.0,29.87,NW,314,0.0,0.0,86,0.00,,---,0.00,VWS V14.01,2013-10-22 11:41:00,
2013-10-22 07:42:00,32.7,29.0,29.87,NW,314,0.0,0.0,86,0.00,,---,0.00,VWS V14.01,2013-10-22 11:42:00,
2013-10-22 07:43:00,32.6,28.9,29.87,NW,314,0.0,0.0,86,0.00,,---,0.00,VWS V14.01,2013-10-22 11:43:00,
2013-10-22 07:44:00,32.6,28.9,29.87,NW,314,0.0,0.0,86,0.00,,---,0.00,VWS V14.01,2013-10-22 11:44:00,
2013-10-22 07:45:00,32.6,28.9,29.87,NW,314,0.0,0.0,86,0.00,,---,0.00,VWS V14.01,2013-10-22 11:45:00,
2013-10-22 07:46:00,32.6,28.9,29.87,NW,314,0.0,0.0,86,0.00,,---,0.00,VWS V14.01,2013-10-22 11:46:00,
2013-10-22 07:47:00,32.6,28.9,29.87,NW,314,0.0,0.0,86,0.00,,---,0.00,VWS V14.01,2013-10-22 11:47:00,
2013-10-22 07:48:00,32.6,28.9,29.87,NW,314,0.0,0.0,86,0.00,,---,0.00,VWS V14.01,2013-10-22 11:48:00,
2013-10-22 07:49:00,32.6,28.9,29.87,NW,314,0.0,0.0,86,0.00,,---,0.00,VWS V14.01,2013-10-22 11:49:00,
2013-10-22 07:50:00,32.6,28.9,29.87,NW,314,0.0,0.0,86,0.00,,---,0.00,VWS V14.01,2013-10-22 11:50:00,
2013-10-22 07:51:00,32.6,28.9,29.87,NW,314,0.0,0.0,86,0.00,,---,0.00,VWS V14.01,2013-10-22 11:51:00,
2013-10-22 07:52:00,32.6,28.9,29.87,NW,314,0.0,0.0,86,0.00,,---,0.00,VWS V14.01,2013-10-22 11:52:00,
2013-10-22 07:53:00,32.6,28.9,29.87,NW,314,0.0,0.0,86,0.00,,---,0.00,VWS V14.01,2013-10-22 11:53:00,
2013-10-22 07:54:00,32.6,28.9,29.87,NW,314,0.0,0.0,86,0.00,,---,0.00,VWS V14.01,2013-10-22 11:54:00,
2013-10-22 07:55:00,32.6,28.9,29.87,NW,314,0.0,0.0,86,0.00,,---,0.00,VWS V14.01,2013-10-22 11:55:00,
2013-10-22 07:56:00,32.6,28.9,29.87,NW,314,0.0,0.0,86,0.00,,---,0.00,VWS V14.01,2013-10-22 11:56:00,
2013-10-22 07:57:00,32.6,28.9,29.87,NW,314,0.0,0.0,86,0.00,,---,0.00,VWS V14.01,2013-10-22 11:57:00,
2013-10-22 07:58:00,32.6,28.9,29.87,NW,314,0.0,0.0,86,0.00,,---,0.00,VWS V14.01,2013-10-22 11:58:00,
2013-10-22 07:59:00,32.6,28.9,29.87,NW,314,0.0,0.0,86,0.00,,---,0.00,VWS V14.01,2013-10-22 11:59:00,
2013-10-22 08:00:00,32.6,28.9,29.87,NW,314,0.0,0.0,86,0.00,,---,0.00,VWS V14.01,2013-10-22 12:00:00,
2013-10-22 08:01:00,32.6,28.9,29.87,NW,314,0.0,0.0,86,0.00,,---,0.00,VWS V14.01,2013-10-22 12:01:00,
2013-10-22 08:02:00,32.6,28.9,29.87,NW,314,0.0,0.0,86,0.00,,---,0.00,VWS V14.01,2013-10-22 12:02:00,
2013-10-22 08:03:00,32.6,29.2,29.87,NW,314,0.0,0.0,87,0.00,,---,0.00,VWS V14.01,2013-10-22 12:03:00,
2013-10-22 08:04:00,32.6,29.2,29.87,NW,314,0.0,0.0,87,0.00,,---,0.00,VWS V14.01,2013-10-22 12:04:00,
2013-10-22 08:05:00,32.6,29.2,29.87,NW,314,0.0,0.0,87,0.00,,---,0.00,VWS V14.01,2013-10-22 12:05:00,
2013-10-22 08:06:00,32.6,29.2,29.87,NW,314,0.0,0.0,87,0.00,,---,0.00,VWS V14.01,2013-10-22 12:06:00,
2013-10-22 08:07:00,32.6,29.2,29.87,NW,314,0.0,0.0,87,0.00,,---,0.00,VWS V14.01,2013-10-22 12:07:00,
2013-10-22 08:08:00,32.6,29.2,29.87,NW,314,0.0,0.0,87,0.00,,---,0.00,VWS V14.01,2013-10-22 12:08:00,
2013-10-22 08:09:00,32.6,29.2,29.87,NW,314,0.0,0.0,87,0.00,,---,0.00,VWS V14.01,2013-10-22 12:09:00,
2013-10-22 08:10:00,32.6,29.2,29.87,NW,314,0.0,0.0,87,0.00,,---,0.00,VWS V14.01,2013-10-22 12:10:00,
2013-10-22 08:11:00,32.6,29.2,29.87,NW,314,0.0,0.0,87,0.00,,---,0.00,VWS V14.01,2013-10-22 12:11:00,
2013-10-22 08:12:00,32.6,29.2,29.87,NW,314,0.0,0.0,87,0.00,,---,0.00,VWS V14.01,2013-10-22 12:12:00,
2013-10-22 08:13:00,32.7,29.3,29.87,NW,314,0.0,0.0,87,0.00,,---,0.00,VWS V14.01,2013-10-22 12:13:00,
2013-10-22 08:14:00,32.7,29.3,29.87,NW,314,0.0,0.0,87,0.00,,---,0.00,VWS V14.01,2013-10-22 12:14:00,
2013-10-22 08:15:00,32.7,29.3,29.88,NW,314,0.0,0.0,87,0.00,,---,0.00,VWS V14.01,2013-10-22 12:15:00,
2013-10-22 08:16:00,32.7,29.3,29.88,NW,314,0.0,0.0,87,0.00,,---,0.00,VWS V14.01,2013-10-22 12:16:00,
2013-10-22 08:17:00,32.7,29.3,29.88,NW,314,0.0,0.0,87,0.00,,---,0.00,VWS V14.01,2013-10-22 12:17:00,
2013-10-22 08:18:00,32.7,29.3,29.88,NW,314,0.0,0.0,87,0.00,,---,0.00,VWS V14.01,2013-10-22 12:18:00,
2013-10-22 08:19:00,32.8,29.4,29.88,NW,314,0.0,0.0,87,0.00,,---,0.00,VWS V14.01,2013-10-22 12:19:00,
2013-10-22 08:20:00,32.8,29.4,29.88,NW,314,0.0,0.0,87,0.00,,---,0.00,VWS V14.01,2013-10-22 12:20:00,
2013-10-22 08:21:00,32.8,29.4,29.88,NW,314,0.0,0.0,87,0.00,,---,0.00,VWS V14.01,2013-10-22 12:21:00,
2013-10-22 08:22:00,32.8,29.4,29.88,NW,314,0.0,0.0,87,0.00,,---,0.00,VWS V14.01,2013-10-22 12:22:00,
2013-10-22 08:23:00,32.8,29.4,29.88,NW,314,0.0,0.0,87,0.00,,---,0.00,VWS V14.01,2013-10-22 12:23:00,
2013-10-22 08:24:00,32.9,29.5,29.88,NW,314,0.0,0.0,87,0.00,,---,0.00,VWS V14.01,2013-10-22 12:24:00,
2013-10-22 08:25:00,32.9,29.5,29.88,NW,314,0.0,0.0,87,0.00,,---,0.00,VWS V14.01,2013-10-22 12:25:00,
2013-10-22 08:26:00,32.9,29.5,29.88,NW,314,0.0,0.0,87,0.00,,---,0.00,VWS V14.01,2013-10-22 12:26:00,
2013-10-22 08:27:00,32.9,29.5,29.88,NW,314,0.0,0.0,87,0.00,,---,0.00,VWS V14.01,2013-10-22 12:27:00,
2013-10-22 08:28:00,32.9,29.5,29.88,NW,314,0.0,0.0,87,0.00,,---,0.00,VWS V14.01,2013-10-22 12:28:00,
2013-10-22 08:29:00,33.0,29.6,29.88,NW,314,0.0,0.0,87,0.00,,---,0.00,VWS V14.01,2013-10-22 12:29:00,
2013-10-22 08:30:00,33.0,29.6,29.89,NW,314,0.0,0.0,87,0.00,,---,0.00,VWS V14.01,2013-10-22 12:30:00,
2013-10-22 08:31:00,33.0,29.6,29.89,NW,314,0.0,0.0,87,0.00,,---,0.00,VWS V14.01,2013-10-22 12:31:00,
2013-10-22 08:32:00,33.0,29.6,29.89,NW,314,0.0,2.0,87,0.00,,---,0.00,VWS V14.01,2013-10-22 12:32:00,
2013-10-22 08:33:00,33.1,29.7,29.89,NW,314,0.0,2.0,87,0.00,,---,0.00,VWS V14.01,2013-10-22 12:33:00,
2013-10-22 08:34:00,33.1,29.7,29.89,NW,314,0.0,2.0,87,0.00,,---,0.00,VWS V14.01,2013-10-22 12:34:00,
2013-10-22 08:35:00,33.1,29.7,29.89,NW,314,0.0,2.0,87,0.00,,---,0.00,VWS V14.01,2013-10-22 12:35:00,
2013-10-22 08:36:00,33.2,29.8,29.89,NW,314,0.0,0.0,87,0.00,,---,0.00,VWS V14.01,2013-10-22 12:36:00,
2013-10-22 08:37:00,33.2,29.8,29.89,NW,314,0.0,0.0,87,0.00,,---,0.00,VWS V14.01,2013-10-22 12:37:00,
2013-10-22 08:38:00,33.2,29.8,29.89,NW,314,0.0,0.0,87,0.00,,---,0.00,VWS V14.01,2013-10-22 12:38:00,
2013-10-22 08:39:00,33.2,29.8,29.89,NW,314,0.0,0.0,87,0.00,,---,0.00,VWS V14.01,2013-10-22 12:39:00,
2013-10-22 08:40:00,33.3,29.9,29.89,NW,326,0.0,4.0,87,0.00,,---,0.00,VWS V14.01,2013-10-22 12:40:00,
2013-10-22 08:41:00,33.3,29.9,29.89,NW,326,0.0,1.0,87,0.00,,---,0.00,VWS V14.01,2013-10-22 12:41:00,
2013-10-22 08:42:00,33.4,30.0,29.89,NW,326,0.0,1.0,87,0.00,,---,0.00,VWS V14.01,2013-10-22 12:42:00,
2013-10-22 08:43:00,33.4,30.0,29.89,NW,326,0.0,1.0,87,0.00,,---,0.00,VWS V14.01,2013-10-22 12:43:00,
2013-10-22 08:44:00,33.5,30.0,29.89,NW,326,0.0,1.0,87,0.00,,---,0.00,VWS V14.01,2013-10-22 12:44:00,
2013-10-22 08:45:00,33.5,30.0,29.89,NW,319,0.0,1.0,87,0.00,,---,0.00,VWS V14.01,2013-10-22 12:45:00,
2013-10-22 08:46:00,33.5,30.0,29.89,NW,319,0.0,0.0,87,0.00,,---,0.00,VWS V14.01,2013-10-22 12:46:00,
2013-10-22 08:47:00,33.6,30.1,29.89,NW,319,0.0,0.0,87,0.00,,---,0.00,VWS V14.01,2013-10-22 12:47:00,
2013-10-22 08:48:00,33.6,29.9,29.89,NW,319,0.0,0.0,86,0.00,,---,0.00,VWS V14.01,2013-10-22 12:48:00,
2013-10-22 08:49:00,33.7,30.0,29.89,NW,319,0.0,1.0,86,0.00,,---,0.00,VWS V14.01,2013-10-22 12:49:00,
2013-10-22 08:50:00,33.7,30.0,29.89,WNW,302,0.0,4.0,86,0.00,,---,0.00,VWS V14.01,2013-10-22 12:50:00,
2013-10-22 08:51:00,33.8,30.1,29.89,WNW,302,0.0,0.0,86,0.00,,---,0.00,VWS V14.01,2013-10-22 12:51:00,
2013-10-22 08:52:00,33.8,30.1,29.89,WNW,302,0.0,0.0,86,0.00,,---,0.00,VWS V14.01,2013-10-22 12:52:00,
2013-10-22 08:53:00,33.8,30.1,29.89,WNW,302,0.0,0.0,86,0.00,,---,0.00,VWS V14.01,2013-10-22 12:53:00,
2013-10-22 08:54:00,33.9,30.2,29.89,WNW,302,0.0,1.0,86,0.00,,---,0.00,VWS V14.01,2013-10-22 12:54:00,
2013-10-22 08:55:00,33.9,30.2,29.89,North,354,1.0,3.0,86,0.00,,---,0.00,VWS V14.01,2013-10-22 12:55:00,
2013-10-22 08:56:00,34.0,30.3,29.89,North,354,0.0,1.0,86,0.00,,---,0.00,VWS V14.01,2013-10-22 12:56:00,
2013-10-22 08:57:00,34.1,30.1,29.89,North,354,0.0,1.0,85,0.00,,---,0.00,VWS V14.01,2013-10-22 12:57:00,
2013-10-22 08:58:00,34.1,30.1,29.89,NNW,335,0.0,1.0,85,0.00,,---,0.00,VWS V14.01,2013-10-22 12:58:00,
2013-10-22 08:59:00,34.2,30.2,29.89,NNW,335,0.0,1.0,85,0.00,,---,0.00,VWS V14.01,2013-10-22 12:59:00,
2013-10-22 09:00:00,34.2,30.2,29.89,NNW,335,0.0,1.0,85,0.00,,---,0.00,VWS V14.01,2013-10-22 13:00:00,
2013-10-22 09:01:00,34.3,30.3,29.89,NW,323,0.0,1.0,85,0.00,,---,0.00,VWS V14.01,2013-10-22 13:01:00,
2013-10-22 09:02:00,34.3,30.3,29.89,North,357,0.0,1.0,85,0.00,,---,0.00,VWS V14.01,2013-10-22 13:02:00,
2013-10-22 09:03:00,34.3,30.3,29.89,North,355,0.0,1.0,85,0.00,,---,0.00,VWS V14.01,2013-10-22 13:03:00,
2013-10-22 09:04:00,34.4,30.1,29.89,North,1,0.0,1.0,84,0.00,,---,0.00,VWS V14.01,2013-10-22 13:04:00,
2013-10-22 09:05:00,34.4,30.1,29.89,North,1,0.0,1.0,84,0.00,,---,0.00,VWS V14.01,2013-10-22 13:05:00,
2013-10-22 09:06:00,34.5,30.2,29.89,North,359,1.0,1.0,84,0.00,,---,0.00,VWS V14.01,2013-10-22 13:06:00,
2013-10-22 09:07:00,34.5,30.2,29.89,North,359,0.0,1.0,84,0.00,,---,0.00,VWS V14.01,2013-10-22 13:07:00,
2013-10-22 09:08:00,34.6,30.3,29.89,North,359,0.0,1.0,84,0.00,,---,0.00,VWS V14.01,2013-10-22 13:08:00,
2013-10-22 09:09:00,34.6,30.3,29.89,North,359,0.0,1.0,84,0.00,,---,0.00,VWS V14.01,2013-10-22 13:09:00,
2013-10-22 09:10:00,34.7,30.4,29.89,North,359,0.0,1.0,84,0.00,,---,0.00,VWS V14.01,2013-10-22 13:10:00,
2013-10-22 09:11:00,34.7,30.4,29.89,North,359,0.0,0.0,84,0.00,,---,0.00,VWS V14.01,2013-10-22 13:11:00,
2013-10-22 09:12:00,34.8,30.5,29.89,North,359,0.0,0.0,84,0.00,,---,0.00,VWS V14.01,2013-10-22 13:12:00,
2013-10-22 09:13:00,34.8,30.2,29.89,North,359,0.0,0.0,83,0.00,,---,0.00,VWS V14.01,2013-10-22 13:13:00,
2013-10-22 09:14:00,34.8,30.2,29.89,North,357,0.0,1.0,83,0.00,,---,0.00,VWS V14.01,2013-10-22 13:14:00,
2013-10-22 09:15:00,34.9,30.3,29.89,North,350,0.0,1.0,83,0.00,,---,0.00,VWS V14.01,2013-10-22 13:15:00,
2013-10-22 09:16:00,34.9,30.3,29.89,NW,305,0.0,5.0,83,0.00,,---,0.00,VWS V14.01,2013-10-22 13:16:00,
2013-10-22 09:17:00,35.0,30.4,29.89,NW,305,0.0,5.0,83,0.00,,---,0.00,VWS V14.01,2013-10-22 13:17:00,
2013-10-22 09:18:00,35.0,30.4,29.89,NW,307,0.0,5.0,83,0.00,,---,0.00,VWS V14.01,2013-10-22 13:18:00,
2013-10-22 09:19:00,35.1,30.5,29.89,NW,307,0.0,5.0,83,0.00,,---,0.00,VWS V14.01,2013-10-22 13:19:00,
2013-10-22 09:20:00,35.1,30.5,29.89,NW,307,0.0,5.0,83,0.00,,---,0.00,VWS V14.01,2013-10-22 13:20:00,
2013-10-22 09:21:00,35.2,30.6,29.89,NW,307,0.0,1.0,83,0.00,,---,0.00,VWS V14.01,2013-10-22 13:21:00,
2013-10-22 09:22:00,35.2,30.6,29.89,NW,307,0.0,1.0,83,0.00,,---,0.00,VWS V14.01,2013-10-22 13:22:00,
2013-10-22 09:23:00,35.3,30.7,29.89,NW,307,0.0,1.0,83,0.00,,---,0.00,VWS V14.01,2013-10-22 13:23:00,
2013-10-22 09:24:00,35.3,30.7,29.89,North,1,0.0,3.0,83,0.00,,---,0.00,VWS V14.01,2013-10-22 13:24:00,
2013-10-22 09:25:00,35.4,30.8,29.89,NW,326,1.0,4.0,83,0.00,,---,0.00,VWS V14.01,2013-10-22 13:25:00,
2013-10-22 09:26:00,35.5,30.9,29.89,NW,323,0.0,1.0,83,0.00,,---,0.00,VWS V14.01,2013-10-22 13:26:00,
2013-10-22 09:27:00,35.5,30.6,29.89,NW,323,0.0,1.0,82,0.00,,---,0.00,VWS V14.01,2013-10-22 13:27:00,
2013-10-22 09:28:00,35.6,30.7,29.89,NW,309,3.0,3.0,82,0.00,,---,0.00,VWS V14.01,2013-10-22 13:28:00,
2013-10-22 09:29:00,35.7,30.8,29.89,WNW,303,5.0,5.0,82,0.00,,---,0.00,VWS V14.01,2013-10-22 13:29:00,
2013-10-22 09:30:00,35.7,30.8,29.89,NW,313,0.0,5.0,82,0.00,,---,0.00,VWS V14.01,2013-10-22 13:30:00,
2013-10-22 09:31:00,35.8,30.9,29.89,NW,313,0.0,0.0,82,0.00,,---,0.00,VWS V14.01,2013-10-22 13:31:00,
2013-10-22 09:32:00,35.8,30.9,29.89,NW,311,0.0,0.0,82,0.00,,---,0.00,VWS V14.01,2013-10-22 13:32:00,
2013-10-22 09:33:00,35.9,31.0,29.89,NW,311,0.0,1.0,82,0.00,,---,0.00,VWS V14.01,2013-10-22 13:33:00,
2013-10-22 09:34:00,35.9,31.0,29.89,NW,311,0.0,1.0,82,0.00,,---,0.00,VWS V14.01,2013-10-22 13:34:00,
2013-10-22 09:35:00,35.9,31.0,29.89,NNW,335,0.0,1.0,82,0.00,,---,0.00,VWS V14.01,2013-10-22 13:35:00,
2013-10-22 09:36:00,36.0,30.8,29.89,NNW,335,0.0,0.0,81,0.00,,---,0.00,VWS V14.01,2013-10-22 13:36:00,
2013-10-22 09:37:00,36.0,31.0,29.89,NW,323,0.0,1.0,82,0.00,,---,0.00,VWS V14.01,2013-10-22 13:37:00,
2013-10-22 09:38:00,36.1,30.8,29.89,West,261,0.0,1.0,81,0.00,,---,0.00,VWS V14.01,2013-10-22 13:38:00,
2013-10-22 09:39:00,36.1,30.8,29.89,West,261,0.0,1.0,81,0.00,,---,0.00,VWS V14.01,2013-10-22 13:39:00,
2013-10-22 09:40:00,36.2,30.9,29.89,West,261,0.0,1.0,81,0.00,,---,0.00,VWS V14.01,2013-10-22 13:40:00,
2013-10-22 09:41:00,36.2,30.9,29.89,West,261,0.0,0.0,81,0.00,,---,0.00,VWS V14.01,2013-10-22 13:41:00,
2013-10-22 09:42:00,36.3,31.0,29.89,WNW,292,0.0,1.0,81,0.00,,---,0.00,VWS V14.01,2013-10-22 13:42:00,
2013-10-22 09:43:00,36.3,31.0,29.89,WNW,292,0.0,1.0,81,0.00,,---,0.00,VWS V14.01,2013-10-22 13:43:00,
2013-10-22 09:44:00,36.4,31.1,29.89,WNW,292,1.0,1.0,81,0.00,,---,0.00,VWS V14.01,2013-10-22 13:44:00,
2013-10-22 09:45:00,36.4,31.1,29.89,WNW,292,0.0,1.0,81,0.00,,---,0.00,VWS V14.01,2013-10-22 13:45:00,
2013-10-22 09:46:00,36.4,31.1,29.89,WNW,292,0.0,0.0,81,0.00,,---,0.00,VWS V14.01,2013-10-22 13:46:00,
2013-10-22 09:47:00,36.5,31.2,29.89,WNW,292,0.0,0.0,81,0.00,,---,0.00,VWS V14.01,2013-10-22 13:47:00,
2013-10-22 09:48:00,36.5,31.2,29.89,South,180,0.0,0.0,81,0.00,,---,0.00,VWS V14.01,2013-10-22 13:48:00,
2013-10-22 09:49:00,36.6,31.3,29.89,South,180,0.0,0.0,81,0.00,,---,0.00,VWS V14.01,2013-10-22 13:49:00,
2013-10-22 09:50:00,36.6,31.3,29.89,South,180,0.0,0.0,81,0.00,,---,0.00,VWS V14.01,2013-10-22 13:50:00,
2013-10-22 09:51:00,36.6,31.3,29.89,South,180,0.0,0.0,81,0.00,,---,0.00,VWS V14.01,2013-10-22 13:51:00,
2013-10-22 09:52:00,36.7,31.4,29.89,South,180,0.0,0.0,81,0.00,,---,0.00,VWS V14.01,2013-10-22 13:52:00,
2013-10-22 09:53:00,36.7,31.4,29.89,South,180,0.0,0.0,81,0.00,,---,0.00,VWS V14.01,2013-10-22 13:53:00,
2013-10-22 09:54:00,36.8,31.5,29.89,South,180,0.0,0.0,81,0.00,,---,0.00,VWS V14.01,2013-10-22 13:54:00,
2013-10-22 09:55:00,36.8,31.5,29.89,South,180,0.0,0.0,81,0.00,,---,0.00,VWS V14.01,2013-10-22 13:55:00,
2013-10-22 09:56:00,36.9,31.6,29.89,North,353,2.0,2.0,81,0.00,,---,0.00,VWS V14.01,2013-10-22 13:56:00,
2013-10-22 09:57:00,36.9,31.6,29.89,NW,326,0.0,2.0,81,0.00,,---,0.00,VWS V14.01,2013-10-22 13:57:00,
2013-10-22 09:58:00,37.0,31.7,29.89,NW,326,0.0,2.0,81,0.00,,---,0.00,VWS V14.01,2013-10-22 13:58:00,
2013-10-22 09:59:00,37.0,31.7,29.89,NW,326,0.0,2.0,81,0.00,,---,0.00,VWS V14.01,2013-10-22 13:59:00,
2013-10-22 10:00:00,37.1,31.8,29.88,NW,325,0.0,2.0,81,0.00,,---,0.00,VWS V14.01,2013-10-22 14:00:00,
2013-10-22 10:01:00,37.1,31.5,29.88,NW,326,0.0,3.0,80,0.00,,---,0.00,VWS V14.01,2013-10-22 14:01:00,
2013-10-22 10:02:00,37.2,31.6,29.88,NW,326,0.0,3.0,80,0.00,,---,0.00,VWS V14.01,2013-10-22 14:02:00,
2013-10-22 10:03:00,37.3,31.7,29.88,NW,326,0.0,3.0,80,0.00,,---,0.00,VWS V14.01,2013-10-22 14:03:00,
2013-10-22 10:04:00,37.3,31.7,29.88,NW,326,0.0,3.0,80,0.00,,---,0.00,VWS V14.01,2013-10-22 14:04:00,
2013-10-22 10:05:00,37.4,31.8,29.88,NW,326,0.0,3.0,80,0.00,,---,0.00,VWS V14.01,2013-10-22 14:05:00,
2013-10-22 10:06:00,37.5,31.9,29.88,NNW,331,0.0,2.0,80,0.00,,---,0.00,VWS V14.01,2013-10-22 14:06:00,
2013-10-22 10:07:00,37.5,31.6,29.88,NNW,331,0.0,2.0,79,0.00,,---,0.00,VWS V14.01,2013-10-22 14:07:00,
2013-10-22 10:08:00,37.6,31.7,29.88,NNW,331,0.0,2.0,79,0.00,,---,0.00,VWS V14.01,2013-10-22 14:08:00,
2013-10-22 10:09:00,37.6,31.7,29.88,North,359,0.0,2.0,79,0.00,,---,0.00,VWS V14.01,2013-10-22 14:09:00,
2013-10-22 10:10:00,37.7,31.8,29.88,North,359,0.0,2.0,79,0.00,,---,0.00,VWS V14.01,2013-10-22 14:10:00,
2013-10-22 10:11:00,37.8,31.9,29.88,North,2,0.0,0.0,79,0.00,,---,0.00,VWS V14.01,2013-10-22 14:11:00,
2013-10-22 10:12:00,37.8,31.9,29.88,North,2,0.0,0.0,79,0.00,,---,0.00,VWS V14.01,2013-10-22 14:12:00,
2013-10-22 10:13:00,37.9,32.0,29.88,North,2,0.0,0.0,79,0.00,,---,0.00,VWS V14.01,2013-10-22 14:13:00,
2013-10-22 10:14:00,37.9,32.0,29.88,North,4,0.0,0.0,79,0.00,,---,0.00,VWS V14.01,2013-10-22 14:14:00,
2013-10-22 10:15:00,38.0,32.1,29.88,NNW,343,1.0,2.0,79,0.00,,---,0.00,VWS V14.01,2013-10-22 14:15:00,
2013-10-22 10:16:00,38.1,32.2,29.88,North,359,0.0,1.0,79,0.00,,---,0.00,VWS V14.01,2013-10-22 14:16:00,
2013-10-22 10:17:00,38.1,32.2,29.88,NNW,346,1.0,2.0,79,0.00,,---,0.00,VWS V14.01,2013-10-22 14:17:00,
2013-10-22 10:18:00,38.2,32.3,29.88,NNW,345,0.0,3.0,79,0.00,,---,0.00,VWS V14.01,2013-10-22 14:18:00,
2013-10-22 10:19:00,38.2,32.3,29.88,NW,306,0.0,3.0,79,0.00,,---,0.00,VWS V14.01,2013-10-22 14:19:00,
2013-10-22 10:20:00,38.3,32.4,29.88,NW,306,0.0,3.0,79,0.00,,---,0.00,VWS V14.01,2013-10-22 14:20:00,
2013-10-22 10:21:00,38.3,32.4,29.88,NW,306,0.0,0.0,79,0.00,,---,0.00,VWS V14.01,2013-10-22 14:21:00,
2013-10-22 10:22:00,38.4,32.5,29.88,NW,305,1.0,1.0,79,0.00,,---,0.00,VWS V14.01,2013-10-22 14:22:00,
2013-10-22 10:23:00,38.4,32.2,29.88,West,278,0.0,2.0,78,0.00,,---,0.00,VWS V14.01,2013-10-22 14:23:00,
2013-10-22 10:24:00,38.5,32.2,29.88,West,278,0.0,2.0,78,0.00,,---,0.00,VWS V14.01,2013-10-22 14:24:00,
2013-10-22 10:25:00,38.6,32.3,29.88,NW,325,1.0,3.0,78,0.00,,---,0.00,VWS V14.01,2013-10-22 14:25:00,
2013-10-22 10:26:00,38.6,32.3,29.88,NW,325,0.0,1.0,78,0.00,,---,0.00,VWS V14.01,2013-10-22 14:26:00,
2013-10-22 10:27:00,38.7,32.4,29.88,NW,310,0.0,3.0,78,0.00,,---,0.00,VWS V14.01,2013-10-22 14:27:00,
2013-10-22 10:28:00,38.8,32.2,29.88,NW,309,0.0,3.0,77,0.00,,---,0.00,VWS V14.01,2013-10-22 14:28:00,
2013-10-22 10:29:00,38.8,32.2,29.88,WNW,299,0.0,3.0,77,0.00,,---,0.00,VWS V14.01,2013-10-22 14:29:00,
2013-10-22 10:30:00,38.9,32.3,29.88,WNW,299,0.0,3.0,77,0.00,,---,0.00,VWS V14.01,2013-10-22 14:30:00,
2013-10-22 10:31:00,38.9,32.3,29.88,North,359,0.0,6.0,77,0.00,,---,0.00,VWS V14.01,2013-10-22 14:31:00,
2013-10-22 10:32:00,39.0,32.4,29.88,North,355,0.0,6.0,77,0.00,,---,0.00,VWS V14.01,2013-10-22 14:32:00,
2013-10-22 10:33:00,39.0,32.4,29.88,NW,304,0.0,6.0,77,0.00,,---,0.00,VWS V14.01,2013-10-22 14:33:00,
2013-10-22 10:34:00,39.1,32.5,29.88,West,265,0.0,6.0,77,0.00,,---,0.00,VWS V14.01,2013-10-22 14:34:00,
2013-10-22 10:35:00,39.1,32.5,29.88,WSW,255,0.0,6.0,77,0.00,,---,0.00,VWS V14.01,2013-10-22 14:35:00,
2013-10-22 10:36:00,39.2,32.6,29.88,SW,224,0.0,1.0,77,0.00,,---,0.00,VWS V14.01,2013-10-22 14:36:00,
2013-10-22 10:37:00,39.3,32.7,29.88,SW,224,0.0,1.0,77,0.00,,---,0.00,VWS V14.01,2013-10-22 14:37:00,
2013-10-22 10:38:00,39.3,32.4,29.88,SW,224,0.0,1.0,76,0.00,,---,0.00,VWS V14.01,2013-10-22 14:38:00,
2013-10-22 10:39:00,39.3,32.7,29.88,NW,313,0.0,3.0,77,0.00,,---,0.00,VWS V14.01,2013-10-22 14:39:00,
2013-10-22 10:40:00,39.4,32.5,29.88,North,354,0.0,3.0,76,0.00,,---,0.00,VWS V14.01,2013-10-22 14:40:00,
2013-10-22 10:41:00,39.5,32.6,29.88,West,264,0.0,1.0,76,0.00,,---,0.00,VWS V14.01,2013-10-22 14:41:00,
2013-10-22 10:42:00,39.5,32.9,29.88,NE,51,0.0,1.0,77,0.00,,---,0.00,VWS V14.01,2013-10-22 14:42:00,
2013-10-22 10:43:00,39.5,32.6,29.88,NNE,17,0.0,1.0,76,0.00,,---,0.00,VWS V14.01,2013-10-22 14:43:00,
2013-10-22 10:44:00,39.6,32.7,29.88,NNW,342,0.0,1.0,76,0.00,,---,0.00,VWS V14.01,2013-10-22 14:44:00,
2013-10-22 10:45:00,39.6,32.7,29.88,NNW,342,0.0,1.0,76,0.00,,---,0.00,VWS V14.01,2013-10-22 14:45:00,
2013-10-22 10:46:00,39.7,32.8,29.88,NNW,340,0.0,0.0,76,0.00,,---,0.00,VWS V14.01,2013-10-22 14:46:00,
2013-10-22 10:47:00,39.7,33.1,29.88,NNW,340,0.0,0.0,77,0.00,,---,0.00,VWS V14.01,2013-10-22 14:47:00,
2013-10-22 10:48:00,39.8,32.9,29.88,NW,324,0.0,0.0,76,0.00,,---,0.00,VWS V14.01,2013-10-22 14:48:00,
2013-10-22 10:49:00,39.8,32.9,29.88,NW,326,0.0,2.0,76,0.00,,---,0.00,VWS V14.01,2013-10-22 14:49:00,
2013-10-22 10:50:00,39.8,32.9,29.88,NW,326,0.0,2.0,76,0.00,,---,0.00,VWS V14.01,2013-10-22 14:50:00,
2013-10-22 10:51:00,39.9,33.0,29.88,NNW,345,3.0,4.0,76,0.00,,---,0.00,VWS V14.01,2013-10-22 14:51:00,
2013-10-22 10:52:00,39.9,32.6,29.88,NNW,328,0.0,4.0,75,0.00,,---,0.00,VWS V14.01,2013-10-22 14:52:00,
2013-10-22 10:53:00,40.0,33.1,29.88,NW,304,0.0,4.0,76,0.00,,---,0.00,VWS V14.01,2013-10-22 14:53:00,
2013-10-22 10:54:00,40.0,32.7,29.88,NW,304,0.0,4.0,75,0.00,,---,0.00,VWS V14.01,2013-10-22 14:54:00,
2013-10-22 10:55:00,40.1,33.2,29.88,NW,304,0.0,4.0,76,0.00,,---,0.00,VWS V14.01,2013-10-22 14:55:00,
2013-10-22 10:56:00,40.1,33.2,29.88,NW,304,0.0,0.0,76,0.00,,---,0.00,VWS V14.01,2013-10-22 14:56:00,
2013-10-22 10:57:00,40.2,33.2,29.88,NNW,327,0.0,0.0,76,0.00,,---,0.00,VWS V14.01,2013-10-22 14:57:00,
2013-10-22 10:58:00,40.2,33.2,29.88,NNW,327,0.0,0.0,76,0.00,,---,0.00,VWS V14.01,2013-10-22 14:58:00,
2013-10-22 10:59:00,40.2,33.2,29.88,NNW,327,0.0,0.0,76,0.00,,---,0.00,VWS V14.01,2013-10-22 14:59:00,
2013-10-22 11:00:00,40.3,33.3,29.88,NNW,338,0.0,0.0,76,0.00,,---,0.00,VWS V14.01,2013-10-22 15:00:00,
2013-10-22 11:01:00,40.4,33.1,29.88,NNW,338,0.0,1.0,75,0.00,,---,0.00,VWS V14.01,2013-10-22 15:01:00,
2013-10-22 11:02:00,40.4,33.1,29.88,NNW,342,0.0,1.0,75,0.00,,---,0.00,VWS V14.01,2013-10-22 15:02:00,
2013-10-22 11:03:00,40.4,33.1,29.88,NNW,342,0.0,1.0,75,0.00,,---,0.00,VWS V14.01,2013-10-22 15:03:00,
2013-10-22 11:04:00,40.5,33.2,29.88,North,359,0.0,1.0,75,0.00,,---,0.00,VWS V14.01,2013-10-22 15:04:00,
2013-10-22 11:05:00,40.5,33.2,29.88,North,349,0.0,1.0,75,0.00,,---,0.00,VWS V14.01,2013-10-22 15:05:00,
2013-10-22 11:06:00,40.5,32.9,29.88,North,1,0.0,3.0,74,0.00,,---,0.00,VWS V14.01,2013-10-22 15:06:00,
2013-10-22 11:07:00,40.6,33.0,29.88,North,1,0.0,3.0,74,0.00,,---,0.00,VWS V14.01,2013-10-22 15:07:00,
2013-10-22 11:08:00,40.6,33.0,29.88,NE,50,0.0,5.0,74,0.00,,---,0.00,VWS V14.01,2013-10-22 15:08:00,
2013-10-22 11:09:00,40.7,33.1,29.88,NE,51,0.0,5.0,74,0.00,,---,0.00,VWS V14.01,2013-10-22 15:09:00,
2013-10-22 11:10:00,40.7,33.4,29.88,NE,51,0.0,5.0,75,0.00,,---,0.00,VWS V14.01,2013-10-22 15:10:00,
2013-10-22 11:11:00,40.7,33.4,29.88,NE,40,0.0,0.0,75,0.00,,---,0.00,VWS V14.01,2013-10-22 15:11:00,
2013-10-22 11:12:00,40.8,33.2,29.88,NNE,23,0.0,0.0,74,0.00,,---,0.00,VWS V14.01,2013-10-22 15:12:00,
2013-10-22 11:13:00,40.9,33.3,29.88,NW,323,2.0,2.0,74,0.00,,---,0.00,VWS V14.01,2013-10-22 15:13:00,
2013-10-22 11:14:00,40.9,33.3,29.88,WNW,292,3.0,3.0,74,0.00,,---,0.00,VWS V14.01,2013-10-22 15:14:00,
2013-10-22 11:15:00,41.0,33.4,29.88,WNW,300,0.0,5.0,74,0.00,,---,0.00,VWS V14.01,2013-10-22 15:15:00,
2013-10-22 11:16:00,41.0,33.4,29.88,WNW,300,0.0,0.0,74,0.00,,---,0.00,VWS V14.01,2013-10-22 15:16:00,
2013-10-22 11:17:00,41.1,33.1,29.88,WNW,300,0.0,1.0,73,0.00,,---,0.00,VWS V14.01,2013-10-22 15:17:00,
2013-10-22 11:18:00,41.1,33.5,29.88,WNW,300,0.0,1.0,74,0.00,,---,0.00,VWS V14.01,2013-10-22 15:18:00,
2013-10-22 11:19:00,41.2,33.5,29.88,WNW,300,1.0,2.0,74,0.00,,---,0.00,VWS V14.01,2013-10-22 15:19:00,
2013-10-22 11:20:00,41.3,33.7,29.88,NNW,336,1.0,2.0,74,0.00,,---,0.00,VWS V14.01,2013-10-22 15:20:00,
2013-10-22 11:21:00,41.4,33.8,29.88,WNW,293,0.0,3.0,74,0.00,,---,0.00,VWS V14.01,2013-10-22 15:21:00,
2013-10-22 11:22:00,41.5,33.5,29.88,West,276,2.0,4.0,73,0.00,,---,0.00,VWS V14.01,2013-10-22 15:22:00,
2013-10-22 11:23:00,41.6,33.6,29.88,WNW,302,0.0,4.0,73,0.00,,---,0.00,VWS V14.01,2013-10-22 15:23:00,
2013-10-22 11:24:00,41.6,33.3,29.88,WNW,296,0.0,4.0,72,0.00,,---,0.00,VWS V14.01,2013-10-22 15:24:00,
2013-10-22 11:25:00,41.8,33.5,29.88,West,281,2.0,4.0,72,0.00,,---,0.00,VWS V14.01,2013-10-22 15:25:00,
2013-10-22 11:26:00,41.8,33.5,29.88,WNW,297,1.0,4.0,72,0.00,,---,0.00,VWS V14.01,2013-10-22 15:26:00,
2013-10-22 11:27:00,41.9,33.5,29.88,WNW,297,0.0,4.0,72,0.00,,---,0.00,VWS V14.01,2013-10-22 15:27:00,
2013-10-22 11:28:00,42.0,33.3,29.88,WNW,297,0.0,4.0,71,0.00,,---,0.00,VWS V14.01,2013-10-22 15:28:00,
2013-10-22 11:29:00,42.0,33.3,29.88,WNW,297,0.0,4.0,71,0.00,,---,0.00,VWS V14.01,2013-10-22 15:29:00,
2013-10-22 11:30:00,42.0,33.6,29.88,ENE,68,1.0,4.0,72,0.00,,---,0.00,VWS V14.01,2013-10-22 15:30:00,
2013-10-22 11:31:00,42.1,33.4,29.88,ENE,70,0.0,1.0,71,0.00,,---,0.00,VWS V14.01,2013-10-22 15:31:00,
2013-10-22 11:32:00,42.1,33.4,29.88,SSE,160,0.0,1.0,71,0.00,,---,0.00,VWS V14.01,2013-10-22 15:32:00,
2013-10-22 11:33:00,42.2,33.8,29.88,SSE,160,0.0,1.0,72,0.00,,---,0.00,VWS V14.01,2013-10-22 15:33:00,
2013-10-22 11:34:00,42.2,33.8,29.88,SSW,195,0.0,2.0,72,0.00,,---,0.00,VWS V14.01,2013-10-22 15:34:00,
2013-10-22 11:35:00,42.3,33.9,29.88,NNW,335,0.0,4.0,72,0.00,,---,0.00,VWS V14.01,2013-10-22 15:35:00,
2013-10-22 11:36:00,42.3,33.6,29.88,North,0,0.0,1.0,71,0.00,,---,0.00,VWS V14.01,2013-10-22 15:36:00,
2013-10-22 11:37:00,42.3,33.2,29.88,North,0,0.0,1.0,70,0.00,,---,0.00,VWS V14.01,2013-10-22 15:37:00,
2013-10-22 11:38:00,42.3,33.2,29.88,North,0,0.0,1.0,70,0.00,,---,0.00,VWS V14.01,2013-10-22 15:38:00,
2013-10-22 11:39:00,42.3,33.2,29.88,North,0,0.0,1.0,70,0.00,,---,0.00,VWS V14.01,2013-10-22 15:39:00,
2013-10-22 11:40:00,42.3,33.2,29.88,North,0,0.0,1.0,70,0.00,,---,0.00,VWS V14.01,2013-10-22 15:40:00,
2013-10-22 11:41:00,42.4,33.3,29.88,North,1,0.0,1.0,70,0.00,,---,0.00,VWS V14.01,2013-10-22 15:41:00,
2013-10-22 11:42:00,42.4,33.3,29.88,North,1,0.0,1.0,70,0.00,,---,0.00,VWS V14.01,2013-10-22 15:42:00,
2013-10-22 11:43:00,42.5,33.8,29.88,North,1,0.0,1.0,71,0.00,,---,0.00,VWS V14.01,2013-10-22 15:43:00,
2013-10-22 11:44:00,42.7,34.0,29.88,North,359,0.0,1.0,71,0.00,,---,0.00,VWS V14.01,2013-10-22 15:44:00,
2013-10-22 11:45:00,42.8,34.4,29.88,NNW,344,0.0,1.0,72,0.00,,---,0.00,VWS V14.01,2013-10-22 15:45:00,
2013-10-22 11:46:00,43.1,34.3,29.88,NNW,344,0.0,1.0,71,0.00,,---,0.00,VWS V14.01,2013-10-22 15:46:00,
2013-10-22 11:47:00,43.2,34.1,29.88,NNW,338,1.0,3.0,70,0.00,,---,0.00,VWS V14.01,2013-10-22 15:47:00,
2013-10-22 11:48:00,43.3,34.2,29.88,NNW,331,0.0,3.0,70,0.00,,---,0.00,VWS V14.01,2013-10-22 15:48:00,
2013-10-22 11:49:00,43.5,34.4,29.88,NW,325,0.0,3.0,70,0.00,,---,0.00,VWS V14.01,2013-10-22 15:49:00,
2013-10-22 11:50:00,43.6,34.1,29.88,NW,325,0.0,3.0,69,0.00,,---,0.00,VWS V14.01,2013-10-22 15:50:00,
2013-10-22 11:51:00,43.7,34.6,29.88,NW,305,0.0,1.0,70,0.00,,---,0.00,VWS V14.01,2013-10-22 15:51:00,
2013-10-22 11:52:00,43.7,34.2,29.88,NW,305,0.0,1.0,69,0.00,,---,0.00,VWS V14.01,2013-10-22 15:52:00,
2013-10-22 11:53:00,43.7,33.8,29.88,NW,318,0.0,3.0,68,0.00,,---,0.00,VWS V14.01,2013-10-22 15:53:00,
2013-10-22 11:54:00,43.7,33.8,29.88,NW,318,0.0,3.0,68,0.00,,---,0.00,VWS V14.01,2013-10-22 15:54:00,
2013-10-22 11:55:00,43.7,33.8,29.88,NW,318,0.0,3.0,68,0.00,,---,0.00,VWS V14.01,2013-10-22 15:55:00,
2013-10-22 11:56:00,43.7,34.2,29.88,North,359,3.0,5.0,69,0.00,,---,0.00,VWS V14.01,2013-10-22 15:56:00,
2013-10-22 11:57:00,43.7,34.2,29.88,NW,319,2.0,7.0,69,0.00,,---,0.00,VWS V14.01,2013-10-22 15:57:00,
2013-10-22 11:58:00,43.7,34.2,29.88,WNW,298,2.0,7.0,69,0.00,,---,0.00,VWS V14.01,2013-10-22 15:58:00,
2013-10-22 11:59:00,43.8,33.9,29.88,WNW,297,0.0,7.0,68,0.00,,---,0.00,VWS V14.01,2013-10-22 15:59:00,
2013-10-22 12:00:00,43.8,33.9,29.88,WNW,297,0.0,7.0,68,0.00,,---,0.00,VWS V14.01,2013-10-22 16:00:00,
2013-10-22 12:01:00,43.9,34.4,29.88,WNW,289,4.0,5.0,69,0.00,,---,0.00,VWS V14.01,2013-10-22 16:01:00,
2013-10-22 12:02:00,43.9,34.0,29.88,North,0,0.0,5.0,68,0.00,,---,0.00,VWS V14.01,2013-10-22 16:02:00,
2013-10-22 12:03:00,44.0,33.8,29.88,WNW,296,0.0,5.0,67,0.00,,---,0.00,VWS V14.01,2013-10-22 16:03:00,
2013-10-22 12:04:00,44.0,33.8,29.88,WNW,296,0.0,5.0,67,0.00,,---,0.00,VWS V14.01,2013-10-22 16:04:00,
2013-10-22 12:05:00,44.0,33.8,29.88,WNW,296,0.0,5.0,67,0.00,,---,0.00,VWS V14.01,2013-10-22 16:05:00,
2013-10-22 12:06:00,44.0,33.8,29.88,WNW,297,1.0,1.0,67,0.00,,---,0.00,VWS V14.01,2013-10-22 16:06:00,
2013-10-22 12:07:00,44.0,33.8,29.88,WNW,297,0.0,1.0,67,0.00,,---,0.00,VWS V14.01,2013-10-22 16:07:00,
2013-10-22 12:08:00,44.0,34.1,29.88,WNW,297,0.0,1.0,68,0.00,,---,0.00,VWS V14.01,2013-10-22 16:08:00,
2013-10-22 12:09:00,44.0,34.1,29.88,WNW,297,1.0,1.0,68,0.00,,---,0.00,VWS V14.01,2013-10-22 16:09:00,
2013-10-22 12:10:00,44.1,34.2,29.88,South,175,0.0,2.0,68,0.00,,---,0.00,VWS V14.01,2013-10-22 16:10:00,
2013-10-22 12:11:00,44.0,33.4,29.88,South,175,0.0,0.0,66,0.00,,---,0.00,VWS V14.01,2013-10-22 16:11:00,
2013-10-22 12:12:00,44.0,33.8,29.88,South,175,0.0,1.0,67,0.00,,---,0.00,VWS V14.01,2013-10-22 16:12:00,
2013-10-22 12:13:00,44.1,34.2,29.88,South,185,0.0,1.0,68,0.00,,---,0.00,VWS V14.01,2013-10-22 16:13:00,
2013-10-22 12:14:00,44.1,34.2,29.88,SSW,192,0.0,1.0,68,0.00,,---,0.00,VWS V14.01,2013-10-22 16:14:00,
2013-10-22 12:15:00,44.1,33.9,29.87,South,186,0.0,1.0,67,0.00,,---,0.00,VWS V14.01,2013-10-22 16:15:00,
2013-10-22 12:16:00,44.1,33.9,29.87,SSW,197,0.0,0.0,67,0.00,,---,0.00,VWS V14.01,2013-10-22 16:16:00,
2013-10-22 12:17:00,44.1,33.5,29.87,ESE,109,0.0,0.0,66,0.00,,---,0.00,VWS V14.01,2013-10-22 16:17:00,
2013-10-22 12:18:00,44.1,33.1,29.87,NW,304,4.0,4.0,65,0.00,,---,0.00,VWS V14.01,2013-10-22 16:18:00,
2013-10-22 12:19:00,44.1,33.5,29.87,NNW,331,1.0,4.0,66,0.00,,---,0.00,VWS V14.01,2013-10-22 16:19:00,
2013-10-22 12:20:00,44.2,34.3,29.87,WNW,297,0.0,4.0,68,0.00,,---,0.00,VWS V14.01,2013-10-22 16:20:00,
2013-10-22 12:21:00,44.3,34.0,29.87,WNW,297,0.0,0.0,67,0.00,,---,0.00,VWS V14.01,2013-10-22 16:21:00,
2013-10-22 12:22:00,44.5,34.2,29.87,NW,323,0.0,1.0,67,0.00,,---,0.00,VWS V14.01,2013-10-22 16:22:00,
2013-10-22 12:23:00,44.6,34.0,29.87,NW,326,0.0,2.0,66,0.00,,---,0.00,VWS V14.01,2013-10-22 16:23:00,
2013-10-22 12:24:00,44.7,34.0,29.87,NW,317,1.0,2.0,66,0.00,,---,0.00,VWS V14.01,2013-10-22 16:24:00,
2013-10-22 12:25:00,44.8,33.8,29.87,North,359,0.0,5.0,65,0.00,,---,0.00,VWS V14.01,2013-10-22 16:25:00,
2013-10-22 12:26:00,44.8,34.2,29.87,North,359,0.0,0.0,66,0.00,,---,0.00,VWS V14.01,2013-10-22 16:26:00,
2013-10-22 12:27:00,44.9,33.9,29.87,North,359,0.0,0.0,65,0.00,,---,0.00,VWS V14.01,2013-10-22 16:27:00,
2013-10-22 12:28:00,44.9,33.5,29.87,West,259,0.0,0.0,64,0.00,,---,0.00,VWS V14.01,2013-10-22 16:28:00,
2013-10-22 12:29:00,44.9,33.5,29.87,West,263,0.0,0.0,64,0.00,,---,0.00,VWS V14.01,2013-10-22 16:29:00,
2013-10-22 12:30:00,44.9,33.5,29.86,West,263,0.0,0.0,64,0.00,,---,0.00,VWS V14.01,2013-10-22 16:30:00,
2013-10-22 12:31:00,44.8,34.2,29.86,West,266,0.0,0.0,66,0.00,,---,0.00,VWS V14.01,2013-10-22 16:31:00,
2013-10-22 12:32:00,44.9,34.2,29.86,South,174,0.0,1.0,66,0.00,,---,0.00,VWS V14.01,2013-10-22 16:32:00,
2013-10-22 12:33:00,44.9,34.2,29.86,SSE,165,0.0,1.0,66,0.00,,---,0.00,VWS V14.01,2013-10-22 16:33:00,
2013-10-22 12:34:00,44.9,33.9,29.86,NW,316,2.0,2.0,65,0.00,,---,0.00,VWS V14.01,2013-10-22 16:34:00,
2013-10-22 12:35:00,44.9,33.9,29.86,NW,319,0.0,2.0,65,0.00,,---,0.00,VWS V14.01,2013-10-22 16:35:00,
2013-10-22 12:36:00,44.9,33.5,29.86,NW,319,0.0,0.0,64,0.00,,---,0.00,VWS V14.01,2013-10-22 16:36:00,
2013-10-22 12:37:00,44.9,33.9,29.86,NW,319,0.0,0.0,65,0.00,,---,0.00,VWS V14.01,2013-10-22 16:37:00,
2013-10-22 12:38:00,45.0,34.3,29.86,NW,319,0.0,0.0,66,0.00,,---,0.00,VWS V14.01,2013-10-22 16:38:00,
2013-10-22 12:39:00,45.2,34.9,29.86,NW,319,0.0,0.0,67,0.00,,---,0.00,VWS V14.01,2013-10-22 16:39:00,
2013-10-22 12:40:00,45.4,35.1,29.86,NW,319,0.0,0.0,67,0.00,,---,0.00,VWS V14.01,2013-10-22 16:40:00,
2013-10-22 12:41:00,45.6,35.3,29.86,WNW,295,0.0,0.0,67,0.00,,---,0.00,VWS V14.01,2013-10-22 16:41:00,
2013-10-22 12:42:00,45.9,35.2,29.86,WNW,295,1.0,1.0,66,0.00,,---,0.00,VWS V14.01,2013-10-22 16:42:00,
2013-10-22 12:43:00,46.0,34.9,29.86,WNW,284,3.0,3.0,65,0.00,,---,0.00,VWS V14.01,2013-10-22 16:43:00,
2013-10-22 12:44:00,46.1,35.0,29.86,WNW,288,0.0,3.0,65,0.00,,---,0.00,VWS V14.01,2013-10-22 16:44:00,
2013-10-22 12:45:00,46.2,34.3,29.86,West,270,1.0,3.0,63,0.00,,---,0.00,VWS V14.01,2013-10-22 16:45:00,
2013-10-22 12:46:00,46.2,33.5,29.86,West,271,0.0,1.0,61,0.00,,---,0.00,VWS V14.01,2013-10-22 16:46:00,
2013-10-22 12:47:00,46.1,33.0,29.86,SW,219,0.0,1.0,60,0.00,,---,0.00,VWS V14.01,2013-10-22 16:47:00,
2013-10-22 12:48:00,45.9,32.8,29.86,South,169,0.0,1.0,60,0.00,,---,0.00,VWS V14.01,2013-10-22 16:48:00,
2013-10-22 12:49:00,45.8,32.7,29.86,South,169,0.0,1.0,60,0.00,,---,0.00,VWS V14.01,2013-10-22 16:49:00,
2013-10-22 12:50:00,45.7,32.6,29.86,South,169,0.0,1.0,60,0.00,,---,0.00,VWS V14.01,2013-10-22 16:50:00,
2013-10-22 12:51:00,45.6,33.3,29.86,South,169,0.0,0.0,62,0.00,,---,0.00,VWS V14.01,2013-10-22 16:51:00,
2013-10-22 12:52:00,45.5,33.2,29.86,South,169,0.0,0.0,62,0.00,,---,0.00,VWS V14.01,2013-10-22 16:52:00,
2013-10-22 12:53:00,45.4,33.2,29.86,West,262,0.0,1.0,62,0.00,,---,0.00,VWS V14.01,2013-10-22 16:53:00,
2013-10-22 12:54:00,45.4,33.2,29.86,West,264,0.0,1.0,62,0.00,,---,0.00,VWS V14.01,2013-10-22 16:54:00,
2013-10-22 12:55:00,45.5,33.2,29.86,West,279,0.0,2.0,62,0.00,,---,0.00,VWS V14.01,2013-10-22 16:55:00,
2013-10-22 12:56:00,45.6,33.8,29.86,West,280,0.0,0.0,63,0.00,,---,0.00,VWS V14.01,2013-10-22 16:56:00,
2013-10-22 12:57:00,45.8,33.9,29.86,WNW,297,4.0,4.0,63,0.00,,---,0.00,VWS V14.01,2013-10-22 16:57:00,
2013-10-22 12:58:00,45.8,33.1,29.86,NW,318,1.0,4.0,61,0.00,,---,0.00,VWS V14.01,2013-10-22 16:58:00,
2013-10-22 12:59:00,45.8,33.1,29.86,NW,326,1.0,4.0,61,0.00,,---,0.00,VWS V14.01,2013-10-22 16:59:00,
2013-10-22 13:00:00,45.8,33.1,29.85,NW,326,0.0,4.0,61,0.00,,---,0.00,VWS V14.01,2013-10-22 17:00:00,
2013-10-22 13:01:00,45.8,33.9,29.85,NW,326,0.0,0.0,63,0.00,,---,0.00,VWS V14.01,2013-10-22 17:01:00,
2013-10-22 13:02:00,46.0,34.5,29.85,NW,326,0.0,0.0,64,0.00,,---,0.00,VWS V14.01,2013-10-22 17:02:00,
2013-10-22 13:03:00,46.0,33.7,29.85,NNW,348,3.0,3.0,62,0.00,,---,0.00,VWS V14.01,2013-10-22 17:03:00,
2013-10-22 13:04:00,46.1,33.8,29.85,NNW,347,0.0,3.0,62,0.00,,---,0.00,VWS V14.01,2013-10-22 17:04:00,
2013-10-22 13:05:00,46.1,34.2,29.85,NNW,347,0.0,3.0,63,0.00,,---,0.00,VWS V14.01,2013-10-22 17:05:00,
2013-10-22 13:06:00,46.1,34.2,29.85,NNW,347,0.0,0.0,63,0.00,,---,0.00,VWS V14.01,2013-10-22 17:06:00,
2013-10-22 13:07:00,46.2,33.9,29.85,NNW,344,0.0,1.0,62,0.00,,---,0.00,VWS V14.01,2013-10-22 17:07:00,
2013-10-22 13:08:00,46.3,34.0,29.85,WNW,287,0.0,4.0,62,0.00,,---,0.00,VWS V14.01,2013-10-22 17:08:00,
2013-10-22 13:09:00,46.4,34.1,29.85,WNW,287,0.0,4.0,62,0.00,,---,0.00,VWS V14.01,2013-10-22 17:09:00,
2013-10-22 13:10:00,46.4,34.1,29.85,WNW,287,0.0,4.0,62,0.00,,---,0.00,VWS V14.01,2013-10-22 17:10:00,
2013-10-22 13:11:00,46.7,34.0,29.85,WNW,299,0.0,2.0,61,0.00,,---,0.00,VWS V14.01,2013-10-22 17:11:00,
2013-10-22 13:12:00,46.7,34.0,29.85,NNW,337,0.0,3.0,61,0.00,,---,0.00,VWS V14.01,2013-10-22 17:12:00,
2013-10-22 13:13:00,46.7,32.7,29.85,NNW,337,0.0,3.0,58,0.00,,---,0.00,VWS V14.01,2013-10-22 17:13:00,
2013-10-22 13:14:00,46.6,33.0,29.85,NNW,337,1.0,3.0,59,0.00,,---,0.00,VWS V14.01,2013-10-22 17:14:00,
2013-10-22 13:15:00,46.7,33.2,29.84,NNW,329,0.0,3.0,59,0.00,,---,0.00,VWS V14.01,2013-10-22 17:15:00,
2013-10-22 13:16:00,46.7,33.2,29.84,NNW,328,0.0,1.0,59,0.00,,---,0.00,VWS V14.01,2013-10-22 17:16:00,
2013-10-22 13:17:00,46.7,33.2,29.84,NW,305,3.0,3.0,59,0.00,,---,0.00,VWS V14.01,2013-10-22 17:17:00,
2013-10-22 13:18:00,46.7,33.2,29.84,WNW,292,0.0,5.0,59,0.00,,---,0.00,VWS V14.01,2013-10-22 17:18:00,
2013-10-22 13:19:00,46.6,33.0,29.84,WNW,287,0.0,5.0,59,0.00,,---,0.00,VWS V14.01,2013-10-22 17:19:00,
2013-10-22 13:20:00,46.7,33.6,29.84,WNW,287,0.0,5.0,60,0.00,,---,0.00,VWS V14.01,2013-10-22 17:20:00,
2013-10-22 13:21:00,46.9,35.4,29.84,WNW,287,0.0,1.0,64,0.00,,---,0.00,VWS V14.01,2013-10-22 17:21:00,
2013-10-22 13:22:00,47.0,34.7,29.84,WNW,287,0.0,1.0,62,0.00,,---,0.00,VWS V14.01,2013-10-22 17:22:00,
2013-10-22 13:23:00,47.2,34.5,29.84,North,350,0.0,2.0,61,0.00,,---,0.00,VWS V14.01,2013-10-22 17:23:00,
2013-10-22 13:24:00,47.2,34.0,29.84,NW,316,1.0,2.0,60,0.00,,---,0.00,VWS V14.01,2013-10-22 17:24:00,
2013-10-22 13:25:00,47.3,34.1,29.84,NW,324,0.0,2.0,60,0.00,,---,0.00,VWS V14.01,2013-10-22 17:25:00,
2013-10-22 13:26:00,47.4,34.6,29.84,WNW,302,1.0,2.0,61,0.00,,---,0.00,VWS V14.01,2013-10-22 17:26:00,
2013-10-22 13:27:00,47.4,33.8,29.84,WNW,302,0.0,4.0,59,0.00,,---,0.00,VWS V14.01,2013-10-22 17:27:00,
2013-10-22 13:28:00,47.2,33.6,29.84,NNW,336,0.0,4.0,59,0.00,,---,0.00,VWS V14.01,2013-10-22 17:28:00,
2013-10-22 13:29:00,47.1,33.5,29.84,NNE,18,2.0,5.0,59,0.00,,---,0.00,VWS V14.01,2013-10-22 17:29:00,
2013-10-22 13:30:00,47.0,33.4,29.84,South,191,0.0,5.0,59,0.00,,---,0.00,VWS V14.01,2013-10-22 17:30:00,
2013-10-22 13:31:00,47.0,33.4,29.84,NNE,27,0.0,4.0,59,0.00,,---,0.00,VWS V14.01,2013-10-22 17:31:00,
2013-10-22 13:32:00,46.9,33.3,29.84,North,4,0.0,4.0,59,0.00,,---,0.00,VWS V14.01,2013-10-22 17:32:00,
2013-10-22 13:33:00,47.0,33.8,29.84,West,264,0.0,4.0,60,0.00,,---,0.00,VWS V14.01,2013-10-22 17:33:00,
2013-10-22 13:34:00,47.1,33.1,29.84,WNW,290,2.0,4.0,58,0.00,,---,0.00,VWS V14.01,2013-10-22 17:34:00,
2013-10-22 13:35:00,47.0,33.0,29.84,North,0,2.0,4.0,58,0.00,,---,0.00,VWS V14.01,2013-10-22 17:35:00,
2013-10-22 13:36:00,47.0,33.0,29.84,North,1,0.0,1.0,58,0.00,,---,0.00,VWS V14.01,2013-10-22 17:36:00,
2013-10-22 13:37:00,46.9,32.9,29.84,North,1,0.0,1.0,58,0.00,,---,0.00,VWS V14.01,2013-10-22 17:37:00,
2013-10-22 13:38:00,47.1,33.5,29.84,WSW,257,0.0,2.0,59,0.00,,---,0.00,VWS V14.01,2013-10-22 17:38:00,
2013-10-22 13:39:00,47.1,33.1,29.84,WSW,257,0.0,2.0,58,0.00,,---,0.00,VWS V14.01,2013-10-22 17:39:00,
2013-10-22 13:40:00,47.2,33.6,29.84,WSW,257,0.0,2.0,59,0.00,,---,0.00,VWS V14.01,2013-10-22 17:40:00,
2013-10-22 13:41:00,47.2,33.2,29.84,NNW,342,2.0,2.0,58,0.00,,---,0.00,VWS V14.01,2013-10-22 17:41:00,
2013-10-22 13:42:00,47.3,33.3,29.84,WNW,298,2.0,4.0,58,0.00,,---,0.00,VWS V14.01,2013-10-22 17:42:00,
2013-10-22 13:43:00,47.4,33.4,29.84,WNW,298,0.0,4.0,58,0.00,,---,0.00,VWS V14.01,2013-10-22 17:43:00,
2013-10-22 13:44:00,47.5,33.9,29.84,NNW,328,0.0,4.0,59,0.00,,---,0.00,VWS V14.01,2013-10-22 17:44:00,
2013-10-22 13:45:00,47.6,33.6,29.83,NW,326,0.0,4.0,58,0.00,,---,0.00,VWS V14.01,2013-10-22 17:45:00,
2013-10-22 13:46:00,47.6,34.0,29.83,NW,326,0.0,1.0,59,0.00,,---,0.00,VWS V14.01,2013-10-22 17:46:00,
2013-10-22 13:47:00,47.7,34.1,29.83,NW,326,0.0,1.0,59,0.00,,---,0.00,VWS V14.01,2013-10-22 17:47:00,
2013-10-22 13:48:00,47.6,34.0,29.83,North,350,0.0,2.0,59,0.00,,---,0.00,VWS V14.01,2013-10-22 17:48:00,
2013-10-22 13:49:00,47.6,33.1,29.83,North,350,1.0,2.0,57,0.00,,---,0.00,VWS V14.01,2013-10-22 17:49:00,
2013-10-22 13:50:00,47.6,33.6,29.83,NW,321,4.0,4.0,58,0.00,,---,0.00,VWS V14.01,2013-10-22 17:50:00,
2013-10-22 13:51:00,47.7,33.2,29.83,NW,326,0.0,4.0,57,0.00,,---,0.00,VWS V14.01,2013-10-22 17:51:00,
2013-10-22 13:52:00,47.7,33.2,29.83,NW,305,4.0,4.0,57,0.00,,---,0.00,VWS V14.01,2013-10-22 17:52:00,
2013-10-22 13:53:00,47.7,33.2,29.83,North,2,6.0,6.0,57,0.00,,---,0.00,VWS V14.01,2013-10-22 17:53:00,
2013-10-22 13:54:00,47.7,32.8,29.83,North,1,0.0,6.0,56,0.00,,---,0.00,VWS V14.01,2013-10-22 17:54:00,
2013-10-22 13:55:00,47.6,32.7,29.83,North,1,0.0,6.0,56,0.00,,---,0.00,VWS V14.01,2013-10-22 17:55:00,
2013-10-22 13:56:00,47.6,34.0,29.83,NW,309,1.0,2.0,59,0.00,,---,0.00,VWS V14.01,2013-10-22 17:56:00,
2013-10-22 13:57:00,47.6,33.1,29.83,NW,310,0.0,3.0,57,0.00,,---,0.00,VWS V14.01,2013-10-22 17:57:00,
2013-10-22 13:58:00,47.6,33.1,29.83,NW,310,0.0,3.0,57,0.00,,---,0.00,VWS V14.01,2013-10-22 17:58:00,
2013-10-22 13:59:00,47.5,33.9,29.83,NW,310,1.0,3.0,59,0.00,,---,0.00,VWS V14.01,2013-10-22 17:59:00,
2013-10-22 14:00:00,47.4,33.0,29.83,NW,310,0.0,3.0,57,0.00,,---,0.00,VWS V14.01,2013-10-22 18:00:00,
2013-10-22 14:01:00,47.4,33.0,29.83,NW,310,0.0,1.0,57,0.00,,---,0.00,VWS V14.01,2013-10-22 18:01:00,
2013-10-22 14:02:00,47.3,32.8,29.83,NNW,345,0.0,1.0,57,0.00,,---,0.00,VWS V14.01,2013-10-22 18:02:00,
2013-10-22 14:03:00,47.3,32.8,29.83,NNW,345,0.0,1.0,57,0.00,,---,0.00,VWS V14.01,2013-10-22 18:03:00,
2013-10-22 14:04:00,47.2,33.2,29.83,NNW,345,0.0,1.0,58,0.00,,---,0.00,VWS V14.01,2013-10-22 18:04:00,
2013-10-22 14:05:00,47.2,33.2,29.83,NNW,345,0.0,1.0,58,0.00,,---,0.00,VWS V14.01,2013-10-22 18:05:00,
2013-10-22 14:06:00,47.1,33.1,29.83,WNW,294,0.0,2.0,58,0.00,,---,0.00,VWS V14.01,2013-10-22 18:06:00,
2013-10-22 14:07:00,47.1,33.1,29.83,WNW,294,0.0,2.0,58,0.00,,---,0.00,VWS V14.01,2013-10-22 18:07:00,
2013-10-22 14:08:00,47.1,33.1,29.83,WNW,294,0.0,2.0,58,0.00,,---,0.00,VWS V14.01,2013-10-22 18:08:00,
2013-10-22 14:09:00,47.0,32.6,29.83,WNW,294,0.0,2.0,57,0.00,,---,0.00,VWS V14.01,2013-10-22 18:09:00,
2013-10-22 14:10:00,47.0,33.0,29.83,WNW,294,0.0,2.0,58,0.00,,---,0.00,VWS V14.01,2013-10-22 18:10:00,
2013-10-22 14:11:00,47.0,33.0,29.83,WNW,294,0.0,0.0,58,0.00,,---,0.00,VWS V14.01,2013-10-22 18:11:00,
2013-10-22 14:12:00,47.0,33.0,29.83,WNW,294,0.0,1.0,58,0.00,,---,0.00,VWS V14.01,2013-10-22 18:12:00,
2013-10-22 14:13:00,46.9,32.9,29.83,WNW,294,0.0,1.0,58,0.00,,---,0.00,VWS V14.01,2013-10-22 18:13:00,
2013-10-22 14:14:00,46.9,32.9,29.83,WNW,301,0.0,2.0,58,0.00,,---,0.00,VWS V14.01,2013-10-22 18:14:00,
2013-10-22 14:15:00,46.8,32.8,29.82,NW,312,0.0,2.0,58,0.00,,---,0.00,VWS V14.01,2013-10-22 18:15:00,
2013-10-22 14:16:00,46.8,32.8,29.82,NW,312,0.0,0.0,58,0.00,,---,0.00,VWS V14.01,2013-10-22 18:16:00,
2013-10-22 14:17:00,46.8,33.2,29.82,NW,312,0.0,0.0,59,0.00,,---,0.00,VWS V14.01,2013-10-22 18:17:00,
2013-10-22 14:18:00,46.8,33.7,29.82,NW,312,0.0,1.0,60,0.00,,---,0.00,VWS V14.01,2013-10-22 18:18:00,
2013-10-22 14:19:00,46.9,34.2,29.82,NW,310,0.0,1.0,61,0.00,,---,0.00,VWS V14.01,2013-10-22 18:19:00,
2013-10-22 14:20:00,46.9,33.3,29.82,NW,317,0.0,2.0,59,0.00,,---,0.00,VWS V14.01,2013-10-22 18:20:00,
2013-10-22 14:21:00,46.8,33.2,29.82,NW,317,0.0,0.0,59,0.00,,---,0.00,VWS V14.01,2013-10-22 18:21:00,
2013-10-22 14:22:00,46.8,33.2,29.82,NW,320,0.0,0.0,59,0.00,,---,0.00,VWS V14.01,2013-10-22 18:22:00,
2013-10-22 14:23:00,46.7,32.7,29.82,NW,320,0.0,1.0,58,0.00,,---,0.00,VWS V14.01,2013-10-22 18:23:00,
2013-10-22 14:24:00,46.7,32.3,29.82,NW,320,0.0,1.0,57,0.00,,---,0.00,VWS V14.01,2013-10-22 18:24:00,
2013-10-22 14:25:00,46.6,33.0,29.82,NW,320,0.0,1.0,59,0.00,,---,0.00,VWS V14.01,2013-10-22 18:25:00,
2013-10-22 14:26:00,46.5,32.5,29.82,NW,320,0.0,1.0,58,0.00,,---,0.00,VWS V14.01,2013-10-22 18:26:00,
2013-10-22 14:27:00,46.5,32.5,29.82,NW,326,1.0,1.0,58,0.00,,---,0.00,VWS V14.01,2013-10-22 18:27:00,
2013-10-22 14:28:00,46.5,32.5,29.82,NNW,330,0.0,1.0,58,0.00,,---,0.00,VWS V14.01,2013-10-22 18:28:00,
2013-10-22 14:29:00,46.5,32.5,29.82,NNW,330,0.0,1.0,58,0.00,,---,0.00,VWS V14.01,2013-10-22 18:29:00,
2013-10-22 14:30:00,46.5,33.4,29.81,NNW,330,0.0,1.0,60,0.00,,---,0.00,VWS V14.01,2013-10-22 18:30:00,
2013-10-22 14:31:00,46.6,33.9,29.81,NNW,330,0.0,0.0,61,0.00,,---,0.00,VWS V14.01,2013-10-22 18:31:00,
2013-10-22 14:32:00,46.6,33.5,29.81,NNW,330,0.0,0.0,60,0.00,,---,0.00,VWS V14.01,2013-10-22 18:32:00,
2013-10-22 14:33:00,46.7,33.6,29.81,NNW,330,0.0,1.0,60,0.00,,---,0.00,VWS V14.01,2013-10-22 18:33:00,
2013-10-22 14:34:00,46.7,33.6,29.81,NNW,330,0.0,1.0,60,0.00,,---,0.00,VWS V14.01,2013-10-22 18:34:00,
2013-10-22 14:35:00,46.7,34.0,29.81,NNW,330,0.0,1.0,61,0.00,,---,0.00,VWS V14.01,2013-10-22 18:35:00,
2013-10-22 14:36:00,46.7,34.0,29.81,NNW,330,0.0,0.0,61,0.00,,---,0.00,VWS V14.01,2013-10-22 18:36:00,
2013-10-22 14:37:00,46.7,34.0,29.81,NNW,330,0.0,0.0,61,0.00,,---,0.00,VWS V14.01,2013-10-22 18:37:00,
2013-10-22 14:38:00,46.7,33.6,29.81,NNW,330,0.0,0.0,60,0.00,,---,0.00,VWS V14.01,2013-10-22 18:38:00,
2013-10-22 14:39:00,46.7,33.6,29.81,NNW,330,0.0,0.0,60,0.00,,---,0.00,VWS V14.01,2013-10-22 18:39:00,
2013-10-22 14:40:00,46.7,33.6,29.81,NNW,330,0.0,0.0,60,0.00,,---,0.00,VWS V14.01,2013-10-22 18:40:00,
2013-10-22 14:41:00,46.7,34.0,29.81,NNW,330,0.0,1.0,61,0.00,,---,0.00,VWS V14.01,2013-10-22 18:41:00,
2013-10-22 14:42:00,46.7,33.2,29.81,NNW,330,0.0,1.0,59,0.00,,---,0.00,VWS V14.01,2013-10-22 18:42:00,
2013-10-22 14:43:00,46.6,33.0,29.81,NNW,330,0.0,1.0,59,0.00,,---,0.00,VWS V14.01,2013-10-22 18:43:00,
2013-10-22 14:44:00,46.5,32.1,29.81,NNW,330,0.0,1.0,57,0.00,,---,0.00,VWS V14.01,2013-10-22 18:44:00,
2013-10-22 14:45:00,46.5,33.0,29.81,NNW,330,0.0,1.0,59,0.00,,---,0.00,VWS V14.01,2013-10-22 18:45:00,
2013-10-22 14:46:00,46.4,33.3,29.81,NNW,330,0.0,0.0,60,0.00,,---,0.00,VWS V14.01,2013-10-22 18:46:00,
2013-10-22 14:47:00,46.4,33.3,29.81,NNW,330,0.0,0.0,60,0.00,,---,0.00,VWS V14.01,2013-10-22 18:47:00,
2013-10-22 14:48:00,46.4,32.4,29.81,NNW,330,0.0,1.0,58,0.00,,---,0.00,VWS V14.01,2013-10-22 18:48:00,
2013-10-22 14:49:00,46.4,32.4,29.81,NNW,330,1.0,1.0,58,0.00,,---,0.00,VWS V14.01,2013-10-22 18:49:00,
2013-10-22 14:50:00,46.4,32.4,29.81,NNW,331,0.0,1.0,58,0.00,,---,0.00,VWS V14.01,2013-10-22 18:50:00,
2013-10-22 14:51:00,46.4,32.4,29.81,NNW,331,0.0,0.0,58,0.00,,---,0.00,VWS V14.01,2013-10-22 18:51:00,
2013-10-22 14:52:00,46.4,32.9,29.81,NNW,331,0.0,0.0,59,0.00,,---,0.00,VWS V14.01,2013-10-22 18:52:00,
2013-10-22 14:53:00,46.4,32.9,29.81,NNW,331,0.0,0.0,59,0.00,,---,0.00,VWS V14.01,2013-10-22 18:53:00,
2013-10-22 14:54:00,46.5,33.4,29.81,NNW,331,0.0,0.0,60,0.00,,---,0.00,VWS V14.01,2013-10-22 18:54:00,
2013-10-22 14:55:00,46.5,33.0,29.81,NNW,331,0.0,0.0,59,0.00,,---,0.00,VWS V14.01,2013-10-22 18:55:00,
2013-10-22 14:56:00,46.5,32.5,29.81,NNW,331,0.0,0.0,58,0.00,,---,0.00,VWS V14.01,2013-10-22 18:56:00,
2013-10-22 14:57:00,46.5,33.0,29.81,NNW,331,0.0,0.0,59,0.00,,---,0.00,VWS V14.01,2013-10-22 18:57:00,
2013-10-22 14:58:00,46.4,32.4,29.81,NNW,331,0.0,0.0,58,0.00,,---,0.00,VWS V14.01,2013-10-22 18:58:00,
2013-10-22 14:59:00,46.4,32.4,29.81,NNW,331,0.0,0.0,58,0.00,,---,0.00,VWS V14.01,2013-10-22 18:59:00,
2013-10-22 15:00:00,46.3,32.3,29.81,NNW,331,0.0,0.0,58,0.00,,---,0.00,VWS V14.01,2013-10-22 19:00:00,
2013-10-22 15:01:00,46.3,31.9,29.81,NNW,331,0.0,1.0,57,0.00,,---,0.00,VWS V14.01,2013-10-22 19:01:00,
2013-10-22 15:02:00,46.3,31.9,29.81,NNW,331,0.0,1.0,57,0.00,,---,0.00,VWS V14.01,2013-10-22 19:02:00,
2013-10-22 15:03:00,46.3,31.9,29.81,NNW,331,0.0,1.0,57,0.00,,---,0.00,VWS V14.01,2013-10-22 19:03:00,
2013-10-22 15:04:00,46.3,32.8,29.81,NNW,331,0.0,1.0,59,0.00,,---,0.00,VWS V14.01,2013-10-22 19:04:00,
2013-10-22 15:05:00,46.3,33.2,29.81,NNW,331,0.0,1.0,60,0.00,,---,0.00,VWS V14.01,2013-10-22 19:05:00,
2013-10-22 15:06:00,46.4,34.1,29.81,NNW,331,1.0,1.0,62,0.00,,---,0.00,VWS V14.01,2013-10-22 19:06:00,
2013-10-22 15:07:00,46.4,33.3,29.81,NNW,331,0.0,1.0,60,0.00,,---,0.00,VWS V14.01,2013-10-22 19:07:00,
2013-10-22 15:08:00,46.4,32.4,29.81,NNW,331,0.0,1.0,58,0.00,,---,0.00,VWS V14.01,2013-10-22 19:08:00,
2013-10-22 15:09:00,46.4,32.4,29.81,NNW,331,0.0,1.0,58,0.00,,---,0.00,VWS V14.01,2013-10-22 19:09:00,
2013-10-22 15:10:00,46.4,32.9,29.81,NNW,331,0.0,1.0,59,0.00,,---,0.00,VWS V14.01,2013-10-22 19:10:00,
2013-10-22 15:11:00,46.4,32.9,29.81,NNW,331,0.0,0.0,59,0.00,,---,0.00,VWS V14.01,2013-10-22 19:11:00,
2013-10-22 15:12:00,46.4,32.9,29.81,NNW,331,1.0,2.0,59,0.00,,---,0.00,VWS V14.01,2013-10-22 19:12:00,
2013-10-22 15:13:00,46.4,32.4,29.81,NNW,331,0.0,2.0,58,0.00,,---,0.00,VWS V14.01,2013-10-22 19:13:00,
2013-10-22 15:14:00,46.4,32.9,29.81,NNW,331,0.0,2.0,59,0.00,,---,0.00,VWS V14.01,2013-10-22 19:14:00,
2013-10-22 15:15:00,46.4,32.9,29.82,NNW,331,0.0,2.0,59,0.00,,---,0.00,VWS V14.01,2013-10-22 19:15:00,
2013-10-22 15:16:00,46.4,32.0,29.82,NNW,331,0.0,0.0,57,0.00,,---,0.00,VWS V14.01,2013-10-22 19:16:00,
2013-10-22 15:17:00,46.4,32.4,29.82,NNW,331,0.0,0.0,58,0.00,,---,0.00,VWS V14.01,2013-10-22 19:17:00,
2013-10-22 15:18:00,46.3,32.3,29.82,NNW,331,0.0,0.0,58,0.00,,---,0.00,VWS V14.01,2013-10-22 19:18:00,
2013-10-22 15:19:00,46.3,31.9,29.82,NNW,331,0.0,0.0,57,0.00,,---,0.00,VWS V14.01,2013-10-22 19:19:00,
2013-10-22 15:20:00,46.2,31.8,29.82,NNW,331,0.0,0.0,57,0.00,,---,0.00,VWS V14.01,2013-10-22 19:20:00,
2013-10-22 15:21:00,46.2,31.4,29.82,NNW,331,0.0,0.0,56,0.00,,---,0.00,VWS V14.01,2013-10-22 19:21:00,
2013-10-22 15:22:00,46.1,31.3,29.82,NNW,331,1.0,1.0,56,0.00,,---,0.00,VWS V14.01,2013-10-22 19:22:00,
2013-10-22 15:23:00,46.1,31.7,29.82,NNW,331,0.0,1.0,57,0.00,,---,0.00,VWS V14.01,2013-10-22 19:23:00,
2013-10-22 15:24:00,46.1,32.2,29.82,NNW,331,0.0,1.0,58,0.00,,---,0.00,VWS V14.01,2013-10-22 19:24:00,
2013-10-22 15:25:00,46.1,31.7,29.82,NNW,331,0.0,1.0,57,0.00,,---,0.00,VWS V14.01,2013-10-22 19:25:00,
2013-10-22 15:26:00,46.1,31.3,29.82,NNW,331,0.0,0.0,56,0.00,,---,0.00,VWS V14.01,2013-10-22 19:26:00,
2013-10-22 15:27:00,46.1,31.3,29.82,NNW,331,1.0,1.0,56,0.00,,---,0.00,VWS V14.01,2013-10-22 19:27:00,
2013-10-22 15:28:00,46.1,31.7,29.82,NW,314,0.0,3.0,57,0.00,,---,0.00,VWS V14.01,2013-10-22 19:28:00,
2013-10-22 15:29:00,46.1,30.9,29.82,NW,314,0.0,3.0,55,0.00,,---,0.00,VWS V14.01,2013-10-22 19:29:00,
2013-10-22 15:30:00,46.1,30.9,29.82,NW,314,0.0,3.0,55,0.00,,---,0.00,VWS V14.01,2013-10-22 19:30:00,
2013-10-22 15:31:00,46.1,31.7,29.82,NW,314,0.0,0.0,57,0.00,,---,0.00,VWS V14.01,2013-10-22 19:31:00,
2013-10-22 15:32:00,46.1,31.3,29.82,NW,314,0.0,0.0,56,0.00,,---,0.00,VWS V14.01,2013-10-22 19:32:00,
2013-10-22 15:33:00,46.1,31.3,29.82,NW,314,0.0,1.0,56,0.00,,---,0.00,VWS V14.01,2013-10-22 19:33:00,
2013-10-22 15:34:00,46.1,30.9,29.82,NW,314,0.0,1.0,55,0.00,,---,0.00,VWS V14.01,2013-10-22 19:34:00,
2013-10-22 15:35:00,46.1,30.9,29.82,NW,315,0.0,1.0,55,0.00,,---,0.00,VWS V14.01,2013-10-22 19:35:00,
2013-10-22 15:36:00,46.1,31.3,29.82,NW,315,0.0,0.0,56,0.00,,---,0.00,VWS V14.01,2013-10-22 19:36:00,
2013-10-22 15:37:00,46.0,31.2,29.82,NW,323,1.0,1.0,56,0.00,,---,0.00,VWS V14.01,2013-10-22 19:37:00,
2013-10-22 15:38:00,46.0,30.8,29.82,NW,323,0.0,1.0,55,0.00,,---,0.00,VWS V14.01,2013-10-22 19:38:00,
2013-10-22 15:39:00,46.0,31.2,29.82,NW,323,0.0,1.0,56,0.00,,---,0.00,VWS V14.01,2013-10-22 19:39:00,
2013-10-22 15:40:00,46.0,31.6,29.82,NW,326,1.0,1.0,57,0.00,,---,0.00,VWS V14.01,2013-10-22 19:40:00,
2013-10-22 15:41:00,46.0,32.1,29.82,NW,326,0.0,1.0,58,0.00,,---,0.00,VWS V14.01,2013-10-22 19:41:00,
2013-10-22 15:42:00,46.1,32.2,29.82,NW,326,0.0,1.0,58,0.00,,---,0.00,VWS V14.01,2013-10-22 19:42:00,
2013-10-22 15:43:00,46.0,32.1,29.82,NW,326,0.0,1.0,58,0.00,,---,0.00,VWS V14.01,2013-10-22 19:43:00,
2013-10-22 15:44:00,46.0,32.1,29.82,NW,326,0.0,1.0,58,0.00,,---,0.00,VWS V14.01,2013-10-22 19:44:00,
2013-10-22 15:45:00,46.1,32.6,29.82,NW,326,0.0,1.0,59,0.00,,---,0.00,VWS V14.01,2013-10-22 19:45:00,
2013-10-22 15:46:00,46.1,32.6,29.82,NW,326,0.0,0.0,59,0.00,,---,0.00,VWS V14.01,2013-10-22 19:46:00,
2013-10-22 15:47:00,46.1,33.4,29.82,NW,323,0.0,1.0,61,0.00,,---,0.00,VWS V14.01,2013-10-22 19:47:00,
2013-10-22 15:48:00,46.1,33.0,29.82,NW,323,0.0,1.0,60,0.00,,---,0.00,VWS V14.01,2013-10-22 19:48:00,
2013-10-22 15:49:00,46.0,32.9,29.82,NW,323,0.0,1.0,60,0.00,,---,0.00,VWS V14.01,2013-10-22 19:49:00,
2013-10-22 15:50:00,46.0,33.3,29.82,NW,323,0.0,1.0,61,0.00,,---,0.00,VWS V14.01,2013-10-22 19:50:00,
2013-10-22 15:51:00,46.0,32.9,29.82,NW,323,0.0,0.0,60,0.00,,---,0.00,VWS V14.01,2013-10-22 19:51:00,
2013-10-22 15:52:00,46.0,33.7,29.82,NW,323,0.0,0.0,62,0.00,,---,0.00,VWS V14.01,2013-10-22 19:52:00,
2013-10-22 15:53:00,46.0,33.7,29.82,NW,323,0.0,0.0,62,0.00,,---,0.00,VWS V14.01,2013-10-22 19:53:00,
2013-10-22 15:54:00,46.0,33.7,29.82,NW,323,0.0,1.0,62,0.00,,---,0.00,VWS V14.01,2013-10-22 19:54:00,
2013-10-22 15:55:00,45.9,33.6,29.82,NW,323,0.0,1.0,62,0.00,,---,0.00,VWS V14.01,2013-10-22 19:55:00,
2013-10-22 15:56:00,45.9,33.2,29.82,NW,323,0.0,1.0,61,0.00,,---,0.00,VWS V14.01,2013-10-22 19:56:00,
2013-10-22 15:57:00,45.8,33.5,29.82,NW,323,0.0,1.0,62,0.00,,---,0.00,VWS V14.01,2013-10-22 19:57:00,
2013-10-22 15:58:00,45.8,33.5,29.82,NW,323,0.0,1.0,62,0.00,,---,0.00,VWS V14.01,2013-10-22 19:58:00,
2013-10-22 15:59:00,45.8,33.9,29.82,NW,323,0.0,1.0,63,0.00,,---,0.00,VWS V14.01,2013-10-22 19:59:00,
2013-10-22 16:00:00,45.8,33.9,29.82,WNW,293,3.0,3.0,63,0.00,,---,0.00,VWS V14.01,2013-10-22 20:00:00,
2013-10-22 16:01:00,45.7,33.4,29.82,WNW,292,0.0,3.0,62,0.00,,---,0.00,VWS V14.01,2013-10-22 20:01:00,
2013-10-22 16:02:00,45.7,33.4,29.82,WNW,292,0.0,3.0,62,0.00,,---,0.00,VWS V14.01,2013-10-22 20:02:00,
2013-10-22 16:03:00,45.6,33.3,29.82,WNW,292,1.0,3.0,62,0.00,,---,0.00,VWS V14.01,2013-10-22 20:03:00,
2013-10-22 16:04:00,45.6,33.8,29.82,WNW,292,1.0,3.0,63,0.00,,---,0.00,VWS V14.01,2013-10-22 20:04:00,
2013-10-22 16:05:00,45.6,33.8,29.82,WNW,292,0.0,3.0,63,0.00,,---,0.00,VWS V14.01,2013-10-22 20:05:00,
2013-10-22 16:06:00,45.6,33.3,29.82,West,279,0.0,1.0,62,0.00,,---,0.00,VWS V14.01,2013-10-22 20:06:00,
2013-10-22 16:07:00,45.6,33.3,29.82,West,280,1.0,2.0,62,0.00,,---,0.00,VWS V14.01,2013-10-22 20:07:00,
2013-10-22 16:08:00,45.6,33.8,29.82,West,274,0.0,2.0,63,0.00,,---,0.00,VWS V14.01,2013-10-22 20:08:00,
2013-10-22 16:09:00,45.5,33.2,29.82,West,274,0.0,2.0,62,0.00,,---,0.00,VWS V14.01,2013-10-22 20:09:00,
2013-10-22 16:10:00,45.5,33.2,29.82,West,265,1.0,3.0,62,0.00,,---,0.00,VWS V14.01,2013-10-22 20:10:00,
2013-10-22 16:11:00,45.5,33.2,29.82,WNW,285,0.0,1.0,62,0.00,,---,0.00,VWS V14.01,2013-10-22 20:11:00,
2013-10-22 16:12:00,45.4,33.2,29.82,WNW,284,0.0,1.0,62,0.00,,---,0.00,VWS V14.01,2013-10-22 20:12:00,
2013-10-22 16:13:00,45.4,33.2,29.82,WNW,284,0.0,1.0,62,0.00,,---,0.00,VWS V14.01,2013-10-22 20:13:00,
2013-10-22 16:14:00,45.4,33.2,29.82,West,274,0.0,3.0,62,0.00,,---,0.00,VWS V14.01,2013-10-22 20:14:00,
2013-10-22 16:15:00,45.4,33.2,29.83,West,274,0.0,3.0,62,0.00,,---,0.00,VWS V14.01,2013-10-22 20:15:00,
2013-10-22 16:16:00,45.3,33.1,29.83,West,274,0.0,0.0,62,0.00,,---,0.00,VWS V14.01,2013-10-22 20:16:00,
2013-10-22 16:17:00,45.3,33.1,29.83,West,274,0.0,0.0,62,0.00,,---,0.00,VWS V14.01,2013-10-22 20:17:00,
2013-10-22 16:18:00,45.2,33.4,29.83,West,274,0.0,1.0,63,0.00,,---,0.00,VWS V14.01,2013-10-22 20:18:00,
2013-10-22 16:19:00,45.2,33.4,29.83,West,260,3.0,3.0,63,0.00,,---,0.00,VWS V14.01,2013-10-22 20:19:00,
2013-10-22 16:20:00,45.2,33.0,29.83,West,262,1.0,3.0,62,0.00,,---,0.00,VWS V14.01,2013-10-22 20:20:00,
2013-10-22 16:21:00,45.2,33.0,29.83,WNW,297,1.0,1.0,62,0.00,,---,0.00,VWS V14.01,2013-10-22 20:21:00,
2013-10-22 16:22:00,45.1,32.9,29.83,WNW,288,1.0,1.0,62,0.00,,---,0.00,VWS V14.01,2013-10-22 20:22:00,
2013-10-22 16:23:00,45.1,32.9,29.83,WNW,288,0.0,2.0,62,0.00,,---,0.00,VWS V14.01,2013-10-22 20:23:00,
2013-10-22 16:24:00,45.0,32.8,29.83,WNW,288,0.0,2.0,62,0.00,,---,0.00,VWS V14.01,2013-10-22 20:24:00,
2013-10-22 16:25:00,45.0,33.2,29.83,WNW,288,0.0,2.0,63,0.00,,---,0.00,VWS V14.01,2013-10-22 20:25:00,
2013-10-22 16:26:00,45.0,33.6,29.83,WNW,288,0.0,1.0,64,0.00,,---,0.00,VWS V14.01,2013-10-22 20:26:00,
2013-10-22 16:27:00,44.9,33.1,29.83,WNW,288,0.0,1.0,63,0.00,,---,0.00,VWS V14.01,2013-10-22 20:27:00,
2013-10-22 16:28:00,44.9,33.1,29.83,WNW,288,0.0,1.0,63,0.00,,---,0.00,VWS V14.01,2013-10-22 20:28:00,
2013-10-22 16:29:00,44.9,33.1,29.83,WNW,288,0.0,1.0,63,0.00,,---,0.00,VWS V14.01,2013-10-22 20:29:00,
2013-10-22 16:30:00,44.8,33.0,29.83,NW,314,3.0,3.0,63,0.00,,---,0.00,VWS V14.01,2013-10-22 20:30:00,
2013-10-22 16:31:00,44.8,33.0,29.83,NW,304,1.0,5.0,63,0.00,,---,0.00,VWS V14.01,2013-10-22 20:31:00,
2013-10-22 16:32:00,44.7,32.5,29.83,NW,304,0.0,5.0,62,0.00,,---,0.00,VWS V14.01,2013-10-22 20:32:00,
2013-10-22 16:33:00,44.7,32.9,29.83,NNW,344,0.0,5.0,63,0.00,,---,0.00,VWS V14.01,2013-10-22 20:33:00,
2013-10-22 16:34:00,44.7,32.9,29.83,NNW,344,0.0,5.0,63,0.00,,---,0.00,VWS V14.01,2013-10-22 20:34:00,
2013-10-22 16:35:00,44.7,32.9,29.83,NNW,344,0.0,5.0,63,0.00,,---,0.00,VWS V14.01,2013-10-22 20:35:00,
2013-10-22 16:36:00,44.6,32.8,29.83,NNW,344,0.0,0.0,63,0.00,,---,0.00,VWS V14.01,2013-10-22 20:36:00,
2013-10-22 16:37:00,44.6,33.2,29.83,NNW,344,0.0,1.0,64,0.00,,---,0.00,VWS V14.01,2013-10-22 20:37:00,
2013-10-22 16:38:00,44.6,33.2,29.83,NW,321,4.0,4.0,64,0.00,,---,0.00,VWS V14.01,2013-10-22 20:38:00,
2013-10-22 16:39:00,44.6,33.2,29.83,NW,312,0.0,4.0,64,0.00,,---,0.00,VWS V14.01,2013-10-22 20:39:00,
2013-10-22 16:40:00,44.5,32.3,29.83,NW,323,0.0,4.0,62,0.00,,---,0.00,VWS V14.01,2013-10-22 20:40:00,
2013-10-22 16:41:00,44.5,31.9,29.83,NW,319,0.0,0.0,61,0.00,,---,0.00,VWS V14.01,2013-10-22 20:41:00,
2013-10-22 16:42:00,44.5,31.9,29.83,SE,133,0.0,1.0,61,0.00,,---,0.00,VWS V14.01,2013-10-22 20:42:00,
2013-10-22 16:43:00,44.4,31.8,29.83,WNW,284,2.0,3.0,61,0.00,,---,0.00,VWS V14.01,2013-10-22 20:43:00,
2013-10-22 16:44:00,44.4,32.2,29.83,NW,307,0.0,3.0,62,0.00,,---,0.00,VWS V14.01,2013-10-22 20:44:00,
2013-10-22 16:45:00,44.3,31.7,29.84,NW,307,0.0,3.0,61,0.00,,---,0.00,VWS V14.01,2013-10-22 20:45:00,
2013-10-22 16:46:00,44.3,32.1,29.84,NW,307,0.0,0.0,62,0.00,,---,0.00,VWS V14.01,2013-10-22 20:46:00,
2013-10-22 16:47:00,44.3,32.1,29.84,NW,309,0.0,0.0,62,0.00,,---,0.00,VWS V14.01,2013-10-22 20:47:00,
2013-10-22 16:48:00,44.2,32.0,29.84,NW,309,0.0,0.0,62,0.00,,---,0.00,VWS V14.01,2013-10-22 20:48:00,
2013-10-22 16:49:00,44.2,32.4,29.84,NNE,31,0.0,1.0,63,0.00,,---,0.00,VWS V14.01,2013-10-22 20:49:00,
2013-10-22 16:50:00,44.1,32.3,29.84,NNE,30,0.0,1.0,63,0.00,,---,0.00,VWS V14.01,2013-10-22 20:50:00,
2013-10-22 16:51:00,44.1,32.3,29.84,West,278,2.0,2.0,63,0.00,,---,0.00,VWS V14.01,2013-10-22 20:51:00,
2013-10-22 16:52:00,44.0,32.2,29.84,WNW,283,0.0,2.0,63,0.00,,---,0.00,VWS V14.01,2013-10-22 20:52:00,
2013-10-22 16:53:00,44.0,32.6,29.84,WNW,286,0.0,2.0,64,0.00,,---,0.00,VWS V14.01,2013-10-22 20:53:00,
2013-10-22 16:54:00,44.0,32.6,29.84,NW,315,8.0,8.0,64,0.00,,---,0.00,VWS V14.01,2013-10-22 20:54:00,
2013-10-22 16:55:00,43.9,32.5,29.84,West,264,0.0,8.0,64,0.00,,---,0.00,VWS V14.01,2013-10-22 20:55:00,
2013-10-22 16:56:00,43.8,32.4,29.84,West,264,0.0,0.0,64,0.00,,---,0.00,VWS V14.01,2013-10-22 20:56:00,
2013-10-22 16:57:00,43.8,32.8,29.84,WNW,295,0.0,2.0,65,0.00,,---,0.00,VWS V14.01,2013-10-22 20:57:00,
2013-10-22 16:58:00,43.7,32.3,29.84,WNW,296,0.0,2.0,64,0.00,,---,0.00,VWS V14.01,2013-10-22 20:58:00,
2013-10-22 16:59:00,43.7,32.7,29.84,WNW,296,0.0,2.0,65,0.00,,---,0.00,VWS V14.01,2013-10-22 20:59:00,
2013-10-22 17:00:00,43.6,32.6,29.84,WSW,258,0.0,2.0,65,0.00,,---,0.00,VWS V14.01,2013-10-22 21:00:00,
2013-10-22 17:01:00,43.6,32.6,29.84,WSW,258,0.0,0.0,65,0.00,,---,0.00,VWS V14.01,2013-10-22 21:01:00,
2013-10-22 17:02:00,43.5,32.5,29.84,WNW,286,1.0,1.0,65,0.00,,---,0.00,VWS V14.01,2013-10-22 21:02:00,
2013-10-22 17:03:00,43.5,32.5,29.84,West,273,0.0,3.0,65,0.00,,---,0.00,VWS V14.01,2013-10-22 21:03:00,
2013-10-22 17:04:00,43.4,32.8,29.84,West,273,0.0,3.0,66,0.00,,---,0.00,VWS V14.01,2013-10-22 21:04:00,
2013-10-22 17:05:00,43.3,32.7,29.84,WSW,255,0.0,3.0,66,0.00,,---,0.00,VWS V14.01,2013-10-22 21:05:00,
2013-10-22 17:06:00,43.3,32.7,29.84,West,280,0.0,1.0,66,0.00,,---,0.00,VWS V14.01,2013-10-22 21:06:00,
2013-10-22 17:07:00,43.2,33.0,29.84,West,280,0.0,1.0,67,0.00,,---,0.00,VWS V14.01,2013-10-22 21:07:00,
2013-10-22 17:08:00,43.1,33.3,29.84,West,280,0.0,1.0,68,0.00,,---,0.00,VWS V14.01,2013-10-22 21:08:00,
2013-10-22 17:09:00,43.1,33.3,29.84,NE,49,0.0,1.0,68,0.00,,---,0.00,VWS V14.01,2013-10-22 21:09:00,
2013-10-22 17:10:00,43.0,33.5,29.84,NE,49,0.0,1.0,69,0.00,,---,0.00,VWS V14.01,2013-10-22 21:10:00,
2013-10-22 17:11:00,42.9,33.4,29.84,NE,47,0.0,1.0,69,0.00,,---,0.00,VWS V14.01,2013-10-22 21:11:00,
2013-10-22 17:12:00,42.9,33.4,29.84,NE,47,0.0,1.0,69,0.00,,---,0.00,VWS V14.01,2013-10-22 21:12:00,
2013-10-22 17:13:00,42.8,33.3,29.84,NE,47,0.0,1.0,69,0.00,,---,0.00,VWS V14.01,2013-10-22 21:13:00,
2013-10-22 17:14:00,42.7,33.6,29.84,North,359,0.0,2.0,70,0.00,,---,0.00,VWS V14.01,2013-10-22 21:14:00,
2013-10-22 17:15:00,42.7,33.6,29.85,NNW,335,0.0,2.0,70,0.00,,---,0.00,VWS V14.01,2013-10-22 21:15:00,
2013-10-22 17:16:00,42.6,33.5,29.85,NNW,335,0.0,1.0,70,0.00,,---,0.00,VWS V14.01,2013-10-22 21:16:00,
2013-10-22 17:17:00,42.5,33.8,29.85,NNW,335,0.0,1.0,71,0.00,,---,0.00,VWS V14.01,2013-10-22 21:17:00,
2013-10-22 17:18:00,42.5,33.8,29.85,NW,321,0.0,2.0,71,0.00,,---,0.00,VWS V14.01,2013-10-22 21:18:00,
2013-10-22 17:19:00,42.4,34.0,29.85,NW,321,0.0,2.0,72,0.00,,---,0.00,VWS V14.01,2013-10-22 21:19:00,
2013-10-22 17:20:00,42.4,34.0,29.85,NW,321,0.0,2.0,72,0.00,,---,0.00,VWS V14.01,2013-10-22 21:20:00,
2013-10-22 17:21:00,42.3,33.9,29.85,NW,321,0.0,1.0,72,0.00,,---,0.00,VWS V14.01,2013-10-22 21:21:00,
2013-10-22 17:22:00,42.3,34.3,29.85,NW,321,0.0,1.0,73,0.00,,---,0.00,VWS V14.01,2013-10-22 21:22:00,
2013-10-22 17:23:00,42.2,34.2,29.85,NW,321,0.0,1.0,73,0.00,,---,0.00,VWS V14.01,2013-10-22 21:23:00,
2013-10-22 17:24:00,42.1,34.1,29.85,NW,319,0.0,1.0,73,0.00,,---,0.00,VWS V14.01,2013-10-22 21:24:00,
2013-10-22 17:25:00,42.0,34.3,29.85,NW,319,0.0,1.0,74,0.00,,---,0.00,VWS V14.01,2013-10-22 21:25:00,
2013-10-22 17:26:00,42.0,34.3,29.85,NNE,27,0.0,2.0,74,0.00,,---,0.00,VWS V14.01,2013-10-22 21:26:00,
2013-10-22 17:27:00,41.9,34.2,29.85,NNE,27,0.0,2.0,74,0.00,,---,0.00,VWS V14.01,2013-10-22 21:27:00,
2013-10-22 17:28:00,41.9,34.6,29.85,NNE,27,0.0,2.0,75,0.00,,---,0.00,VWS V14.01,2013-10-22 21:28:00,
2013-10-22 17:29:00,41.8,34.5,29.85,NNW,347,1.0,2.0,75,0.00,,---,0.00,VWS V14.01,2013-10-22 21:29:00,
2013-10-22 17:30:00,41.8,34.5,29.85,NNW,345,0.0,2.0,75,0.00,,---,0.00,VWS V14.01,2013-10-22 21:30:00,
2013-10-22 17:31:00,41.7,34.4,29.85,NNW,345,0.0,0.0,75,0.00,,---,0.00,VWS V14.01,2013-10-22 21:31:00,
2013-10-22 17:32:00,41.6,34.3,29.85,NNW,345,0.0,0.0,75,0.00,,---,0.00,VWS V14.01,2013-10-22 21:32:00,
2013-10-22 17:33:00,41.6,34.6,29.85,NNW,345,0.0,0.0,76,0.00,,---,0.00,VWS V14.01,2013-10-22 21:33:00,
2013-10-22 17:34:00,41.6,34.6,29.85,NNW,345,0.0,0.0,76,0.00,,---,0.00,VWS V14.01,2013-10-22 21:34:00,
2013-10-22 17:35:00,41.5,34.5,29.85,NNW,345,0.0,0.0,76,0.00,,---,0.00,VWS V14.01,2013-10-22 21:35:00,
2013-10-22 17:36:00,41.5,34.8,29.85,NNW,345,0.0,0.0,77,0.00,,---,0.00,VWS V14.01,2013-10-22 21:36:00,
2013-10-22 17:37:00,41.5,34.8,29.85,NNW,345,0.0,1.0,77,0.00,,---,0.00,VWS V14.01,2013-10-22 21:37:00,
2013-10-22 17:38:00,41.4,34.7,29.85,NNW,345,0.0,1.0,77,0.00,,---,0.00,VWS V14.01,2013-10-22 21:38:00,
2013-10-22 17:39:00,41.4,35.1,29.85,NNW,345,0.0,1.0,78,0.00,,---,0.00,VWS V14.01,2013-10-22 21:39:00,
2013-10-22 17:40:00,41.3,35.0,29.85,NNW,345,0.0,1.0,78,0.00,,---,0.00,VWS V14.01,2013-10-22 21:40:00,
2013-10-22 17:41:00,41.3,35.0,29.85,NNW,345,0.0,0.0,78,0.00,,---,0.00,VWS V14.01,2013-10-22 21:41:00,
2013-10-22 17:42:00,41.3,35.0,29.85,NNW,345,0.0,0.0,78,0.00,,---,0.00,VWS V14.01,2013-10-22 21:42:00,
2013-10-22 17:43:00,41.3,35.0,29.85,NNW,345,0.0,0.0,78,0.00,,---,0.00,VWS V14.01,2013-10-22 21:43:00,
2013-10-22 17:44:00,41.3,35.0,29.85,NNW,345,0.0,0.0,78,0.00,,---,0.00,VWS V14.01,2013-10-22 21:44:00,
2013-10-22 17:45:00,41.2,34.9,29.85,NNW,345,0.0,0.0,78,0.00,,---,0.00,VWS V14.01,2013-10-22 21:45:00,
2013-10-22 17:46:00,41.2,34.9,29.85,NNW,345,0.0,0.0,78,0.00,,---,0.00,VWS V14.01,2013-10-22 21:46:00,
2013-10-22 17:47:00,41.1,34.8,29.85,NNW,345,0.0,0.0,78,0.00,,---,0.00,VWS V14.01,2013-10-22 21:47:00,
2013-10-22 17:48:00,41.1,35.1,29.85,NNW,345,0.0,0.0,79,0.00,,---,0.00,VWS V14.01,2013-10-22 21:48:00,
2013-10-22 17:49:00,41.1,35.1,29.85,NNW,345,0.0,0.0,79,0.00,,---,0.00,VWS V14.01,2013-10-22 21:49:00,
2013-10-22 17:50:00,41.1,35.1,29.85,NNW,345,0.0,0.0,79,0.00,,---,0.00,VWS V14.01,2013-10-22 21:50:00,
2013-10-22 17:51:00,41.0,35.0,29.85,NNW,345,0.0,0.0,79,0.00,,---,0.00,VWS V14.01,2013-10-22 21:51:00,
2013-10-22 17:52:00,41.0,35.0,29.85,NNW,345,0.0,0.0,79,0.00,,---,0.00,VWS V14.01,2013-10-22 21:52:00,
2013-10-22 17:53:00,41.0,35.0,29.85,NNW,345,0.0,0.0,79,0.00,,---,0.00,VWS V14.01,2013-10-22 21:53:00,
2013-10-22 17:54:00,41.0,35.3,29.85,NNW,345,0.0,0.0,80,0.00,,---,0.00,VWS V14.01,2013-10-22 21:54:00,
2013-10-22 17:55:00,40.9,35.2,29.85,NNW,345,0.0,0.0,80,0.00,,---,0.00,VWS V14.01,2013-10-22 21:55:00,
2013-10-22 17:56:00,40.9,35.2,29.85,NNW,345,0.0,0.0,80,0.00,,---,0.00,VWS V14.01,2013-10-22 21:56:00,
2013-10-22 17:57:00,40.8,35.1,29.85,NNW,345,0.0,0.0,80,0.00,,---,0.00,VWS V14.01,2013-10-22 21:57:00,
2013-10-22 17:58:00,40.8,35.1,29.85,NNW,345,0.0,0.0,80,0.00,,---,0.00,VWS V14.01,2013-10-22 21:58:00,
2013-10-22 17:59:00,40.8,35.1,29.85,NNW,345,0.0,1.0,80,0.00,,---,0.00,VWS V14.01,2013-10-22 21:59:00,
2013-10-22 18:00:00,40.7,35.0,29.85,NNW,345,0.0,1.0,80,0.00,,---,0.00,VWS V14.01,2013-10-22 22:00:00,
2013-10-22 18:01:00,40.7,35.3,29.85,NNW,345,0.0,0.0,81,0.00,,---,0.00,VWS V14.01,2013-10-22 22:01:00,
2013-10-22 18:02:00,40.6,35.2,29.85,NNW,345,0.0,0.0,81,0.00,,---,0.00,VWS V14.01,2013-10-22 22:02:00,
2013-10-22 18:03:00,40.6,35.2,29.85,NNW,345,0.0,0.0,81,0.00,,---,0.00,VWS V14.01,2013-10-22 22:03:00,
2013-10-22 18:04:00,40.6,35.2,29.85,NNW,345,0.0,0.0,81,0.00,,---,0.00,VWS V14.01,2013-10-22 22:04:00,
2013-10-22 18:05:00,40.5,35.1,29.85,NNW,345,0.0,0.0,81,0.00,,---,0.00,VWS V14.01,2013-10-22 22:05:00,
2013-10-22 18:06:00,40.5,35.1,29.85,NNW,345,0.0,0.0,81,0.00,,---,0.00,VWS V14.01,2013-10-22 22:06:00,
2013-10-22 18:07:00,40.4,35.0,29.85,NNW,345,0.0,0.0,81,0.00,,---,0.00,VWS V14.01,2013-10-22 22:07:00,
2013-10-22 18:08:00,40.4,35.0,29.85,NNW,345,0.0,0.0,81,0.00,,---,0.00,VWS V14.01,2013-10-22 22:08:00,
2013-10-22 18:09:00,40.4,35.3,29.85,NNW,345,0.0,0.0,82,0.00,,---,0.00,VWS V14.01,2013-10-22 22:09:00,
2013-10-22 18:10:00,40.4,35.3,29.85,NNW,345,0.0,0.0,82,0.00,,---,0.00,VWS V14.01,2013-10-22 22:10:00,
2013-10-22 18:11:00,40.3,35.2,29.85,NNW,345,0.0,0.0,82,0.00,,---,0.00,VWS V14.01,2013-10-22 22:11:00,
2013-10-22 18:12:00,40.3,35.2,29.85,NNW,345,0.0,0.0,82,0.00,,---,0.00,VWS V14.01,2013-10-22 22:12:00,
2013-10-22 18:13:00,40.2,35.2,29.85,NNW,345,0.0,0.0,82,0.00,,---,0.00,VWS V14.01,2013-10-22 22:13:00,
2013-10-22 18:14:00,40.2,35.2,29.85,NNW,345,0.0,0.0,82,0.00,,---,0.00,VWS V14.01,2013-10-22 22:14:00,
2013-10-22 18:15:00,40.2,35.2,29.85,NNW,345,0.0,0.0,82,0.00,,---,0.00,VWS V14.01,2013-10-22 22:15:00,
2013-10-22 18:16:00,40.1,35.1,29.85,NNW,345,0.0,0.0,82,0.00,,---,0.00,VWS V14.01,2013-10-22 22:16:00,
2013-10-22 18:17:00,40.1,35.1,29.85,NNW,345,0.0,0.0,82,0.00,,---,0.00,VWS V14.01,2013-10-22 22:17:00,
2013-10-22 18:18:00,40.1,35.4,29.85,NNW,345,0.0,0.0,83,0.00,,---,0.00,VWS V14.01,2013-10-22 22:18:00,
2013-10-22 18:19:00,40.1,35.4,29.85,NNW,345,0.0,0.0,83,0.00,,---,0.00,VWS V14.01,2013-10-22 22:19:00,
2013-10-22 18:20:00,40.0,35.3,29.85,NNW,345,0.0,0.0,83,0.00,,---,0.00,VWS V14.01,2013-10-22 22:20:00,
2013-10-22 18:21:00,40.0,35.3,29.85,NNW,345,0.0,0.0,83,0.00,,---,0.00,VWS V14.01,2013-10-22 22:21:00,
2013-10-22 18:22:00,40.0,35.3,29.85,NNW,345,0.0,0.0,83,0.00,,---,0.00,VWS V14.01,2013-10-22 22:22:00,
2013-10-22 18:23:00,39.9,35.2,29.85,NNW,345,0.0,0.0,83,0.00,,---,0.00,VWS V14.01,2013-10-22 22:23:00,
2013-10-22 18:24:00,39.9,35.2,29.85,NNW,345,0.0,0.0,83,0.00,,---,0.00,VWS V14.01,2013-10-22 22:24:00,
2013-10-22 18:25:00,39.9,35.5,29.85,NNW,345,0.0,0.0,84,0.00,,---,0.00,VWS V14.01,2013-10-22 22:25:00,
2013-10-22 18:26:00,39.8,35.4,29.85,NNW,345,0.0,0.0,84,0.00,,---,0.00,VWS V14.01,2013-10-22 22:26:00,
2013-10-22 18:27:00,39.8,35.4,29.85,NNW,345,0.0,0.0,84,0.00,,---,0.00,VWS V14.01,2013-10-22 22:27:00,
2013-10-22 18:28:00,39.8,35.4,29.85,NNW,345,0.0,0.0,84,0.00,,---,0.00,VWS V14.01,2013-10-22 22:28:00,
2013-10-22 18:29:00,39.8,35.4,29.85,NNW,345,0.0,0.0,84,0.00,,---,0.00,VWS V14.01,2013-10-22 22:29:00,
2013-10-22 18:30:00,39.7,35.3,29.85,NNW,345,0.0,0.0,84,0.00,,---,0.00,VWS V14.01,2013-10-22 22:30:00,
2013-10-22 18:31:00,39.7,35.3,29.85,NNW,345,0.0,0.0,84,0.00,,---,0.00,VWS V14.01,2013-10-22 22:31:00,
2013-10-22 18:32:00,39.7,35.3,29.85,NNW,345,0.0,0.0,84,0.00,,---,0.00,VWS V14.01,2013-10-22 22:32:00,
2013-10-22 18:33:00,39.7,35.6,29.85,NNW,345,0.0,0.0,85,0.00,,---,0.00,VWS V14.01,2013-10-22 22:33:00,
2013-10-22 18:34:00,39.6,35.2,29.85,NNW,345,0.0,0.0,84,0.00,,---,0.00,VWS V14.01,2013-10-22 22:34:00,
2013-10-22 18:35:00,39.6,35.2,29.85,NNW,345,0.0,0.0,84,0.00,,---,0.00,VWS V14.01,2013-10-22 22:35:00,
2013-10-22 18:36:00,39.6,35.5,29.85,NNW,345,0.0,0.0,85,0.00,,---,0.00,VWS V14.01,2013-10-22 22:36:00,
2013-10-22 18:37:00,39.6,35.5,29.85,NNW,345,0.0,0.0,85,0.00,,---,0.00,VWS V14.01,2013-10-22 22:37:00,
2013-10-22 18:38:00,39.5,35.4,29.85,NNW,345,0.0,0.0,85,0.00,,---,0.00,VWS V14.01,2013-10-22 22:38:00,
2013-10-22 18:39:00,39.5,35.4,29.85,NNW,345,0.0,0.0,85,0.00,,---,0.00,VWS V14.01,2013-10-22 22:39:00,
2013-10-22 18:40:00,39.5,35.4,29.85,NNW,345,0.0,0.0,85,0.00,,---,0.00,VWS V14.01,2013-10-22 22:40:00,
2013-10-22 18:41:00,39.5,35.4,29.85,NNW,345,0.0,0.0,85,0.00,,---,0.00,VWS V14.01,2013-10-22 22:41:00,
2013-10-22 18:42:00,39.5,35.4,29.85,NNW,345,0.0,0.0,85,0.00,,---,0.00,VWS V14.01,2013-10-22 22:42:00,
2013-10-22 18:43:00,39.5,35.4,29.85,NNW,345,0.0,0.0,85,0.00,,---,0.00,VWS V14.01,2013-10-22 22:43:00,
2013-10-22 18:44:00,39.5,35.4,29.85,NNW,345,0.0,0.0,85,0.00,,---,0.00,VWS V14.01,2013-10-22 22:44:00,
2013-10-22 18:45:00,39.4,35.3,29.85,NNW,345,0.0,0.0,85,0.00,,---,0.00,VWS V14.01,2013-10-22 22:45:00,
2013-10-22 18:46:00,39.4,35.3,29.85,NNW,345,0.0,0.0,85,0.00,,---,0.00,VWS V14.01,2013-10-22 22:46:00,
2013-10-22 18:47:00,39.4,35.3,29.85,NNW,345,0.0,0.0,85,0.00,,---,0.00,VWS V14.01,2013-10-22 22:47:00,
2013-10-22 18:48:00,39.4,35.3,29.85,NNW,345,0.0,0.0,85,0.00,,---,0.00,VWS V14.01,2013-10-22 22:48:00,
2013-10-22 18:49:00,39.4,35.3,29.85,NNW,345,0.0,0.0,85,0.00,,---,0.00,VWS V14.01,2013-10-22 22:49:00,
2013-10-22 18:50:00,39.4,35.3,29.85,NNW,345,0.0,0.0,85,0.00,,---,0.00,VWS V14.01,2013-10-22 22:50:00,
2013-10-22 18:51:00,39.3,35.2,29.85,NNW,345,0.0,0.0,85,0.00,,---,0.00,VWS V14.01,2013-10-22 22:51:00,
2013-10-22 18:52:00,39.3,35.2,29.85,NNW,345,0.0,0.0,85,0.00,,---,0.00,VWS V14.01,2013-10-22 22:52:00,
2013-10-22 18:53:00,39.3,35.2,29.85,NNW,345,0.0,0.0,85,0.00,,---,0.00,VWS V14.01,2013-10-22 22:53:00,
2013-10-22 18:54:00,39.3,35.2,29.85,NNW,345,0.0,0.0,85,0.00,,---,0.00,VWS V14.01,2013-10-22 22:54:00,
2013-10-22 18:55:00,39.3,35.2,29.85,NNW,345,0.0,0.0,85,0.00,,---,0.00,VWS V14.01,2013-10-22 22:55:00,
2013-10-22 18:56:00,39.3,35.2,29.85,NNW,345,0.0,0.0,85,0.00,,---,0.00,VWS V14.01,2013-10-22 22:56:00,
2013-10-22 18:57:00,39.3,35.2,29.85,NNW,345,0.0,0.0,85,0.00,,---,0.00,VWS V14.01,2013-10-22 22:57:00,
2013-10-22 18:58:00,39.2,35.1,29.85,NNW,345,0.0,0.0,85,0.00,,---,0.00,VWS V14.01,2013-10-22 22:58:00,
2013-10-22 18:59:00,39.2,35.1,29.85,NNW,345,0.0,0.0,85,0.00,,---,0.00,VWS V14.01,2013-10-22 22:59:00,
2013-10-22 19:00:00,39.2,35.1,29.84,NNW,345,0.0,0.0,85,0.00,,---,0.00,VWS V14.01,2013-10-22 23:00:00,
2013-10-22 19:01:00,39.2,35.1,29.84,NNW,345,0.0,0.0,85,0.00,,---,0.00,VWS V14.01,2013-10-22 23:01:00,
2013-10-22 19:02:00,39.2,35.1,29.84,NNW,345,0.0,0.0,85,0.00,,---,0.00,VWS V14.01,2013-10-22 23:02:00,
2013-10-22 19:03:00,39.2,35.1,29.84,NNW,345,0.0,0.0,85,0.00,,---,0.00,VWS V14.01,2013-10-22 23:03:00,
2013-10-22 19:04:00,39.1,35.0,29.84,NNW,345,0.0,0.0,85,0.00,,---,0.00,VWS V14.01,2013-10-22 23:04:00,
2013-10-22 19:05:00,39.1,35.0,29.84,NNW,345,0.0,0.0,85,0.00,,---,0.00,VWS V14.01,2013-10-22 23:05:00,
2013-10-22 19:06:00,39.1,35.0,29.84,NNW,345,0.0,0.0,85,0.00,,---,0.00,VWS V14.01,2013-10-22 23:06:00,
2013-10-22 19:07:00,39.1,35.0,29.84,NNW,345,0.0,0.0,85,0.00,,---,0.00,VWS V14.01,2013-10-22 23:07:00,
2013-10-22 19:08:00,39.1,35.0,29.84,NNW,345,0.0,0.0,85,0.00,,---,0.00,VWS V14.01,2013-10-22 23:08:00,
2013-10-22 19:09:00,39.1,35.0,29.84,NNW,345,0.0,0.0,85,0.00,,---,0.00,VWS V14.01,2013-10-22 23:09:00,
2013-10-22 19:10:00,39.1,35.0,29.84,NNW,345,0.0,0.0,85,0.00,,---,0.00,VWS V14.01,2013-10-22 23:10:00,
2013-10-22 19:11:00,39.1,35.0,29.84,NNW,345,0.0,0.0,85,0.00,,---,0.00,VWS V14.01,2013-10-22 23:11:00,
2013-10-22 19:12:00,39.1,35.0,29.84,NNW,345,0.0,0.0,85,0.00,,---,0.00,VWS V14.01,2013-10-22 23:12:00,
2013-10-22 19:13:00,39.0,34.9,29.84,NNW,345,0.0,0.0,85,0.00,,---,0.00,VWS V14.01,2013-10-22 23:13:00,
2013-10-22 19:14:00,39.0,34.9,29.84,NNW,345,0.0,0.0,85,0.00,,---,0.00,VWS V14.01,2013-10-22 23:14:00,
2013-10-22 19:15:00,39.0,34.9,29.84,NNW,345,0.0,0.0,85,0.00,,---,0.00,VWS V14.01,2013-10-22 23:15:00,
2013-10-22 19:16:00,39.0,34.9,29.84,NNW,345,0.0,0.0,85,0.00,,---,0.00,VWS V14.01,2013-10-22 23:16:00,
2013-10-22 19:17:00,39.0,35.2,29.84,NNW,345,0.0,0.0,86,0.00,,---,0.00,VWS V14.01,2013-10-22 23:17:00,
2013-10-22 19:18:00,38.9,35.1,29.84,NNW,345,0.0,0.0,86,0.00,,---,0.00,VWS V14.01,2013-10-22 23:18:00,
2013-10-22 19:19:00,38.9,35.1,29.84,NNW,345,0.0,0.0,86,0.00,,---,0.00,VWS V14.01,2013-10-22 23:19:00,
2013-10-22 19:20:00,38.9,35.1,29.84,NNW,345,0.0,0.0,86,0.00,,---,0.00,VWS V14.01,2013-10-22 23:20:00,
2013-10-22 19:21:00,38.9,35.1,29.84,NNW,345,0.0,0.0,86,0.00,,---,0.00,VWS V14.01,2013-10-22 23:21:00,
2013-10-22 19:22:00,38.9,35.1,29.84,NNW,345,0.0,0.0,86,0.00,,---,0.00,VWS V14.01,2013-10-22 23:22:00,
2013-10-22 19:23:00,38.9,35.1,29.84,NNW,345,0.0,0.0,86,0.00,,---,0.00,VWS V14.01,2013-10-22 23:23:00,
2013-10-22 19:24:00,38.9,35.1,29.84,NNW,345,0.0,0.0,86,0.00,,---,0.00,VWS V14.01,2013-10-22 23:24:00,
2013-10-22 19:25:00,38.8,35.0,29.84,NNW,345,0.0,0.0,86,0.00,,---,0.00,VWS V14.01,2013-10-22 23:25:00,
2013-10-22 19:26:00,38.8,35.0,29.84,NNW,345,0.0,0.0,86,0.00,,---,0.00,VWS V14.01,2013-10-22 23:26:00,
2013-10-22 19:27:00,38.8,35.0,29.84,NNW,345,0.0,0.0,86,0.00,,---,0.00,VWS V14.01,2013-10-22 23:27:00,
2013-10-22 19:28:00,38.8,35.0,29.84,NNW,345,0.0,0.0,86,0.00,,---,0.00,VWS V14.01,2013-10-22 23:28:00,
2013-10-22 19:29:00,38.8,35.0,29.84,NNW,345,0.0,0.0,86,0.00,,---,0.00,VWS V14.01,2013-10-22 23:29:00,
2013-10-22 19:30:00,38.8,35.0,29.84,NNW,345,0.0,0.0,86,0.00,,---,0.00,VWS V14.01,2013-10-22 23:30:00,
2013-10-22 19:31:00,38.8,35.0,29.84,NNW,345,0.0,0.0,86,0.00,,---,0.00,VWS V14.01,2013-10-22 23:31:00,
2013-10-22 19:32:00,38.8,35.0,29.84,NNW,345,0.0,0.0,86,0.00,,---,0.00,VWS V14.01,2013-10-22 23:32:00,
2013-10-22 19:33:00,38.8,35.0,29.84,NNW,345,0.0,0.0,86,0.00,,---,0.00,VWS V14.01,2013-10-22 23:33:00,
2013-10-22 19:34:00,38.7,34.9,29.84,NNW,345,0.0,0.0,86,0.00,,---,0.00,VWS V14.01,2013-10-22 23:34:00,
2013-10-22 19:35:00,38.7,34.9,29.84,NNW,345,0.0,0.0,86,0.00,,---,0.00,VWS V14.01,2013-10-22 23:35:00,
2013-10-22 19:36:00,38.7,34.9,29.84,NNW,345,0.0,0.0,86,0.00,,---,0.00,VWS V14.01,2013-10-22 23:36:00,
2013-10-22 19:37:00,38.7,34.9,29.84,NNW,345,0.0,0.0,86,0.00,,---,0.00,VWS V14.01,2013-10-22 23:37:00,
2013-10-22 19:38:00,38.7,34.9,29.84,NNW,345,0.0,0.0,86,0.00,,---,0.00,VWS V14.01,2013-10-22 23:38:00,
2013-10-22 19:39:00,38.7,35.2,29.84,NNW,345,0.0,0.0,87,0.00,,---,0.00,VWS V14.01,2013-10-22 23:39:00,
2013-10-22 19:40:00,38.7,35.2,29.84,NNW,345,0.0,0.0,87,0.00,,---,0.00,VWS V14.01,2013-10-22 23:40:00,
2013-10-22 19:41:00,38.6,35.1,29.84,NNW,345,0.0,0.0,87,0.00,,---,0.00,VWS V14.01,2013-10-22 23:41:00,
2013-10-22 19:42:00,38.6,35.1,29.84,NNW,345,0.0,0.0,87,0.00,,---,0.00,VWS V14.01,2013-10-22 23:42:00,
2013-10-22 19:43:00,38.6,35.1,29.84,NNW,345,0.0,0.0,87,0.00,,---,0.00,VWS V14.01,2013-10-22 23:43:00,
2013-10-22 19:44:00,38.6,35.1,29.84,NNW,345,0.0,0.0,87,0.00,,---,0.00,VWS V14.01,2013-10-22 23:44:00,
2013-10-22 19:45:00,38.5,35.3,29.85,NNW,345,0.0,0.0,88,0.00,,---,0.00,VWS V14.01,2013-10-22 23:45:00,
2013-10-22 19:46:00,38.5,35.3,29.85,NNW,345,0.0,0.0,88,0.00,,---,0.00,VWS V14.01,2013-10-22 23:46:00,
2013-10-22 19:47:00,38.5,35.3,29.85,NNW,345,0.0,0.0,88,0.00,,---,0.00,VWS V14.01,2013-10-22 23:47:00,
2013-10-22 19:48:00,38.5,35.3,29.85,NNW,345,0.0,0.0,88,0.00,,---,0.00,VWS V14.01,2013-10-22 23:48:00,
2013-10-22 19:49:00,38.5,35.3,29.85,NNW,345,0.0,0.0,88,0.00,,---,0.00,VWS V14.01,2013-10-22 23:49:00,
2013-10-22 19:50:00,38.5,35.3,29.85,NNW,345,0.0,0.0,88,0.00,,---,0.00,VWS V14.01,2013-10-22 23:50:00,
2013-10-22 19:51:00,38.4,35.2,29.85,NNW,345,0.0,0.0,88,0.00,,---,0.00,VWS V14.01,2013-10-22 23:51:00,
2013-10-22 19:52:00,38.4,35.2,29.85,NNW,345,0.0,0.0,88,0.00,,---,0.00,VWS V14.01,2013-10-22 23:52:00,
2013-10-22 19:53:00,38.4,35.2,29.85,NNW,345,0.0,0.0,88,0.00,,---,0.00,VWS V14.01,2013-10-22 23:53:00,
2013-10-22 19:54:00,38.4,35.2,29.85,NNW,345,0.0,0.0,88,0.00,,---,0.00,VWS V14.01,2013-10-22 23:54:00,
2013-10-22 19:55:00,38.4,35.2,29.85,NNW,345,0.0,0.0,88,0.00,,---,0.00,VWS V14.01,2013-10-22 23:55:00,
2013-10-22 19:56:00,38.4,35.2,29.85,NNW,345,0.0,0.0,88,0.00,,---,0.00,VWS V14.01,2013-10-22 23:56:00,
2013-10-22 19:57:00,38.4,35.2,29.85,NNW,345,0.0,0.0,88,0.00,,---,0.00,VWS V14.01,2013-10-22 23:57:00,
2013-10-22 19:58:00,38.4,35.2,29.85,NNW,345,0.0,0.0,88,0.00,,---,0.00,VWS V14.01,2013-10-22 23:58:00,
2013-10-22 19:59:00,38.4,34.9,29.85,NNW,345,0.0,0.0,87,0.00,,---,0.00,VWS V14.01,2013-10-22 23:59:00,
2013-10-22 20:00:00,38.3,34.8,29.84,NNW,345,0.0,0.0,87,0.00,,---,0.00,VWS V14.01,2013-10-23 00:00:00,
2013-10-22 20:01:00,38.3,34.8,29.84,NNW,345,0.0,0.0,87,0.00,,---,0.00,VWS V14.01,2013-10-23 00:01:00,
2013-10-22 20:02:00,38.3,34.8,29.84,NNW,345,0.0,0.0,87,0.00,,---,0.00,VWS V14.01,2013-10-23 00:02:00,
2013-10-22 20:03:00,38.3,35.1,29.84,NNW,345,0.0,0.0,88,0.00,,---,0.00,VWS V14.01,2013-10-23 00:03:00,
2013-10-22 20:04:00,38.3,35.1,29.84,NNW,345,0.0,0.0,88,0.00,,---,0.00,VWS V14.01,2013-10-23 00:04:00,
2013-10-22 20:05:00,38.3,34.8,29.84,NNW,345,0.0,0.0,87,0.00,,---,0.00,VWS V14.01,2013-10-23 00:05:00,
2013-10-22 20:06:00,38.3,34.8,29.84,NNW,345,0.0,0.0,87,0.00,,---,0.00,VWS V14.01,2013-10-23 00:06:00,
2013-10-22 20:07:00,38.3,34.8,29.84,NNW,345,0.0,0.0,87,0.00,,---,0.00,VWS V14.01,2013-10-23 00:07:00,
2013-10-22 20:08:00,38.3,34.8,29.84,NNW,345,0.0,0.0,87,0.00,,---,0.00,VWS V14.01,2013-10-23 00:08:00,
2013-10-22 20:09:00,38.3,34.8,29.84,NNW,345,0.0,0.0,87,0.00,,---,0.00,VWS V14.01,2013-10-23 00:09:00,
2013-10-22 20:10:00,38.2,34.7,29.84,NNW,345,0.0,0.0,87,0.00,,---,0.00,VWS V14.01,2013-10-23 00:10:00,
2013-10-22 20:11:00,38.2,34.7,29.84,NNW,345,0.0,0.0,87,0.00,,---,0.00,VWS V14.01,2013-10-23 00:11:00,
2013-10-22 20:12:00,38.2,34.7,29.84,NNW,345,0.0,0.0,87,0.00,,---,0.00,VWS V14.01,2013-10-23 00:12:00,
2013-10-22 20:13:00,38.2,34.7,29.84,NNW,345,0.0,0.0,87,0.00,,---,0.00,VWS V14.01,2013-10-23 00:13:00,
2013-10-22 20:14:00,38.2,35.0,29.84,NNW,345,0.0,0.0,88,0.00,,---,0.00,VWS V14.01,2013-10-23 00:14:00,
2013-10-22 20:15:00,38.2,35.0,29.84,NNW,345,0.0,0.0,88,0.00,,---,0.00,VWS V14.01,2013-10-23 00:15:00,
2013-10-22 20:16:00,38.2,35.0,29.84,NNW,345,0.0,0.0,88,0.00,,---,0.00,VWS V14.01,2013-10-23 00:16:00,
2013-10-22 20:17:00,38.2,35.0,29.84,NNW,345,0.0,0.0,88,0.00,,---,0.00,VWS V14.01,2013-10-23 00:17:00,
2013-10-22 20:18:00,38.2,35.0,29.84,NNW,345,0.0,0.0,88,0.00,,---,0.00,VWS V14.01,2013-10-23 00:18:00,
2013-10-22 20:19:00,38.2,35.0,29.84,NNW,345,0.0,0.0,88,0.00,,---,0.00,VWS V14.01,2013-10-23 00:19:00,
2013-10-22 20:20:00,38.2,35.0,29.84,NNW,345,0.0,0.0,88,0.00,,---,0.00,VWS V14.01,2013-10-23 00:20:00,
2013-10-22 20:21:00,38.2,35.0,29.84,NNW,345,0.0,0.0,88,0.00,,---,0.00,VWS V14.01,2013-10-23 00:21:00,
2013-10-22 20:22:00,38.1,34.9,29.84,NNW,345,0.0,0.0,88,0.00,,---,0.00,VWS V14.01,2013-10-23 00:22:00,
2013-10-22 20:23:00,38.1,34.9,29.84,NNW,345,0.0,0.0,88,0.00,,---,0.00,VWS V14.01,2013-10-23 00:23:00,
2013-10-22 20:24:00,38.1,34.9,29.84,NNW,345,0.0,0.0,88,0.00,,---,0.00,VWS V14.01,2013-10-23 00:24:00,
2013-10-22 20:25:00,38.1,34.9,29.84,NNW,345,0.0,0.0,88,0.00,,---,0.00,VWS V14.01,2013-10-23 00:25:00,
2013-10-22 20:26:00,38.1,34.9,29.84,NNW,345,0.0,0.0,88,0.00,,---,0.00,VWS V14.01,2013-10-23 00:26:00,
2013-10-22 20:27:00,38.1,34.9,29.84,NNW,345,0.0,0.0,88,0.00,,---,0.00,VWS V14.01,2013-10-23 00:27:00,
2013-10-22 20:28:00,38.1,34.9,29.84,NNW,345,0.0,0.0,88,0.00,,---,0.00,VWS V14.01,2013-10-23 00:28:00,
2013-10-22 20:29:00,38.0,34.8,29.84,NNW,345,0.0,0.0,88,0.00,,---,0.00,VWS V14.01,2013-10-23 00:29:00,
2013-10-22 20:30:00,38.0,34.8,29.84,NNW,345,0.0,0.0,88,0.00,,---,0.00,VWS V14.01,2013-10-23 00:30:00,
2013-10-22 20:31:00,38.0,34.8,29.84,NNW,345,0.0,0.0,88,0.00,,---,0.00,VWS V14.01,2013-10-23 00:31:00,
2013-10-22 20:32:00,38.0,34.8,29.84,NNW,345,0.0,0.0,88,0.00,,---,0.00,VWS V14.01,2013-10-23 00:32:00,
2013-10-22 20:33:00,38.0,34.8,29.84,NNW,345,0.0,0.0,88,0.00,,---,0.00,VWS V14.01,2013-10-23 00:33:00,
2013-10-22 20:34:00,38.0,34.8,29.84,NNW,345,0.0,0.0,88,0.00,,---,0.00,VWS V14.01,2013-10-23 00:34:00,
2013-10-22 20:35:00,38.0,34.8,29.84,NNW,345,0.0,0.0,88,0.00,,---,0.00,VWS V14.01,2013-10-23 00:35:00,
2013-10-22 20:36:00,38.0,34.8,29.84,NNW,345,0.0,0.0,88,0.00,,---,0.00,VWS V14.01,2013-10-23 00:36:00,
2013-10-22 20:37:00,38.0,34.8,29.84,NNW,345,0.0,0.0,88,0.00,,---,0.00,VWS V14.01,2013-10-23 00:37:00,
2013-10-22 20:38:00,38.0,34.8,29.84,NNW,345,0.0,0.0,88,0.00,,---,0.00,VWS V14.01,2013-10-23 00:38:00,
2013-10-22 20:39:00,38.0,34.8,29.84,NNW,345,0.0,0.0,88,0.00,,---,0.00,VWS V14.01,2013-10-23 00:39:00,
2013-10-22 20:40:00,38.0,34.8,29.84,NNW,345,0.0,0.0,88,0.00,,---,0.00,VWS V14.01,2013-10-23 00:40:00,
2013-10-22 20:41:00,37.9,34.7,29.84,NNW,345,0.0,0.0,88,0.00,,---,0.00,VWS V14.01,2013-10-23 00:41:00,
2013-10-22 20:42:00,37.9,34.7,29.84,NNW,345,0.0,0.0,88,0.00,,---,0.00,VWS V14.01,2013-10-23 00:42:00,
2013-10-22 20:43:00,37.9,34.7,29.84,NNW,345,0.0,0.0,88,0.00,,---,0.00,VWS V14.01,2013-10-23 00:43:00,
2013-10-22 20:44:00,37.9,34.7,29.84,NNW,345,0.0,0.0,88,0.00,,---,0.00,VWS V14.01,2013-10-23 00:44:00,
2013-10-22 20:45:00,37.9,34.7,29.84,NNW,345,0.0,0.0,88,0.00,,---,0.00,VWS V14.01,2013-10-23 00:45:00,
2013-10-22 20:46:00,37.9,35.0,29.84,NNW,345,0.0,0.0,89,0.00,,---,0.00,VWS V14.01,2013-10-23 00:46:00,
2013-10-22 20:47:00,37.9,35.0,29.84,NNW,345,0.0,0.0,89,0.00,,---,0.00,VWS V14.01,2013-10-23 00:47:00,
2013-10-22 20:48:00,37.9,35.0,29.84,NNW,345,0.0,0.0,89,0.00,,---,0.00,VWS V14.01,2013-10-23 00:48:00,
2013-10-22 20:49:00,37.9,35.0,29.84,NNW,345,0.0,0.0,89,0.00,,---,0.00,VWS V14.01,2013-10-23 00:49:00,
2013-10-22 20:50:00,37.9,35.0,29.84,NNW,345,0.0,0.0,89,0.00,,---,0.00,VWS V14.01,2013-10-23 00:50:00,
2013-10-22 20:51:00,37.9,35.0,29.84,NNW,345,0.0,0.0,89,0.00,,---,0.00,VWS V14.01,2013-10-23 00:51:00,
2013-10-22 20:52:00,37.9,35.0,29.84,NNW,345,0.0,0.0,89,0.00,,---,0.00,VWS V14.01,2013-10-23 00:52:00,
2013-10-22 20:53:00,37.9,35.0,29.84,NNW,345,0.0,0.0,89,0.00,,---,0.00,VWS V14.01,2013-10-23 00:53:00,
2013-10-22 20:54:00,37.9,35.0,29.84,NNW,345,0.0,0.0,89,0.00,,---,0.00,VWS V14.01,2013-10-23 00:54:00,
2013-10-22 20:55:00,37.9,35.0,29.84,NNW,345,0.0,0.0,89,0.00,,---,0.00,VWS V14.01,2013-10-23 00:55:00,
2013-10-22 20:56:00,37.9,35.0,29.84,NNW,345,0.0,0.0,89,0.00,,---,0.00,VWS V14.01,2013-10-23 00:56:00,
2013-10-22 20:57:00,37.8,34.9,29.84,NNW,345,0.0,0.0,89,0.00,,---,0.00,VWS V14.01,2013-10-23 00:57:00,
2013-10-22 20:58:00,37.9,35.0,29.84,NNW,345,0.0,0.0,89,0.00,,---,0.00,VWS V14.01,2013-10-23 00:58:00,
2013-10-22 20:59:00,37.9,35.0,29.84,NNW,345,0.0,0.0,89,0.00,,---,0.00,VWS V14.01,2013-10-23 00:59:00,
2013-10-22 21:00:00,37.8,34.9,29.84,NNW,345,0.0,0.0,89,0.00,,---,0.00,VWS V14.01,2013-10-23 01:00:00,
2013-10-22 21:01:00,37.8,34.9,29.84,NNW,345,0.0,0.0,89,0.00,,---,0.00,VWS V14.01,2013-10-23 01:01:00,
2013-10-22 21:02:00,37.8,34.9,29.84,NNW,345,0.0,0.0,89,0.00,,---,0.00,VWS V14.01,2013-10-23 01:02:00,
2013-10-22 21:03:00,37.8,34.9,29.84,NNW,345,0.0,0.0,89,0.00,,---,0.00,VWS V14.01,2013-10-23 01:03:00,
2013-10-22 21:04:00,37.8,34.9,29.84,NNW,345,0.0,0.0,89,0.00,,---,0.00,VWS V14.01,2013-10-23 01:04:00,
2013-10-22 21:05:00,37.8,34.9,29.84,NNW,345,0.0,0.0,89,0.00,,---,0.00,VWS V14.01,2013-10-23 01:05:00,
2013-10-22 21:06:00,37.8,34.9,29.84,NNW,345,0.0,0.0,89,0.00,,---,0.00,VWS V14.01,2013-10-23 01:06:00,
2013-10-22 21:07:00,37.8,35.1,29.84,NNW,345,0.0,0.0,90,0.00,,---,0.00,VWS V14.01,2013-10-23 01:07:00,
2013-10-22 21:08:00,37.8,34.9,29.84,NNW,345,0.0,0.0,89,0.00,,---,0.00,VWS V14.01,2013-10-23 01:08:00,
2013-10-22 21:09:00,37.8,34.9,29.84,NNW,345,0.0,0.0,89,0.00,,---,0.00,VWS V14.01,2013-10-23 01:09:00,
2013-10-22 21:10:00,37.8,34.9,29.84,NNW,345,0.0,0.0,89,0.00,,---,0.00,VWS V14.01,2013-10-23 01:10:00,
2013-10-22 21:11:00,37.8,34.9,29.84,NNW,345,0.0,0.0,89,0.00,,---,0.00,VWS V14.01,2013-10-23 01:11:00,
2013-10-22 21:12:00,37.8,34.9,29.84,NNW,345,0.0,0.0,89,0.00,,---,0.00,VWS V14.01,2013-10-23 01:12:00,
2013-10-22 21:13:00,37.7,34.8,29.84,NNW,345,0.0,0.0,89,0.00,,---,0.00,VWS V14.01,2013-10-23 01:13:00,
2013-10-22 21:14:00,37.7,34.8,29.84,NNW,345,0.0,0.0,89,0.00,,---,0.00,VWS V14.01,2013-10-23 01:14:00,
2013-10-22 21:15:00,37.7,34.8,29.84,NNW,345,0.0,0.0,89,0.00,,---,0.00,VWS V14.01,2013-10-23 01:15:00,
2013-10-22 21:16:00,37.7,34.8,29.84,NNW,345,0.0,0.0,89,0.00,,---,0.00,VWS V14.01,2013-10-23 01:16:00,
2013-10-22 21:17:00,37.8,34.9,29.84,NNW,345,0.0,0.0,89,0.00,,---,0.00,VWS V14.01,2013-10-23 01:17:00,
2013-10-22 21:18:00,37.8,34.9,29.84,NNW,345,0.0,0.0,89,0.00,,---,0.00,VWS V14.01,2013-10-23 01:18:00,
2013-10-22 21:19:00,37.7,34.8,29.84,NNW,345,0.0,0.0,89,0.00,,---,0.00,VWS V14.01,2013-10-23 01:19:00,
2013-10-22 21:20:00,37.8,34.9,29.84,NNW,345,0.0,0.0,89,0.00,,---,0.00,VWS V14.01,2013-10-23 01:20:00,
2013-10-22 21:21:00,37.7,34.8,29.84,NNW,345,0.0,0.0,89,0.00,,---,0.00,VWS V14.01,2013-10-23 01:21:00,
2013-10-22 21:22:00,37.7,34.8,29.84,NNW,345,0.0,0.0,89,0.00,,---,0.00,VWS V14.01,2013-10-23 01:22:00,
2013-10-22 21:23:00,37.7,34.8,29.84,NNW,345,0.0,0.0,89,0.00,,---,0.00,VWS V14.01,2013-10-23 01:23:00,
2013-10-22 21:24:00,37.7,34.8,29.84,NNW,345,0.0,0.0,89,0.00,,---,0.00,VWS V14.01,2013-10-23 01:24:00,
2013-10-22 21:25:00,37.7,34.8,29.84,NNW,345,0.0,0.0,89,0.00,,---,0.00,VWS V14.01,2013-10-23 01:25:00,
2013-10-22 21:26:00,37.7,34.8,29.84,NNW,345,0.0,0.0,89,0.00,,---,0.00,VWS V14.01,2013-10-23 01:26:00,
2013-10-22 21:27:00,37.7,34.8,29.84,NNW,345,0.0,0.0,89,0.00,,---,0.00,VWS V14.01,2013-10-23 01:27:00,
2013-10-22 21:28:00,37.7,34.8,29.84,NNW,345,0.0,0.0,89,0.00,,---,0.00,VWS V14.01,2013-10-23 01:28:00,
2013-10-22 21:29:00,37.7,34.8,29.84,NNW,345,0.0,0.0,89,0.00,,---,0.00,VWS V14.01,2013-10-23 01:29:00,
2013-10-22 21:30:00,37.7,34.8,29.84,NNW,345,0.0,0.0,89,0.00,,---,0.00,VWS V14.01,2013-10-23 01:30:00,
2013-10-22 21:31:00,37.7,34.8,29.84,NNW,345,0.0,0.0,89,0.00,,---,0.00,VWS V14.01,2013-10-23 01:31:00,
2013-10-22 21:32:00,37.7,34.8,29.84,NNW,345,0.0,0.0,89,0.00,,---,0.00,VWS V14.01,2013-10-23 01:32:00,
2013-10-22 21:33:00,37.7,34.8,29.84,NNW,345,0.0,0.0,89,0.00,,---,0.00,VWS V14.01,2013-10-23 01:33:00,
2013-10-22 21:34:00,37.7,34.8,29.84,NNW,345,0.0,0.0,89,0.00,,---,0.00,VWS V14.01,2013-10-23 01:34:00,
2013-10-22 21:35:00,37.7,34.8,29.84,NNW,345,0.0,0.0,89,0.00,,---,0.00,VWS V14.01,2013-10-23 01:35:00,
2013-10-22 21:36:00,37.7,34.8,29.84,NNW,345,0.0,0.0,89,0.00,,---,0.00,VWS V14.01,2013-10-23 01:36:00,
2013-10-22 21:37:00,37.7,34.8,29.84,NNW,345,0.0,0.0,89,0.00,,---,0.00,VWS V14.01,2013-10-23 01:37:00,
2013-10-22 21:38:00,37.7,34.8,29.84,NNW,345,0.0,0.0,89,0.00,,---,0.00,VWS V14.01,2013-10-23 01:38:00,
2013-10-22 21:39:00,37.7,34.8,29.84,NNW,345,0.0,0.0,89,0.00,,---,0.00,VWS V14.01,2013-10-23 01:39:00,
2013-10-22 21:40:00,37.7,34.8,29.84,NNW,345,0.0,0.0,89,0.00,,---,0.00,VWS V14.01,2013-10-23 01:40:00,
2013-10-22 21:41:00,37.7,34.8,29.84,NNW,345,0.0,0.0,89,0.00,,---,0.00,VWS V14.01,2013-10-23 01:41:00,
2013-10-22 21:42:00,37.6,34.7,29.84,NNW,345,0.0,0.0,89,0.00,,---,0.00,VWS V14.01,2013-10-23 01:42:00,
2013-10-22 21:43:00,37.6,34.7,29.84,NNW,345,0.0,0.0,89,0.00,,---,0.00,VWS V14.01,2013-10-23 01:43:00,
2013-10-22 21:44:00,37.7,34.8,29.84,NNW,345,0.0,0.0,89,0.00,,---,0.00,VWS V14.01,2013-10-23 01:44:00,
2013-10-22 21:45:00,37.7,34.8,29.84,NNW,345,0.0,0.0,89,0.00,,---,0.00,VWS V14.01,2013-10-23 01:45:00,
2013-10-22 21:46:00,37.7,34.8,29.84,NNW,345,0.0,0.0,89,0.00,,---,0.00,VWS V14.01,2013-10-23 01:46:00,
2013-10-22 21:47:00,37.7,34.8,29.84,NNW,345,0.0,0.0,89,0.00,,---,0.00,VWS V14.01,2013-10-23 01:47:00,
2013-10-22 21:48:00,37.7,34.8,29.84,NNW,345,0.0,0.0,89,0.00,,---,0.00,VWS V14.01,2013-10-23 01:48:00,
2013-10-22 21:49:00,37.7,34.8,29.84,NNW,345,0.0,0.0,89,0.00,,---,0.00,VWS V14.01,2013-10-23 01:49:00,
2013-10-22 21:50:00,37.7,35.0,29.84,NNW,345,0.0,0.0,90,0.00,,---,0.00,VWS V14.01,2013-10-23 01:50:00,
2013-10-22 21:51:00,37.7,35.0,29.84,NNW,345,0.0,0.0,90,0.00,,---,0.00,VWS V14.01,2013-10-23 01:51:00,
2013-10-22 21:52:00,37.7,35.0,29.84,NNW,345,0.0,0.0,90,0.00,,---,0.00,VWS V14.01,2013-10-23 01:52:00,
2013-10-22 21:53:00,37.6,34.9,29.84,NNW,345,0.0,0.0,90,0.00,,---,0.00,VWS V14.01,2013-10-23 01:53:00,
2013-10-22 21:54:00,37.6,34.9,29.84,NNW,345,0.0,0.0,90,0.00,,---,0.00,VWS V14.01,2013-10-23 01:54:00,
2013-10-22 21:55:00,37.7,35.0,29.84,NNW,345,0.0,0.0,90,0.00,,---,0.00,VWS V14.01,2013-10-23 01:55:00,
2013-10-22 21:56:00,37.6,34.9,29.84,NNW,345,0.0,0.0,90,0.00,,---,0.00,VWS V14.01,2013-10-23 01:56:00,
2013-10-22 21:57:00,37.6,34.9,29.84,NNW,345,0.0,0.0,90,0.00,,---,0.00,VWS V14.01,2013-10-23 01:57:00,
2013-10-22 21:58:00,37.6,34.9,29.84,NNW,345,0.0,0.0,90,0.00,,---,0.00,VWS V14.01,2013-10-23 01:58:00,
2013-10-22 21:59:00,37.6,34.9,29.84,NNW,345,0.0,0.0,90,0.00,,---,0.00,VWS V14.01,2013-10-23 01:59:00,
2013-10-22 22:00:00,37.6,34.9,29.84,NNW,345,0.0,0.0,90,0.00,,---,0.00,VWS V14.01,2013-10-23 02:00:00,
2013-10-22 22:01:00,37.6,34.9,29.84,NNW,345,0.0,0.0,90,0.00,,---,0.00,VWS V14.01,2013-10-23 02:01:00,
2013-10-22 22:02:00,37.6,34.9,29.84,NNW,345,0.0,0.0,90,0.00,,---,0.00,VWS V14.01,2013-10-23 02:02:00,
2013-10-22 22:03:00,37.6,34.9,29.84,NNW,345,0.0,0.0,90,0.00,,---,0.00,VWS V14.01,2013-10-23 02:03:00,
2013-10-22 22:04:00,37.6,34.9,29.84,NNW,345,0.0,0.0,90,0.00,,---,0.00,VWS V14.01,2013-10-23 02:04:00,
2013-10-22 22:05:00,37.6,34.9,29.84,NNW,345,0.0,0.0,90,0.00,,---,0.00,VWS V14.01,2013-10-23 02:05:00,
2013-10-22 22:06:00,37.6,34.9,29.84,NNW,345,0.0,0.0,90,0.00,,---,0.00,VWS V14.01,2013-10-23 02:06:00,
2013-10-22 22:07:00,37.6,34.9,29.84,NNW,345,0.0,0.0,90,0.00,,---,0.00,VWS V14.01,2013-10-23 02:07:00,
2013-10-22 22:08:00,37.6,34.9,29.84,NNW,345,0.0,0.0,90,0.00,,---,0.00,VWS V14.01,2013-10-23 02:08:00,
2013-10-22 22:09:00,37.6,34.9,29.84,NNW,345,0.0,0.0,90,0.00,,---,0.00,VWS V14.01,2013-10-23 02:09:00,
2013-10-22 22:10:00,37.6,34.9,29.84,NNW,345,0.0,0.0,90,0.00,,---,0.00,VWS V14.01,2013-10-23 02:10:00,
2013-10-22 22:11:00,37.6,34.9,29.84,NNW,345,0.0,0.0,90,0.00,,---,0.00,VWS V14.01,2013-10-23 02:11:00,
2013-10-22 22:12:00,37.6,34.9,29.84,NNW,345,0.0,0.0,90,0.00,,---,0.00,VWS V14.01,2013-10-23 02:12:00,
2013-10-22 22:13:00,37.6,34.9,29.84,NNW,345,0.0,0.0,90,0.00,,---,0.00,VWS V14.01,2013-10-23 02:13:00,
2013-10-22 22:14:00,37.6,34.9,29.84,NNW,345,0.0,0.0,90,0.00,,---,0.00,VWS V14.01,2013-10-23 02:14:00,
2013-10-22 22:15:00,37.6,34.9,29.83,NNW,345,0.0,0.0,90,0.00,,---,0.00,VWS V14.01,2013-10-23 02:15:00,
2013-10-22 22:16:00,37.6,34.9,29.83,NNW,345,0.0,0.0,90,0.00,,---,0.00,VWS V14.01,2013-10-23 02:16:00,
2013-10-22 22:17:00,37.6,34.9,29.83,NNW,345,0.0,0.0,90,0.00,,---,0.00,VWS V14.01,2013-10-23 02:17:00,
2013-10-22 22:18:00,37.6,34.9,29.83,NNW,345,0.0,0.0,90,0.00,,---,0.00,VWS V14.01,2013-10-23 02:18:00,
2013-10-22 22:19:00,37.6,34.9,29.83,NNW,345,0.0,0.0,90,0.00,,---,0.00,VWS V14.01,2013-10-23 02:19:00,
2013-10-22 22:20:00,37.6,34.9,29.83,NNW,345,0.0,0.0,90,0.00,,---,0.00,VWS V14.01,2013-10-23 02:20:00,
2013-10-22 22:21:00,37.5,34.8,29.83,NNW,345,0.0,0.0,90,0.00,,---,0.00,VWS V14.01,2013-10-23 02:21:00,
2013-10-22 22:22:00,37.5,34.8,29.83,NNW,345,0.0,0.0,90,0.00,,---,0.00,VWS V14.01,2013-10-23 02:22:00,
2013-10-22 22:23:00,37.5,34.8,29.83,NNW,345,0.0,0.0,90,0.00,,---,0.00,VWS V14.01,2013-10-23 02:23:00,
2013-10-22 22:24:00,37.5,34.8,29.83,NNW,345,0.0,0.0,90,0.00,,---,0.00,VWS V14.01,2013-10-23 02:24:00,
2013-10-22 22:25:00,37.5,34.8,29.83,NNW,345,0.0,0.0,90,0.00,,---,0.00,VWS V14.01,2013-10-23 02:25:00,
2013-10-22 22:26:00,37.5,34.8,29.83,NNW,345,0.0,0.0,90,0.00,,---,0.00,VWS V14.01,2013-10-23 02:26:00,
2013-10-22 22:27:00,37.5,34.8,29.83,NNW,345,0.0,0.0,90,0.00,,---,0.00,VWS V14.01,2013-10-23 02:27:00,
2013-10-22 22:28:00,37.5,34.8,29.83,NNW,345,0.0,0.0,90,0.00,,---,0.00,VWS V14.01,2013-10-23 02:28:00,
2013-10-22 22:29:00,37.5,34.8,29.83,NNW,345,0.0,0.0,90,0.00,,---,0.00,VWS V14.01,2013-10-23 02:29:00,
2013-10-22 22:30:00,37.5,34.8,29.83,NNW,345,0.0,0.0,90,0.00,,---,0.00,VWS V14.01,2013-10-23 02:30:00,
2013-10-22 22:31:00,37.5,34.8,29.83,NNW,345,0.0,0.0,90,0.00,,---,0.00,VWS V14.01,2013-10-23 02:31:00,
2013-10-22 22:32:00,37.5,34.8,29.83,NNW,345,0.0,0.0,90,0.00,,---,0.00,VWS V14.01,2013-10-23 02:32:00,
2013-10-22 22:33:00,37.5,34.8,29.83,NNW,345,0.0,0.0,90,0.00,,---,0.00,VWS V14.01,2013-10-23 02:33:00,
2013-10-22 22:34:00,37.5,34.8,29.83,NNW,345,0.0,0.0,90,0.00,,---,0.00,VWS V14.01,2013-10-23 02:34:00,
2013-10-22 22:35:00,37.5,34.8,29.83,NNW,345,0.0,0.0,90,0.00,,---,0.00,VWS V14.01,2013-10-23 02:35:00,
2013-10-22 22:36:00,37.5,34.8,29.83,NNW,345,0.0,0.0,90,0.00,,---,0.00,VWS V14.01,2013-10-23 02:36:00,
2013-10-22 22:37:00,37.5,34.8,29.83,NNW,345,0.0,0.0,90,0.00,,---,0.00,VWS V14.01,2013-10-23 02:37:00,
2013-10-22 22:38:00,37.5,34.8,29.83,NNW,345,0.0,0.0,90,0.00,,---,0.00,VWS V14.01,2013-10-23 02:38:00,
2013-10-22 22:39:00,37.5,34.8,29.83,NNW,345,0.0,0.0,90,0.00,,---,0.00,VWS V14.01,2013-10-23 02:39:00,
2013-10-22 22:40:00,37.5,34.8,29.83,NNW,345,0.0,0.0,90,0.00,,---,0.00,VWS V14.01,2013-10-23 02:40:00,
2013-10-22 22:41:00,37.5,34.8,29.83,NNW,345,0.0,0.0,90,0.00,,---,0.00,VWS V14.01,2013-10-23 02:41:00,
2013-10-22 22:42:00,37.5,34.8,29.83,NNW,345,0.0,0.0,90,0.00,,---,0.00,VWS V14.01,2013-10-23 02:42:00,
2013-10-22 22:43:00,37.5,34.8,29.83,NNW,345,0.0,0.0,90,0.00,,---,0.00,VWS V14.01,2013-10-23 02:43:00,
2013-10-22 22:44:00,37.5,34.8,29.83,NNW,345,0.0,0.0,90,0.00,,---,0.00,VWS V14.01,2013-10-23 02:44:00,
2013-10-22 22:45:00,37.5,34.8,29.83,NNW,345,0.0,0.0,90,0.00,,---,0.00,VWS V14.01,2013-10-23 02:45:00,
2013-10-22 22:46:00,37.5,34.8,29.83,NNW,345,0.0,0.0,90,0.00,,---,0.00,VWS V14.01,2013-10-23 02:46:00,
2013-10-22 22:47:00,37.4,34.7,29.83,NNW,345,0.0,0.0,90,0.00,,---,0.00,VWS V14.01,2013-10-23 02:47:00,
2013-10-22 22:48:00,37.4,34.7,29.83,NNW,345,0.0,0.0,90,0.00,,---,0.00,VWS V14.01,2013-10-23 02:48:00,
2013-10-22 22:49:00,37.4,34.7,29.83,NNW,345,0.0,0.0,90,0.00,,---,0.00,VWS V14.01,2013-10-23 02:49:00,
2013-10-22 22:50:00,37.4,34.7,29.83,NNW,345,0.0,0.0,90,0.00,,---,0.00,VWS V14.01,2013-10-23 02:50:00,
2013-10-22 22:51:00,37.4,34.7,29.83,NNW,345,0.0,0.0,90,0.00,,---,0.00,VWS V14.01,2013-10-23 02:51:00,
2013-10-22 22:52:00,37.4,34.7,29.83,NNW,345,0.0,0.0,90,0.00,,---,0.00,VWS V14.01,2013-10-23 02:52:00,
2013-10-22 22:53:00,37.4,34.7,29.83,NNW,345,0.0,0.0,90,0.00,,---,0.00,VWS V14.01,2013-10-23 02:53:00,
2013-10-22 22:54:00,37.4,34.7,29.83,NNW,345,0.0,0.0,90,0.00,,---,0.00,VWS V14.01,2013-10-23 02:54:00,
2013-10-22 22:55:00,37.4,34.7,29.83,NNW,345,0.0,0.0,90,0.00,,---,0.00,VWS V14.01,2013-10-23 02:55:00,
2013-10-22 22:56:00,37.4,34.7,29.83,NNW,345,0.0,0.0,90,0.00,,---,0.00,VWS V14.01,2013-10-23 02:56:00,
2013-10-22 22:57:00,37.3,34.6,29.83,NNW,345,0.0,0.0,90,0.00,,---,0.00,VWS V14.01,2013-10-23 02:57:00,
2013-10-22 22:58:00,37.3,34.6,29.83,NNW,345,0.0,0.0,90,0.00,,---,0.00,VWS V14.01,2013-10-23 02:58:00,
2013-10-22 22:59:00,37.3,34.6,29.83,NNW,345,0.0,0.0,90,0.00,,---,0.00,VWS V14.01,2013-10-23 02:59:00,
2013-10-22 23:00:00,37.3,34.6,29.83,NNW,345,0.0,0.0,90,0.00,,---,0.00,VWS V14.01,2013-10-23 03:00:00,
2013-10-22 23:01:00,37.3,34.6,29.83,NNW,345,0.0,0.0,90,0.00,,---,0.00,VWS V14.01,2013-10-23 03:01:00,
2013-10-22 23:02:00,37.3,34.6,29.83,NNW,345,0.0,0.0,90,0.00,,---,0.00,VWS V14.01,2013-10-23 03:02:00,
2013-10-22 23:03:00,37.3,34.6,29.83,NNW,345,0.0,0.0,90,0.00,,---,0.00,VWS V14.01,2013-10-23 03:03:00,
2013-10-22 23:04:00,37.3,34.6,29.83,NNW,345,0.0,0.0,90,0.00,,---,0.00,VWS V14.01,2013-10-23 03:04:00,
2013-10-22 23:05:00,37.3,34.6,29.83,NNW,345,0.0,0.0,90,0.00,,---,0.00,VWS V14.01,2013-10-23 03:05:00,
2013-10-22 23:06:00,37.2,34.5,29.83,NNW,345,0.0,0.0,90,0.00,,---,0.00,VWS V14.01,2013-10-23 03:06:00,
2013-10-22 23:07:00,37.2,34.5,29.83,NNW,345,0.0,0.0,90,0.00,,---,0.00,VWS V14.01,2013-10-23 03:07:00,
2013-10-22 23:08:00,37.2,34.5,29.83,NNW,345,0.0,0.0,90,0.00,,---,0.00,VWS V14.01,2013-10-23 03:08:00,
2013-10-22 23:09:00,37.2,34.5,29.83,NNW,345,0.0,0.0,90,0.00,,---,0.00,VWS V14.01,2013-10-23 03:09:00,
2013-10-22 23:10:00,37.2,34.5,29.83,NNW,345,0.0,0.0,90,0.00,,---,0.00,VWS V14.01,2013-10-23 03:10:00,
2013-10-22 23:11:00,37.1,34.4,29.83,NNW,345,0.0,0.0,90,0.00,,---,0.00,VWS V14.01,2013-10-23 03:11:00,
2013-10-22 23:12:00,37.1,34.4,29.83,NNW,345,0.0,0.0,90,0.00,,---,0.00,VWS V14.01,2013-10-23 03:12:00,
2013-10-22 23:13:00,37.1,34.4,29.83,NNW,345,0.0,0.0,90,0.00,,---,0.00,VWS V14.01,2013-10-23 03:13:00,
2013-10-22 23:14:00,37.1,34.4,29.83,NNW,345,0.0,0.0,90,0.00,,---,0.00,VWS V14.01,2013-10-23 03:14:00,
2013-10-22 23:15:00,37.1,34.4,29.82,NNW,345,0.0,0.0,90,0.00,,---,0.00,VWS V14.01,2013-10-23 03:15:00,
2013-10-22 23:16:00,37.1,34.4,29.82,NNW,345,0.0,0.0,90,0.00,,---,0.00,VWS V14.01,2013-10-23 03:16:00,
2013-10-22 23:17:00,37.1,34.4,29.82,NNW,345,0.0,0.0,90,0.00,,---,0.00,VWS V14.01,2013-10-23 03:17:00,
2013-10-22 23:18:00,37.1,34.4,29.82,NNW,345,0.0,0.0,90,0.00,,---,0.00,VWS V14.01,2013-10-23 03:18:00,
2013-10-22 23:19:00,37.1,34.4,29.82,NNW,345,0.0,0.0,90,0.00,,---,0.00,VWS V14.01,2013-10-23 03:19:00,
2013-10-22 23:20:00,37.0,34.3,29.82,NNW,345,0.0,0.0,90,0.00,,---,0.00,VWS V14.01,2013-10-23 03:20:00,
2013-10-22 23:21:00,37.1,34.4,29.82,NNW,345,0.0,0.0,90,0.00,,---,0.00,VWS V14.01,2013-10-23 03:21:00,
2013-10-22 23:22:00,37.0,34.3,29.82,NNW,345,0.0,0.0,90,0.00,,---,0.00,VWS V14.01,2013-10-23 03:22:00,
2013-10-22 23:23:00,37.0,34.3,29.82,NNW,345,0.0,0.0,90,0.00,,---,0.00,VWS V14.01,2013-10-23 03:23:00,
2013-10-22 23:24:00,37.0,34.3,29.82,NNW,345,0.0,0.0,90,0.00,,---,0.00,VWS V14.01,2013-10-23 03:24:00,
2013-10-22 23:25:00,37.0,34.3,29.82,NNW,345,0.0,0.0,90,0.00,,---,0.00,VWS V14.01,2013-10-23 03:25:00,
2013-10-22 23:26:00,37.0,34.3,29.82,NNW,345,0.0,0.0,90,0.00,,---,0.00,VWS V14.01,2013-10-23 03:26:00,
2013-10-22 23:27:00,37.0,34.3,29.82,NNW,345,0.0,0.0,90,0.00,,---,0.00,VWS V14.01,2013-10-23 03:27:00,
2013-10-22 23:28:00,37.0,34.3,29.82,NNW,345,0.0,0.0,90,0.00,,---,0.00,VWS V14.01,2013-10-23 03:28:00,
2013-10-22 23:29:00,37.0,34.3,29.82,NNW,345,0.0,0.0,90,0.00,,---,0.00,VWS V14.01,2013-10-23 03:29:00,
2013-10-22 23:30:00,37.0,34.3,29.82,NNW,345,0.0,0.0,90,0.00,,---,0.00,VWS V14.01,2013-10-23 03:30:00,
2013-10-22 23:31:00,37.0,34.3,29.82,NNW,345,0.0,0.0,90,0.00,,---,0.00,VWS V14.01,2013-10-23 03:31:00,
2013-10-22 23:32:00,37.0,34.3,29.82,NNW,345,0.0,0.0,90,0.00,,---,0.00,VWS V14.01,2013-10-23 03:32:00,
2013-10-22 23:33:00,37.0,34.3,29.82,NNW,345,0.0,0.0,90,0.00,,---,0.00,VWS V14.01,2013-10-23 03:33:00,
2013-10-22 23:34:00,37.0,34.3,29.82,NNW,345,0.0,0.0,90,0.00,,---,0.00,VWS V14.01,2013-10-23 03:34:00,
2013-10-22 23:35:00,36.9,34.2,29.82,NNW,345,0.0,0.0,90,0.00,,---,0.00,VWS V14.01,2013-10-23 03:35:00,
2013-10-22 23:36:00,36.9,34.2,29.82,NNW,345,0.0,0.0,90,0.00,,---,0.00,VWS V14.01,2013-10-23 03:36:00,
2013-10-22 23:37:00,36.9,34.2,29.82,NNW,345,0.0,0.0,90,0.00,,---,0.00,VWS V14.01,2013-10-23 03:37:00,
2013-10-22 23:38:00,36.9,34.5,29.82,NNW,345,0.0,0.0,91,0.00,,---,0.00,VWS V14.01,2013-10-23 03:38:00,
2013-10-22 23:39:00,36.9,34.5,29.82,NNW,345,0.0,0.0,91,0.00,,---,0.00,VWS V14.01,2013-10-23 03:39:00,
2013-10-22 23:40:00,36.9,34.5,29.82,NNW,345,0.0,0.0,91,0.00,,---,0.00,VWS V14.01,2013-10-23 03:40:00,
2013-10-22 23:41:00,36.9,34.5,29.82,NNW,345,0.0,0.0,91,0.00,,---,0.00,VWS V14.01,2013-10-23 03:41:00,
2013-10-22 23:42:00,36.9,34.5,29.82,NNW,345,0.0,0.0,91,0.00,,---,0.00,VWS V14.01,2013-10-23 03:42:00,
2013-10-22 23:43:00,36.9,34.5,29.82,NNW,345,0.0,0.0,91,0.00,,---,0.00,VWS V14.01,2013-10-23 03:43:00,
2013-10-22 23:44:00,36.9,34.5,29.82,NNW,345,0.0,0.0,91,0.00,,---,0.00,VWS V14.01,2013-10-23 03:44:00,
2013-10-22 23:45:00,36.9,34.5,29.82,NNW,345,0.0,0.0,91,0.00,,---,0.00,VWS V14.01,2013-10-23 03:45:00,
2013-10-22 23:46:00,36.9,34.2,29.82,NNW,345,0.0,0.0,90,0.00,,---,0.00,VWS V14.01,2013-10-23 03:46:00,
2013-10-22 23:47:00,36.9,34.5,29.82,NNW,345,0.0,0.0,91,0.00,,---,0.00,VWS V14.01,2013-10-23 03:47:00,
2013-10-22 23:48:00,36.9,34.5,29.82,NNW,345,0.0,0.0,91,0.00,,---,0.00,VWS V14.01,2013-10-23 03:48:00,
2013-10-22 23:49:00,36.9,34.5,29.82,NNW,345,0.0,0.0,91,0.00,,---,0.00,VWS V14.01,2013-10-23 03:49:00,
2013-10-22 23:50:00,36.9,34.5,29.82,NNW,345,0.0,0.0,91,0.00,,---,0.00,VWS V14.01,2013-10-23 03:50:00,
2013-10-22 23:51:00,36.8,34.4,29.82,NNW,345,0.0,0.0,91,0.00,,---,0.00,VWS V14.01,2013-10-23 03:51:00,
2013-10-22 23:52:00,36.8,34.4,29.82,NNW,345,0.0,0.0,91,0.00,,---,0.00,VWS V14.01,2013-10-23 03:52:00,
2013-10-22 23:53:00,36.8,34.4,29.82,NNW,345,0.0,0.0,91,0.00,,---,0.00,VWS V14.01,2013-10-23 03:53:00,
2013-10-22 23:54:00,36.8,34.4,29.82,NNW,345,0.0,0.0,91,0.00,,---,0.00,VWS V14.01,2013-10-23 03:54:00,
2013-10-22 23:55:00,36.8,34.4,29.82,NNW,345,0.0,0.0,91,0.00,,---,0.00,VWS V14.01,2013-10-23 03:55:00,
2013-10-22 23:56:00,36.8,34.4,29.82,NNW,345,0.0,0.0,91,0.00,,---,0.00,VWS V14.01,2013-10-23 03:56:00,
2013-10-22 23:57:00,36.8,34.4,29.82,NNW,345,0.0,0.0,91,0.00,,---,0.00,VWS V14.01,2013-10-23 03:57:00,
2013-10-22 23:58:00,36.8,34.4,29.82,NNW,345,0.0,0.0,91,0.00,,---,0.00,VWS V14.01,2013-10-23 03:58:00,
2013-10-22 23:59:00,36.8,34.4,29.82,NNW,345,0.0,0.0,91,0.00,,---,0.00,VWS V14.01,2013-10-23 03:59:00,